GFSSGP_con_3kmhel_000.txt.gz
Helicity
13 49 70 70 89 35 -24 -29 -0 54 53 53 53 25 -2 61 10 15 111 65 144 196 142 150 160 128 112 89 57 51 24 24 32 20 24 24 25 21 23 24 25 36 44 53 54 78 80 70 90
11 59 72 97 84 -4 -72 -31 15 34 88 26 -5 16 4 13 15 15 51 44 110 214 150 179 170 136 104 67 57 43 25 24 25 14 20 30 28 23 31 33 33 34 43 46 59 95 78 80 88
6 50 98 96 29 -90 -96 15 63 128 52 43 7 17 25 -1 21 35 103 82 116 194 109 163 157 147 128 80 59 45 35 24 24 25 27 29 29 25 37 28 29 45 56 57 63 75 70 68 78
-3 31 58 66 -49 -83 -60 22 54 47 23 10 35 9 34 59 10 96 89 58 109 90 248 234 187 159 108 98 60 50 42 32 35 34 43 25 32 40 36 27 28 49 46 55 56 59 65 58 60
1 48 79 23 -51 -15 16 67 32 27 -1 -4 20 -9 17 51 109 88 60 41 87 85 204 163 167 157 125 90 64 43 46 36 39 43 36 45 42 39 45 32 33 43 48 55 55 56 55 57 66
30 64 76 4 15 -27 59 48 6 7 17 60 9 -20 37 78 70 52 43 21 67 69 212 145 162 151 124 82 68 50 47 51 47 51 43 42 40 28 41 28 34 53 50 54 57 58 55 57 61
32 102 77 111 111 18 20 16 47 -4 11 13 32 30 57 33 95 52 16 24 67 99 171 141 125 113 94 74 89 57 51 55 42 54 43 54 68 52 54 34 49 66 55 56 60 62 68 67 63
31 58 62 70 69 87 19 121 93 70 23 103 79 60 34 79 95 50 21 48 51 70 83 147 117 117 85 79 88 72 48 58 86 79 48 78 60 69 64 64 71 70 63 57 59 62 72 74 69
27 24 12 63 82 63 11 84 5 20 44 82 52 111 157 160 86 75 42 43 49 47 53 77 145 111 91 106 107 78 61 82 100 79 84 70 50 63 49 76 99 75 66 60 64 72 82 81 68
15 17 23 94 76 69 84 75 57 -2 -0 43 112 132 149 124 70 86 59 39 36 54 46 45 103 112 95 99 179 125 118 116 103 83 89 60 28 48 89 128 107 86 79 69 69 78 80 78 66
30 39 68 171 75 39 59 68 76 23 29 28 1 136 126 118 71 78 59 72 63 44 57 58 76 115 129 90 156 115 92 101 68 56 93 74 12 96 132 151 113 88 81 79 77 82 89 98 91
36 40 58 74 116 6 27 44 61 21 13 100 133 145 149 116 105 81 74 57 103 87 61 74 77 118 118 131 117 123 89 123 84 74 91 102 69 98 118 103 110 98 85 68 107 98 112 111 126
30 57 31 40 37 18 52 31 28 34 44 64 102 118 122 112 88 91 74 77 87 169 129 107 109 130 114 140 156 102 125 120 104 97 102 130 114 109 96 82 83 118 101 89 86 97 77 133 143
39 59 39 38 -42 -40 6 58 67 43 24 60 66 44 90 109 86 91 119 104 116 164 186 176 196 122 134 125 141 142 134 152 130 125 135 123 137 123 108 113 97 119 119 80 105 125 113 123 165
15 42 57 -6 -5 -27 49 -15 2 9 48 57 55 42 48 61 74 100 120 142 128 166 184 215 240 207 133 146 157 151 152 161 172 137 137 137 142 142 138 133 125 137 143 132 133 128 131 145 156
27 33 74 26 -75 54 50 32 110 32 76 26 47 53 62 38 58 81 84 112 146 163 166 211 251 274 227 155 175 205 180 180 172 171 168 160 177 186 162 173 180 183 191 171 178 189 196 192 195
33 62 63 50 100 43 43 56 90 60 5 8 34 46 54 48 53 63 65 96 98 149 154 153 206 242 279 230 193 204 206 197 208 190 196 195 216 223 241 240 238 235 226 238 227 226 252 247 238
63 91 71 79 70 59 24 30 59 73 56 30 28 44 85 126 150 143 164 203 184 134 162 180 180 220 245 281 252 242 250 245 267 252 246 254 255 267 296 305 291 303 287 264 287 281 270 277 288
206 160 60 43 84 42 35 33 65 50 95 104 182 197 207 181 160 127 89 84 75 145 164 111 211 251 317 379 360 338 329 287 277 294 279 286 289 282 317 343 325 324 320 292 297 305 299 282 311
133 116 85 106 52 31 76 67 58 59 65 132 195 169 165 123 108 93 73 71 83 70 64 128 145 146 231 335 341 322 291 241 250 256 260 275 282 280 310 340 355 344 329 308 323 333 330 294 321
93 110 137 143 72 63 61 43 66 44 91 144 111 106 104 108 105 100 86 79 83 95 75 60 95 188 128 205 278 210 201 217 203 202 205 182 181 187 209 224 275 291 301 285 313 338 332 317 305
110 60 58 113 135 141 47 83 70 76 116 104 120 102 91 97 79 75 77 81 84 70 38 37 45 73 171 165 156 135 158 166 157 153 166 161 175 206 215 228 240 274 312 289 300 343 364 320 298
82 58 66 86 93 111 64 96 63 132 119 128 97 92 93 77 89 89 72 52 29 33 31 38 32 58 53 65 87 90 90 129 124 127 129 131 158 192 224 237 222 213 256 264 290 290 311 319 313
52 56 47 43 66 111 99 101 110 144 201 188 121 109 94 102 111 106 63 37 29 37 45 53 62 71 73 76 75 78 70 67 76 82 95 104 111 142 198 224 229 211 208 223 230 248 276 336 351
51 105 160 138 106 101 61 76 -15 111 270 195 162 122 120 122 117 71 40 31 48 78 92 84 96 112 112 104 101 95 89 80 75 74 80 83 96 101 102 157 210 238 221 204 199 205 236 292 352
37 90 172 217 171 85 35 51 97 158 284 400 220 164 154 162 104 62 26 -2 2 32 80 104 106 105 115 117 124 121 120 108 102 97 94 79 72 74 88 91 110 177 194 164 167 188 206 234 287
64 62 40 67 41 47 43 41 91 217 237 200 129 136 157 125 116 73 24 9 -15 -2 7 36 71 89 106 114 118 130 135 140 130 124 109 103 87 85 83 75 86 90 97 119 146 184 174 208 249
56 61 54 47 40 37 33 44 56 202 188 133 150 161 146 135 133 87 45 7 -42 -31 25 69 89 93 86 88 83 75 77 85 89 84 83 79 82 88 97 103 105 98 91 97 105 122 133 149 197
44 40 37 53 60 55 59 44 144 190 145 125 188 234 203 160 110 58 24 5 -33 40 102 93 84 75 77 63 59 64 60 65 63 65 68 71 71 69 71 72 80 91 110 124 132 118 110 126 141
61 49 36 68 76 78 120 55 113 112 155 245 172 167 179 168 131 82 13 10 108 95 114 136 119 99 73 63 52 42 40 37 39 36 43 50 51 50 52 65 83 88 91 90 101 120 131 133 143

GFSSGP_con_3kmhel_003.txt.gz
Helicity
-16 33 55 76 98 87 -1 -46 32 19 63 14 22 53 16 3 -4 0 11 125 213 212 169 166 177 181 151 119 71 41 15 22 27 30 15 46 37 31 20 27 35 54 57 56 54 57 79 66 89
-10 39 49 82 107 91 -31 -16 20 -24 23 65 56 40 9 5 1 16 40 99 202 191 167 155 181 169 136 108 68 49 31 26 25 6 23 42 36 36 30 43 37 48 63 65 77 84 75 78 89
-15 30 72 108 72 29 -38 38 -8 37 16 34 71 50 11 -10 20 32 -18 75 252 199 159 161 186 168 131 93 72 35 28 13 16 15 33 43 38 35 33 44 48 62 64 66 80 86 69 74 84
-17 28 78 64 -1 -13 -53 71 -9 6 11 25 49 67 37 8 16 42 50 96 181 168 166 161 167 157 139 95 55 32 24 18 27 55 56 39 46 54 39 48 52 64 63 65 66 83 78 74 58
-6 32 104 28 2 3 39 20 -5 -4 16 7 21 -7 6 30 73 93 71 67 138 154 188 216 199 173 142 100 70 43 31 28 43 62 58 57 64 59 49 50 58 61 62 66 69 76 81 64 59
24 32 81 16 38 28 15 55 25 -53 22 13 -5 6 -12 47 77 54 42 40 121 168 185 209 217 211 182 129 96 62 44 41 43 60 38 51 61 63 59 41 36 63 55 56 60 64 64 59 54
21 55 39 21 46 98 55 -2 58 22 34 15 0 27 12 27 36 55 35 23 80 180 195 192 201 188 175 139 129 82 66 51 60 69 49 53 82 73 74 43 45 61 59 53 51 54 64 71 68
34 32 62 0 40 64 71 59 43 125 63 36 40 -44 -26 -4 44 62 40 39 90 163 188 166 154 181 166 139 144 99 78 83 58 107 60 53 75 71 61 63 65 67 61 48 46 54 64 73 67
52 53 63 31 57 80 56 48 115 70 27 42 63 37 35 147 98 87 63 70 79 85 158 171 164 144 142 128 126 117 82 56 72 101 94 88 75 66 64 67 63 71 65 59 58 61 65 70 72
63 42 35 49 75 127 116 23 74 60 67 27 78 99 129 151 129 108 63 62 67 62 67 182 196 151 117 107 113 114 95 79 103 111 111 94 68 59 57 69 81 76 74 69 56 58 74 87 85
40 36 46 123 129 87 70 41 23 40 17 14 -14 81 125 139 137 119 68 73 76 81 101 109 199 162 169 146 132 120 123 122 104 108 98 68 52 47 71 123 122 115 86 95 74 78 99 102 93
34 26 37 117 169 74 28 -15 0 6 4 48 34 78 145 134 93 95 95 70 94 107 112 117 139 184 174 212 189 158 131 118 103 78 84 98 65 77 110 146 132 124 94 88 86 95 96 109 105
53 42 40 53 85 60 45 22 9 2 48 46 75 73 76 103 91 84 86 86 117 126 129 142 165 183 172 182 182 149 124 140 129 105 94 138 120 103 117 149 146 130 122 111 108 102 99 107 113
40 31 24 21 35 64 44 38 33 16 42 64 51 33 36 64 77 98 104 94 102 130 149 154 201 206 200 190 172 167 149 129 139 122 113 146 163 169 167 161 156 145 164 164 145 142 137 133 143
53 39 34 3 -8 5 8 44 26 86 46 57 50 22 16 27 68 94 102 114 121 118 174 205 226 229 224 206 200 187 169 160 154 152 133 147 187 214 222 198 187 188 193 191 172 156 171 161 145
58 35 45 52 9 -53 50 83 82 104 56 38 48 50 30 36 52 82 65 89 129 163 198 228 245 227 216 241 249 251 207 195 193 187 182 169 189 223 223 223 220 255 245 247 238 210 193 207 203
68 54 40 102 -7 16 88 69 111 159 125 94 49 37 119 227 300 271 249 205 121 114 180 218 267 307 279 250 274 276 262 253 240 236 225 205 226 257 280 262 229 278 297 298 296 269 260 229 212
71 84 156 130 64 102 101 87 90 22 87 67 92 181 225 243 181 136 162 171 176 209 169 119 232 354 346 295 260 252 270 282 303 275 268 266 268 285 316 293 254 270 279 279 308 269 277 254 248
91 156 116 83 61 121 46 28 44 74 93 120 205 280 241 167 99 97 107 94 92 144 188 235 214 184 380 447 369 302 284 287 270 269 247 247 248 275 301 290 297 331 324 314 336 307 289 262 337
101 168 134 88 38 59 38 39 61 69 99 132 163 174 131 125 146 121 105 99 106 108 119 123 168 215 194 278 385 380 338 238 244 235 242 246 251 275 295 286 302 344 334 314 343 348 305 291 356
103 105 95 91 108 48 66 73 86 143 123 142 127 111 114 103 85 79 94 102 119 156 147 113 82 115 163 161 212 278 291 216 159 173 185 175 193 216 245 237 270 280 343 315 316 323 309 287 288
111 70 67 58 71 85 97 89 114 121 135 110 97 106 87 77 70 76 95 113 112 103 74 67 60 79 107 123 154 146 120 113 94 100 115 110 144 176 194 214 244 260 293 273 286 305 305 297 275
105 110 70 67 91 73 75 108 80 172 157 103 78 88 90 100 104 109 107 103 77 69 56 46 67 102 99 91 73 69 81 70 59 78 83 82 83 96 122 180 244 267 257 257 240 207 225 261 277
83 90 79 81 102 114 64 112 70 140 229 127 91 97 118 132 139 132 109 88 80 69 52 52 82 123 149 156 166 160 154 136 126 123 113 107 96 93 103 114 172 209 222 243 237 208 162 221 232
118 138 180 181 158 96 68 127 49 89 194 238 200 171 157 144 154 144 117 92 79 84 62 43 81 121 157 186 209 215 215 210 199 190 179 189 181 166 175 145 114 96 123 163 195 182 171 173 202
93 82 151 165 142 134 107 74 40 91 236 296 238 234 196 157 137 112 84 72 69 54 53 46 60 98 155 163 166 157 152 142 135 136 124 134 140 152 157 187 194 180 139 112 115 155 181 161 172
90 67 55 85 95 89 62 59 89 216 303 333 247 216 168 140 127 106 78 50 20 14 35 52 72 111 147 140 129 125 112 109 110 105 87 87 86 97 108 106 118 135 150 163 168 156 150 139 141
69 66 82 78 64 65 57 51 35 172 237 220 192 167 154 129 97 97 71 31 10 16 54 139 154 148 122 105 92 88 82 70 64 59 74 73 82 89 101 109 112 116 122 124 140 148 148 158 155
70 64 59 70 71 52 51 69 74 96 125 119 147 141 103 112 124 79 51 35 43 107 163 158 153 122 120 110 96 98 88 65 61 61 70 78 74 69 68 70 80 94 108 119 133 134 134 155 182
50 29 42 68 88 77 48 60 46 54 118 161 118 99 157 138 109 96 118 196 255 237 209 177 142 130 109 97 99 95 82 58 62 70 70 61 40 26 23 31 44 56 69 82 96 107 125 169 192

GFSSGP_con_3kmhel_006.txt.gz
Helicity
-9 8 23 72 93 69 8 17 51 72 26 -1 28 35 35 35 18 15 12 58 120 169 138 143 148 175 181 140 92 56 31 24 30 9 4 44 38 45 38 41 35 50 56 50 42 59 68 76 95
-12 -7 48 76 78 43 27 34 40 23 8 20 37 55 44 22 -3 5 44 79 177 175 153 140 159 206 179 123 86 54 34 23 21 3 14 38 46 46 47 47 40 42 55 58 62 60 81 67 76
-12 -11 68 105 79 20 36 66 121 43 15 17 38 59 39 19 -2 -3 18 126 155 138 143 140 185 189 158 114 78 44 30 29 25 6 16 39 56 57 54 50 55 58 69 61 69 56 71 80 82
7 16 70 89 44 35 19 80 70 114 17 13 54 57 31 8 -16 -9 91 143 151 115 127 165 195 180 159 119 85 49 39 33 6 19 33 52 64 72 47 48 53 53 59 56 56 73 74 69 66
13 16 87 79 37 49 34 72 88 73 13 30 29 39 24 17 17 64 104 140 145 101 115 148 182 189 166 134 98 70 45 49 48 47 42 36 59 60 54 38 49 56 55 56 54 60 74 64 62
32 12 79 47 44 53 52 62 66 -3 -7 -9 69 58 -22 19 43 21 73 114 120 119 108 138 168 202 190 162 120 96 73 61 67 56 45 39 56 62 61 47 39 51 55 57 57 54 59 66 57
31 38 44 38 48 60 103 216 39 -53 -8 -3 19 60 15 16 5 28 53 99 115 151 163 160 160 196 203 177 150 120 85 55 43 44 42 36 50 63 60 40 38 48 52 47 47 48 51 58 61
43 37 46 33 51 117 156 247 123 47 9 29 15 7 -7 -11 46 42 50 88 119 156 179 172 171 184 184 178 183 149 102 70 84 57 69 43 42 50 57 46 31 47 55 47 42 44 48 56 62
63 62 58 51 58 115 132 224 108 65 70 58 39 28 9 85 129 93 70 53 121 133 164 164 161 158 158 146 151 140 117 92 70 42 89 62 58 49 52 58 44 58 67 59 49 44 48 57 70
79 54 23 38 68 80 135 140 259 92 102 60 43 61 88 175 137 118 112 70 117 144 129 156 148 139 130 113 110 108 96 78 51 73 80 81 66 58 58 43 46 46 66 68 60 46 42 57 88
69 50 33 81 80 91 73 104 107 94 30 9 -9 40 95 133 116 119 96 94 94 143 166 154 158 146 138 96 111 96 74 64 52 61 81 78 69 58 49 51 58 85 80 103 80 77 75 88 93
71 38 43 68 105 105 47 55 45 56 6 15 46 35 146 113 96 109 103 79 110 126 107 168 172 186 150 136 135 117 93 68 62 73 85 85 63 53 50 78 93 131 130 126 103 94 72 76 86
61 41 -1 50 82 60 63 8 32 6 39 36 16 48 102 81 86 102 100 99 98 126 128 134 217 210 195 182 182 161 124 93 83 85 83 93 74 68 84 101 130 153 168 159 127 110 97 96 90
64 46 4 13 35 17 33 22 19 5 51 60 33 27 55 61 67 96 98 85 107 118 127 136 174 232 244 251 241 198 178 139 125 97 85 98 100 88 99 130 157 162 180 169 161 148 145 137 130
60 49 1 8 38 38 38 31 36 147 97 46 48 40 28 20 77 67 104 89 128 130 138 158 183 208 252 260 265 252 208 178 160 133 120 121 136 137 134 163 185 167 167 158 170 163 161 164 152
81 66 50 59 27 19 57 49 94 130 104 44 29 109 87 74 107 124 118 68 71 104 132 156 202 251 253 253 259 257 225 213 191 191 174 156 167 189 179 184 176 178 194 206 231 238 219 228 229
101 56 53 97 19 59 71 50 51 107 125 147 129 104 140 175 215 178 143 111 113 96 83 132 196 269 270 258 275 281 248 229 222 216 216 210 213 224 238 241 239 248 251 247 247 231 269 212 230
80 85 70 74 41 69 95 19 85 71 61 116 156 177 193 195 163 137 135 121 107 106 95 93 102 172 189 215 260 258 244 211 234 227 230 232 236 227 244 231 238 281 261 236 260 236 258 257 216
77 89 94 127 47 82 64 79 59 53 118 157 178 177 177 153 82 86 92 96 89 108 120 114 130 115 234 277 242 220 227 240 231 227 203 212 224 219 227 219 221 280 273 243 249 260 232 236 279
69 62 80 91 38 39 57 54 51 91 83 101 107 112 102 97 134 145 138 137 141 116 110 101 109 119 64 159 215 222 185 185 197 184 153 145 163 188 195 210 218 247 267 245 243 272 253 252 279
89 60 64 46 62 44 46 62 88 134 136 125 123 94 92 109 124 139 143 137 138 163 135 109 76 80 74 44 95 137 157 139 114 94 82 82 96 123 153 171 215 227 285 258 252 279 299 241 203
58 35 62 60 48 56 47 58 101 124 96 101 74 89 105 111 106 98 114 136 133 127 106 79 57 62 82 106 115 133 123 110 103 83 79 70 64 74 94 123 156 182 232 261 258 255 281 246 242
55 68 83 74 47 63 72 79 52 148 83 99 51 84 99 113 104 101 98 95 100 96 86 80 90 126 127 144 154 160 176 150 126 136 156 166 167 159 158 155 144 156 191 205 203 210 223 242 254
82 131 152 115 78 85 65 101 40 150 120 125 69 81 106 114 102 94 99 105 94 84 87 80 81 118 174 210 237 242 239 221 211 199 188 173 165 159 175 188 172 158 152 156 167 185 197 225 205
163 175 155 135 139 84 100 139 42 63 85 176 149 110 135 130 102 110 98 78 71 77 65 60 95 145 178 190 198 171 154 147 148 142 127 126 121 122 151 149 160 155 163 164 163 159 151 145 142
121 125 161 125 129 118 140 109 67 34 73 221 202 162 150 139 121 88 76 64 70 70 91 115 130 159 161 154 136 124 122 101 97 93 79 85 91 97 106 123 129 146 158 163 155 148 154 152 152
128 117 68 139 142 148 112 81 46 75 203 221 242 188 135 110 74 78 76 98 100 144 128 107 102 117 135 136 133 140 117 109 91 84 71 74 85 99 104 97 101 113 120 130 145 145 159 161 150
107 88 138 144 128 114 119 84 55 62 152 227 213 140 103 75 105 100 81 100 170 179 165 170 134 103 110 123 116 104 95 94 91 80 84 85 87 84 75 68 67 77 90 100 122 130 140 154 161
133 129 129 106 96 87 95 58 50 40 126 183 110 89 93 114 97 88 136 239 258 228 206 172 130 125 139 125 109 103 87 69 54 55 57 64 61 57 44 37 39 43 38 48 73 100 119 154 168
67 56 90 89 69 75 51 43 58 53 72 116 84 98 105 116 120 181 247 273 277 247 216 183 158 149 132 113 106 95 86 90 94 104 110 111 103 88 87 80 68 59 60 62 64 78 107 99 113

GFSSGP_con_3kmhel_009.txt.gz
Helicity
2 -5 22 82 91 77 32 48 56 74 70 24 -7 20 18 24 21 15 -12 29 38 127 127 134 127 137 146 138 102 71 36 26 20 7 7 34 23 20 21 20 24 42 48 32 27 31 35 47 39
-1 -6 44 68 76 59 56 89 76 90 11 12 14 23 23 3 18 -4 7 64 73 145 127 120 121 142 164 161 109 76 34 35 24 13 17 34 22 15 24 3 21 24 40 43 28 31 44 43 60
-9 -1 43 81 56 38 62 105 164 149 86 26 27 28 24 9 13 -17 -7 97 108 127 113 100 107 151 186 158 115 84 53 46 23 32 25 35 36 45 38 21 29 48 52 43 32 31 52 42 28
14 13 45 75 51 57 56 84 90 92 89 28 37 23 13 17 6 -10 65 110 121 94 87 82 114 169 155 140 106 68 43 35 30 4 24 26 39 50 33 26 27 41 45 46 40 39 41 42 56
24 12 72 70 54 57 67 98 99 73 82 37 47 35 19 19 5 44 98 115 120 79 68 73 119 149 153 145 120 82 44 31 19 37 47 38 30 28 60 38 27 42 40 43 43 41 39 40 40
44 18 73 47 58 79 109 78 122 16 24 -0 17 28 14 30 35 50 85 93 90 115 84 76 111 141 161 153 128 96 69 46 32 26 39 29 30 39 69 62 41 35 38 38 40 37 35 46 44
30 38 31 45 62 97 100 156 190 123 12 -16 34 14 -0 -4 -4 51 67 76 80 97 121 93 95 123 153 157 142 113 97 74 56 25 39 14 21 39 38 51 41 33 35 37 36 36 39 41 41
52 39 29 33 71 101 112 166 160 205 63 28 32 18 9 -16 40 66 86 74 89 88 115 124 122 132 139 133 126 121 108 95 61 18 87 45 28 38 39 57 41 24 41 37 30 27 25 23 25
66 60 37 49 40 82 96 151 128 158 139 90 54 1 7 25 120 116 110 80 93 87 99 120 132 131 134 119 96 107 107 76 59 56 71 74 52 39 31 39 27 17 28 40 37 29 21 21 23
113 55 18 27 33 59 105 107 158 102 168 108 65 39 59 93 120 141 108 96 103 94 108 114 133 125 120 92 75 78 63 60 60 47 56 77 66 52 41 33 14 9 15 22 32 35 29 34 68
100 54 44 45 -3 36 49 67 34 77 76 114 44 41 41 105 102 99 74 92 100 97 128 130 138 135 135 107 91 75 64 48 35 18 29 57 64 54 54 46 37 47 41 65 63 72 83 83 84
93 52 34 43 8 17 44 16 -9 30 53 80 48 40 59 86 85 113 80 81 115 154 130 143 163 163 158 140 124 102 87 65 42 47 41 57 58 43 41 49 45 67 81 86 95 100 84 75 72
80 45 33 17 11 -16 28 -10 -9 -38 47 61 50 15 23 77 75 84 93 98 91 103 121 148 175 183 178 192 153 137 109 106 94 82 74 75 67 47 25 12 20 32 64 101 115 118 121 113 101
52 42 41 23 19 -6 7 4 -10 -19 44 40 31 47 42 50 58 50 69 79 90 104 112 150 183 211 219 216 204 172 145 120 129 117 101 97 106 92 68 66 80 92 115 119 130 130 129 125 125
68 42 33 6 37 12 41 5 -26 59 70 32 34 55 83 64 52 38 52 56 77 105 109 135 166 212 234 227 239 216 184 152 147 140 135 143 153 158 147 153 155 172 193 170 174 180 182 166 159
91 58 12 22 41 16 105 55 46 86 46 126 88 100 112 109 103 109 101 89 81 51 51 79 139 200 221 228 247 231 227 199 170 181 182 167 170 191 187 165 169 197 225 230 221 198 185 186 185
115 16 17 79 18 48 65 76 111 74 78 128 127 143 134 119 140 130 108 97 76 63 49 26 77 131 165 208 245 233 227 222 205 216 213 198 199 207 208 208 190 224 225 242 248 215 240 183 187
88 50 65 66 60 52 55 63 61 39 43 87 116 122 147 163 165 148 137 107 81 52 35 35 24 55 113 167 190 193 171 152 162 174 187 184 184 187 204 195 204 233 229 217 252 237 241 240 196
73 69 84 69 76 -1 30 34 33 3 -6 113 116 133 136 151 141 143 129 130 120 124 106 93 102 77 61 130 157 155 164 148 129 133 135 136 133 130 158 173 185 211 222 210 216 254 220 220 231
85 70 61 75 60 4 13 13 27 16 55 87 118 127 112 118 143 151 143 144 146 127 126 120 105 98 45 11 8 32 26 50 49 42 43 70 84 90 107 135 146 161 189 185 194 226 217 247 256
63 46 45 50 83 14 16 -6 67 86 105 102 104 110 115 113 120 132 134 138 124 136 122 107 96 81 66 28 21 45 63 84 102 96 102 104 96 96 97 110 128 134 163 157 150 195 226 211 194
78 44 46 52 46 26 36 8 28 84 113 90 107 97 100 97 96 103 116 123 120 96 67 60 76 93 101 101 110 129 117 113 99 84 92 145 157 156 158 143 134 122 116 124 146 149 163 194 210
18 25 43 44 48 31 52 47 -1 91 77 72 75 66 78 77 74 93 95 87 70 61 61 68 91 110 95 122 124 131 146 135 125 140 156 158 154 137 131 140 132 131 125 133 132 136 135 142 151
64 123 131 88 50 15 67 109 25 88 106 122 90 58 71 72 86 87 83 69 72 81 98 84 80 103 125 138 150 141 142 138 140 139 130 117 108 106 123 136 133 129 141 152 152 162 168 164 161
123 153 126 89 98 36 55 95 49 20 71 144 140 80 69 87 79 65 66 75 101 105 84 77 97 126 118 119 112 107 107 106 95 80 61 66 62 63 82 78 88 93 104 111 115 135 156 170 181
155 118 109 53 52 25 117 68 44 49 32 84 171 134 111 83 66 76 79 100 108 98 106 114 105 111 109 91 94 101 105 80 75 77 67 81 83 80 82 88 84 91 98 105 108 107 126 129 157
190 152 87 88 84 72 87 70 52 56 79 113 198 177 102 66 85 94 99 137 120 139 141 125 112 105 106 102 92 96 91 94 85 87 81 77 70 77 84 76 68 64 59 64 75 83 94 116 132
142 139 158 162 91 63 102 69 56 65 58 80 169 141 68 88 118 114 146 151 170 175 168 158 123 106 94 96 100 97 105 94 78 64 75 81 83 82 75 73 70 66 59 61 65 58 68 91 109
239 180 206 124 111 82 83 63 35 45 43 76 116 69 60 107 107 140 186 225 220 206 187 162 139 120 118 120 107 103 94 90 76 66 64 86 91 94 88 86 78 73 75 71 59 73 70 95 89
152 118 151 142 104 109 68 28 39 37 29 90 55 67 110 99 123 183 238 251 244 224 205 171 146 136 132 118 106 93 75 80 96 101 101 109 98 93 84 75 67 67 65 72 75 86 86 94 74

GFSSGP_con_3kmhel_012.txt.gz
Helicity
-6 -24 -7 68 85 80 40 48 58 77 76 49 7 25 22 18 4 10 -7 27 -10 70 99 85 113 120 119 102 89 74 52 25 11 -3 7 -7 29 22 21 11 14 18 18 13 13 41 22 27 8
-13 -18 11 57 70 67 54 66 49 119 76 63 17 24 18 6 11 6 1 48 38 77 97 76 92 117 110 108 96 82 57 22 4 -7 -18 18 14 18 9 -5 6 2 3 8 2 12 14 28 18
-9 -1 23 68 63 40 52 78 129 157 148 39 45 33 27 15 11 5 -17 92 80 84 90 70 61 85 94 122 95 79 48 26 -13 -26 -7 13 26 45 33 28 9 7 14 24 -1 8 4 27 11
19 21 26 73 61 55 55 101 72 133 98 35 39 34 21 19 14 -12 25 89 95 81 80 64 56 50 127 108 97 71 42 13 -15 -28 -4 14 40 44 26 28 13 19 15 16 2 7 17 16 22
27 21 48 74 67 74 79 95 69 79 62 84 77 45 27 17 7 3 44 78 93 71 71 50 53 92 106 109 99 75 51 19 -6 -24 -20 3 36 26 47 35 31 27 14 11 4 3 7 19 17
55 31 47 47 80 82 89 69 90 72 37 53 47 47 20 15 4 2 37 59 70 81 71 49 43 103 102 100 102 78 60 45 2 -27 16 28 25 18 74 61 35 27 19 13 7 1 5 7 16
55 48 23 27 82 101 82 105 113 132 93 63 18 6 -0 10 10 20 31 50 71 71 78 55 40 71 112 104 90 73 61 54 43 11 4 20 12 21 36 33 40 17 14 16 21 16 12 7 5
68 60 32 20 69 104 83 105 76 99 106 117 31 35 15 11 26 53 58 66 77 74 73 64 59 60 81 94 86 77 55 47 48 32 -0 35 21 22 32 12 34 12 -3 -10 7 12 12 13 10
80 81 48 43 33 65 76 70 45 58 81 161 78 36 26 21 85 84 83 88 90 70 75 77 79 73 92 95 76 56 44 33 33 11 17 53 45 15 12 10 8 -1 -8 -7 -3 11 12 21 29
107 64 16 33 21 36 94 41 63 27 77 140 139 70 46 26 85 76 84 82 96 77 80 89 93 90 91 92 86 61 42 24 3 17 21 47 50 37 30 20 3 -9 -7 4 5 1 13 39 72
87 50 41 49 19 -4 67 75 -21 10 26 70 82 63 20 8 58 63 65 84 80 76 86 98 109 99 109 108 96 81 64 51 27 13 20 33 45 39 37 35 32 34 27 44 45 56 73 78 89
80 55 44 44 22 6 34 50 42 -22 9 64 65 25 13 20 35 85 72 77 71 71 78 94 116 119 121 123 119 98 93 77 60 34 37 57 61 55 52 53 41 44 53 53 68 87 89 91 92
88 63 40 34 30 -10 -14 45 40 -36 5 35 17 8 19 8 38 75 63 52 54 66 80 113 152 158 151 160 139 117 99 98 92 78 67 89 89 92 89 78 74 73 76 90 87 91 97 114 112
36 45 43 18 18 -7 -16 34 -53 12 40 41 -6 -13 31 31 30 49 56 50 46 49 72 97 130 164 187 172 179 159 135 101 101 94 93 103 118 116 113 101 99 109 137 139 136 139 133 137 145
95 41 36 6 -3 3 -25 -11 57 121 73 29 14 -29 59 85 93 78 71 57 52 30 23 63 90 149 173 165 178 175 173 140 129 125 117 123 131 130 124 129 136 149 163 151 160 161 167 157 164
105 64 -11 -21 51 35 31 114 156 40 48 60 59 48 105 138 125 121 109 84 73 57 62 47 78 125 135 141 168 175 180 163 145 150 141 133 138 149 155 161 173 181 189 185 187 169 161 172 179
107 28 6 58 47 28 32 5 42 64 82 89 63 71 103 156 164 159 130 93 72 66 63 68 37 38 69 89 114 133 128 132 133 136 141 135 133 144 157 167 151 155 165 178 180 160 187 146 147
128 98 59 63 69 34 8 57 104 65 59 46 28 77 113 158 157 136 125 91 85 77 58 51 57 55 44 69 83 77 63 54 66 69 72 75 98 105 132 147 141 130 130 130 151 151 138 175 157
78 85 50 90 71 6 28 15 86 57 9 22 50 82 123 151 132 137 154 146 121 112 95 114 124 111 49 48 48 36 16 20 19 18 20 33 52 66 83 96 86 88 103 98 99 108 123 125 154
106 89 68 58 82 -27 16 8 54 26 3 30 76 105 110 113 152 174 152 149 131 109 119 130 120 98 44 5 7 19 33 60 73 95 124 125 112 112 102 92 89 90 89 91 105 126 122 126 119
91 57 70 67 36 -23 -26 -56 31 52 79 92 126 133 106 99 109 108 129 127 125 144 118 91 74 77 72 50 26 50 81 123 145 152 147 143 114 115 108 99 85 84 74 70 80 88 82 95 115
50 7 63 90 43 -3 6 -38 19 39 78 111 126 111 91 83 70 86 96 121 107 74 52 56 67 61 60 50 62 84 69 66 47 43 47 73 82 84 92 91 92 83 80 99 95 98 99 114 116
2 -5 12 62 26 -6 2 19 -14 48 77 66 91 89 58 61 61 69 93 87 68 52 50 46 60 77 67 86 67 49 59 29 37 60 77 81 80 73 71 88 81 90 90 103 109 123 129 120 138
54 65 96 81 52 8 5 71 24 39 102 121 99 80 50 64 65 87 92 74 72 63 69 53 64 77 93 98 92 80 82 75 77 79 64 51 39 35 50 63 59 58 68 82 85 91 101 117 130
128 94 90 91 90 30 35 44 67 13 29 88 134 87 56 54 61 77 78 84 80 78 62 63 71 85 72 79 92 87 74 75 74 67 62 60 45 29 40 36 42 39 49 51 51 58 68 78 98
104 104 120 89 62 30 42 28 15 34 32 30 104 139 91 55 58 66 84 86 80 82 87 92 94 98 90 80 75 74 84 61 63 67 53 41 39 35 55 66 68 65 63 59 60 58 63 67 94
111 72 48 83 74 20 26 41 35 45 53 74 139 182 95 68 68 87 103 95 95 126 128 114 102 97 86 70 63 75 75 77 65 55 40 51 63 75 84 82 77 71 67 68 65 50 56 70 79
96 139 146 152 63 35 40 37 33 45 61 55 84 146 111 101 92 111 118 124 152 162 154 155 132 111 94 91 89 81 78 76 72 71 84 81 82 96 91 85 76 70 65 53 57 44 59 61 72
244 222 210 141 129 75 54 43 12 35 47 43 47 90 97 88 85 119 147 170 191 197 196 172 152 134 126 104 94 106 111 87 62 68 78 110 115 95 72 66 60 58 54 54 54 54 47 67 66
164 160 190 161 147 124 64 27 -2 7 10 47 112 106 78 72 98 154 179 217 227 233 214 192 168 151 129 128 149 115 79 74 82 85 85 81 65 71 70 69 61 56 48 41 31 28 45 37 44

GFSSGP_con_3kmhel_015.txt.gz
Helicity
-6 -9 -8 33 82 80 68 55 80 100 95 43 62 37 26 16 5 14 -1 23 -7 26 62 73 79 101 77 97 74 36 36 23 3 -6 -7 -12 17 11 21 12 19 10 14 25 10 54 5 6 6
-14 -11 13 29 67 76 56 70 83 99 98 90 48 45 40 26 12 4 -5 32 3 49 60 57 78 89 81 60 68 54 50 29 -1 -16 -36 -37 20 34 14 7 29 20 4 8 6 16 14 4 4
-14 1 12 46 64 56 61 84 92 125 147 42 48 30 33 18 15 5 -5 56 32 52 55 54 53 65 49 67 68 68 48 35 -5 -35 -53 -38 7 35 48 39 34 18 21 27 8 -4 5 3 -14
21 21 22 51 72 75 78 102 74 122 85 24 46 56 38 12 15 6 13 55 46 45 42 40 28 30 35 82 71 68 42 23 -20 -45 -51 -45 7 33 35 33 29 23 12 6 3 2 -0 10 -0
33 28 41 56 58 74 82 83 80 64 77 80 66 65 41 20 22 13 19 25 41 43 27 29 19 -10 52 74 65 52 35 19 -20 -27 -37 -39 -16 22 37 62 33 26 24 7 5 4 4 2 -1
77 43 54 40 56 69 85 66 77 59 51 97 86 71 61 21 15 21 20 9 28 53 36 23 22 -11 67 54 40 33 17 16 9 -17 -22 -5 9 -5 19 82 47 28 17 12 6 11 8 8 4
78 66 35 38 58 75 85 97 82 89 100 72 69 52 60 37 19 30 28 24 40 28 40 27 23 14 48 67 53 33 17 8 8 -4 -28 -22 8 8 11 29 33 27 16 4 11 13 19 16 16
92 89 31 39 53 75 80 97 59 53 87 110 42 59 65 45 34 41 49 34 38 28 35 32 32 26 18 36 64 53 21 8 2 -3 -16 -14 -16 -0 1 33 31 8 9 3 -3 -1 9 17 15
106 117 54 56 45 35 64 88 33 12 48 76 77 48 43 53 24 60 68 63 42 26 20 36 42 36 37 39 39 46 38 18 1 -9 -21 -28 13 21 19 23 16 10 10 6 -1 -1 7 15 25
141 97 38 38 41 26 76 76 47 3 8 77 105 73 56 33 14 15 42 55 64 34 20 43 42 44 50 55 52 40 29 21 15 10 -6 5 23 27 30 31 29 24 23 26 18 15 15 23 52
121 80 72 52 32 27 38 86 32 5 -43 49 72 100 90 33 23 25 43 63 54 42 33 58 59 50 61 67 60 60 52 46 39 22 15 14 20 31 36 39 37 36 32 36 31 35 48 43 54
114 88 56 43 34 29 20 26 66 53 30 49 56 49 24 47 42 41 28 52 49 46 33 53 70 76 78 77 76 67 67 59 54 42 28 34 36 36 37 46 39 44 44 43 42 50 42 38 38
111 92 39 42 41 9 -4 28 50 44 128 63 56 24 -0 -8 15 27 24 39 37 34 37 52 72 86 87 89 84 81 81 71 57 46 46 54 56 57 50 56 56 57 58 60 58 57 55 51 47
52 48 40 43 31 4 -11 2 -41 53 77 22 49 1 6 -24 36 64 62 56 47 39 26 20 53 71 87 82 88 85 83 76 71 60 55 57 64 67 71 66 68 71 75 73 74 74 76 75 69
113 61 53 36 27 -0 -44 -29 11 71 -13 27 50 66 16 54 133 111 88 79 75 70 55 37 36 77 88 71 70 70 72 74 79 85 72 66 72 76 79 92 98 101 100 90 89 83 81 79 79
108 70 35 22 33 28 -4 21 67 24 18 65 110 98 44 112 157 135 120 109 88 71 73 65 56 65 75 68 68 61 60 56 59 65 68 71 77 88 98 106 104 98 92 87 81 67 58 61 73
140 75 68 46 39 61 46 -21 27 37 71 90 114 57 67 120 144 137 126 104 86 80 87 95 81 55 53 49 61 61 60 57 61 62 65 64 65 68 72 72 71 73 68 64 60 59 65 70 74
110 100 88 71 77 78 46 39 95 54 14 47 60 68 96 111 134 137 126 112 111 116 114 89 84 78 51 46 58 55 63 77 76 69 62 60 59 60 63 66 64 66 55 48 50 51 62 68 69
113 74 58 83 92 51 41 -20 90 62 30 62 56 76 100 127 110 111 127 154 155 175 155 148 125 84 33 41 58 93 117 110 132 130 142 134 121 113 106 92 96 88 71 68 67 57 55 61 53
103 79 84 95 62 42 29 -19 46 25 9 34 50 70 90 136 142 166 173 175 176 131 118 133 120 79 49 29 15 31 59 106 111 130 153 148 143 134 113 105 94 96 83 94 87 76 50 47 53
112 112 92 105 98 20 -31 -62 15 25 68 71 83 94 117 137 136 125 161 175 133 138 129 101 88 79 59 14 14 39 67 102 127 136 116 119 107 101 93 82 68 66 59 54 50 55 57 46 52
73 53 52 83 87 34 18 -30 26 50 31 51 108 124 151 141 118 104 121 119 104 83 67 73 82 76 81 79 109 141 116 111 84 80 77 80 87 80 79 69 63 60 54 77 77 90 96 110 126
69 34 51 82 74 21 38 31 45 82 73 57 83 81 96 103 98 97 92 80 69 59 67 59 71 80 84 108 91 74 75 47 49 61 81 84 75 70 74 59 50 51 42 61 77 89 94 83 87
66 122 87 47 60 12 22 47 84 26 11 68 85 54 64 91 96 85 74 69 78 80 82 63 75 78 93 104 94 86 75 71 76 85 78 65 42 19 25 19 18 23 39 57 64 69 72 84 92
154 147 170 134 95 41 51 50 54 37 -3 7 83 55 62 78 93 83 74 72 84 98 75 73 96 110 105 109 102 89 84 91 88 74 66 70 46 24 40 52 65 70 82 82 76 75 75 87 89
178 175 129 109 91 63 46 48 44 25 46 18 52 114 100 82 85 79 76 86 100 96 96 109 117 121 125 116 110 105 106 74 69 73 56 43 41 36 57 81 83 88 92 91 81 65 54 53 43
130 153 130 98 72 73 52 47 30 18 36 55 64 135 104 88 94 88 92 103 118 118 129 145 168 161 139 123 112 112 97 93 69 60 54 50 49 56 98 103 98 90 80 71 54 36 33 41 47
102 147 141 143 76 81 54 50 48 49 41 43 68 85 91 116 114 111 119 137 148 153 168 216 213 185 148 137 116 102 104 92 66 59 76 85 100 111 109 94 80 67 54 49 51 45 47 65 62
159 152 137 125 98 69 62 44 42 112 112 19 30 64 89 96 99 123 148 163 187 203 225 243 230 195 173 156 144 140 121 96 73 83 99 99 111 109 89 77 67 62 60 54 46 45 49 69 66
146 127 112 136 120 107 77 64 -16 -19 -7 -10 31 67 72 90 121 146 174 199 223 251 256 244 230 210 178 158 140 129 116 106 109 94 113 128 101 83 74 69 63 58 48 40 44 58 76 84 95

GFSSGP_con_3kmhel_018.txt.gz
Helicity
11 -1 -14 -12 60 56 43 65 105 94 80 57 69 52 42 15 23 50 12 28 16 28 40 43 37 93 100 95 68 38 22 15 3 -9 -6 -9 -10 -3 7 16 26 21 29 44 52 87 67 53 44
22 -4 -7 14 50 46 44 69 69 99 95 86 49 36 24 37 23 21 1 29 9 34 40 37 73 69 80 70 50 54 49 28 7 -11 -12 -16 -14 11 17 28 25 39 56 47 50 52 79 68 61
14 11 4 28 46 73 82 71 89 105 115 35 44 37 48 50 31 23 22 32 10 35 34 49 67 59 54 63 52 57 54 32 3 -9 -18 -10 -19 10 33 47 45 39 49 50 45 40 43 53 55
40 18 15 30 65 59 76 87 99 106 69 52 70 47 36 42 33 31 21 23 8 29 33 73 34 33 9 43 66 66 42 21 -0 -26 -26 -24 -15 19 45 42 31 39 38 38 48 55 27 26 43
52 44 49 39 55 60 60 66 99 98 105 90 95 80 68 50 35 24 20 19 7 17 19 32 7 -9 -9 39 72 44 27 13 -0 -20 -21 -20 -7 4 25 48 52 41 43 47 44 38 36 33 26
76 78 61 52 58 58 60 49 71 62 53 84 90 95 77 42 27 30 27 25 6 17 17 15 14 -20 -15 59 50 34 18 7 -6 -14 -25 16 27 40 33 60 47 34 36 40 37 35 34 33 28
104 76 69 63 68 72 56 73 76 103 72 58 89 61 79 100 59 30 30 34 25 24 17 18 27 22 26 26 32 29 17 2 -6 -19 -35 -21 -4 16 27 27 25 25 26 35 28 22 22 24 29
119 109 60 44 79 86 43 69 81 65 90 102 47 56 83 96 58 36 35 29 33 28 22 20 21 26 31 35 32 33 29 16 -3 -9 -17 -25 -15 -0 7 24 34 29 25 29 18 9 8 15 20
127 115 61 43 64 74 44 80 66 42 38 71 49 55 76 58 37 19 24 31 33 24 36 27 26 28 25 21 47 43 34 22 10 1 8 -11 -9 4 14 37 32 28 24 19 15 5 -0 8 13
137 112 44 58 49 52 63 72 78 42 34 71 50 39 50 72 57 51 25 23 29 39 46 37 34 37 39 39 30 33 28 24 18 10 2 6 5 9 24 29 40 26 24 20 17 12 12 23 22
139 70 72 43 35 61 54 54 45 44 16 28 85 96 78 92 73 50 36 13 27 44 48 47 42 55 52 53 48 43 40 37 31 15 11 13 16 19 26 30 29 28 42 27 29 28 31 23 28
133 79 77 52 48 41 35 37 35 34 34 56 88 94 91 78 67 56 39 25 36 28 38 47 53 77 67 68 64 54 54 58 51 40 29 30 37 35 28 38 32 37 36 37 43 46 40 37 36
96 63 56 49 40 32 43 32 32 23 114 76 68 61 33 57 59 45 43 30 40 38 38 44 55 59 61 61 51 52 55 62 55 51 46 44 51 53 51 49 54 57 57 62 67 63 62 61 59
73 72 44 46 34 37 29 40 -25 28 80 92 28 32 35 30 49 43 64 70 60 54 44 44 31 41 51 51 46 53 59 48 53 62 70 68 73 87 92 85 79 74 75 81 78 74 71 68 61
62 53 34 46 32 32 17 7 16 54 35 50 48 40 55 58 70 85 112 108 92 68 68 63 51 46 59 59 63 67 75 59 58 76 79 85 90 95 90 86 83 81 79 72 74 71 69 61 61
69 66 62 41 13 33 11 17 31 33 31 69 80 105 106 82 92 118 137 130 97 87 93 79 65 65 79 101 118 109 98 78 80 94 90 87 87 86 81 75 73 84 83 80 73 72 68 68 73
119 55 49 71 6 44 11 13 36 26 60 41 46 93 88 75 97 138 143 125 103 96 100 108 109 89 81 95 109 114 120 115 116 112 104 105 101 90 76 80 85 83 78 78 74 63 65 64 70
104 93 60 39 38 33 14 14 41 51 42 45 47 58 62 65 89 120 130 116 101 113 128 128 109 91 78 82 95 127 132 133 150 156 155 158 147 135 111 104 103 88 79 84 84 80 70 62 61
66 46 43 37 56 84 52 44 41 77 49 29 31 57 62 82 108 122 135 130 144 186 205 157 120 84 55 64 93 108 117 131 146 152 166 164 152 146 139 117 115 104 91 89 80 73 68 62 61
76 50 42 70 60 64 73 31 44 77 45 38 39 59 73 103 131 155 167 174 200 206 178 151 121 99 75 63 85 102 125 156 156 153 162 154 145 133 110 103 90 84 67 68 63 58 51 54 66
93 58 45 75 57 35 47 44 32 36 53 73 78 85 103 114 137 150 171 197 184 176 136 113 93 76 61 49 46 60 84 105 118 119 107 112 108 102 86 73 58 56 48 52 53 62 62 68 75
65 98 72 79 112 68 84 34 39 57 53 42 71 105 150 162 162 162 177 189 165 139 107 94 83 75 70 61 71 97 99 107 100 93 83 74 84 85 80 68 59 49 39 58 60 77 91 111 122
98 59 64 90 106 58 34 38 67 105 64 43 76 105 144 160 147 159 163 152 129 101 89 77 81 90 88 107 115 109 109 84 73 69 80 81 76 78 74 48 24 28 44 67 72 83 84 72 84
64 87 91 95 91 55 46 50 99 114 89 54 70 95 114 115 122 140 138 109 111 94 92 83 86 89 105 125 134 119 98 88 78 82 74 65 55 44 50 32 31 61 93 88 78 78 83 87 89
75 94 163 101 101 86 59 56 54 40 32 24 35 42 60 82 95 102 102 107 110 110 107 99 95 104 115 136 126 105 93 92 93 78 79 75 58 50 61 79 101 114 100 88 79 84 80 83 91
126 118 205 125 104 50 84 76 92 82 64 30 14 56 88 83 70 80 95 111 114 123 120 110 118 125 142 147 132 115 110 94 87 97 81 57 55 76 101 105 103 97 88 89 89 75 74 62 54
229 158 149 147 124 91 89 94 42 35 40 37 39 104 102 89 71 90 110 118 127 139 149 144 146 158 179 164 137 133 122 116 105 98 74 64 90 92 99 98 100 106 104 93 80 73 60 66 75
187 142 164 163 105 121 113 106 100 68 98 50 45 60 88 98 95 104 117 131 146 168 175 158 164 206 210 178 157 136 131 123 111 100 103 106 110 112 114 115 108 102 94 81 69 67 75 84 96
159 183 156 146 102 116 133 86 70 114 95 65 22 47 96 105 105 110 123 144 169 180 176 173 185 217 210 189 164 148 138 124 112 116 124 123 131 126 111 106 102 88 74 65 70 82 86 99 104
79 59 72 93 76 127 140 75 40 82 39 17 10 49 84 102 113 120 148 172 180 186 184 189 207 224 214 200 183 169 128 99 100 110 133 139 133 115 107 92 77 65 65 75 82 86 99 101 106

GFSSGP_con_3kmhel_021.txt.gz
Helicity
37 15 2 -23 26 29 15 28 87 53 85 102 85 75 78 44 58 61 16 37 22 38 74 67 42 69 99 72 60 52 45 32 18 3 -4 9 11 23 13 24 33 40 38 46 48 83 150 120 104
40 23 -1 3 32 37 18 22 34 81 99 83 67 50 34 43 64 54 10 34 16 31 49 48 50 97 80 58 46 42 39 38 19 6 -1 3 19 18 23 32 29 33 38 45 55 68 111 124 117
39 14 24 39 34 44 102 103 66 91 77 46 55 32 66 81 82 60 39 37 19 23 21 77 115 63 43 56 55 40 45 34 18 12 -9 1 28 10 25 46 45 41 39 42 44 60 75 79 82
51 27 27 32 41 53 66 97 83 85 79 43 53 53 40 87 69 69 36 22 14 21 21 99 87 33 36 30 46 57 48 32 22 8 -3 6 26 17 48 38 39 30 30 38 51 68 73 72 63
37 55 51 43 58 48 44 68 31 68 97 85 75 83 73 70 45 46 34 22 24 26 28 51 56 28 9 12 59 50 35 23 21 19 16 20 19 25 36 46 48 39 27 35 48 61 67 63 67
88 76 59 59 34 57 45 44 45 65 76 84 74 105 85 68 80 49 38 32 33 32 27 61 45 16 -1 40 58 34 17 17 12 12 8 44 67 69 60 61 50 34 29 34 38 33 38 44 48
82 81 56 60 67 81 54 54 46 107 83 57 92 63 63 101 76 37 41 39 32 31 27 40 44 34 10 55 42 39 26 17 7 5 -7 9 19 32 38 34 32 36 38 39 44 20 23 14 17
109 76 54 56 69 40 77 44 62 77 104 128 55 60 85 106 70 40 36 33 32 29 23 36 41 59 61 59 47 46 34 27 14 10 3 6 11 21 30 34 33 42 37 25 21 -1 -6 3 17
116 107 67 47 49 73 67 52 79 66 55 67 74 73 92 35 31 32 34 26 30 33 20 39 53 50 46 54 118 89 48 36 31 25 27 25 12 24 42 71 60 43 31 20 8 4 -2 4 13
121 111 52 52 56 73 73 61 60 60 86 68 73 33 50 29 50 63 40 24 29 31 25 52 48 59 57 78 114 67 69 63 59 42 53 44 32 36 50 60 59 44 30 26 9 7 5 18 19
97 88 55 53 60 90 92 80 48 42 48 55 81 136 105 79 74 61 43 32 10 14 38 48 63 64 67 86 85 79 71 62 58 42 44 49 57 50 54 54 56 52 56 49 42 40 55 28 37
91 80 47 55 57 66 49 62 68 41 29 67 72 92 87 58 63 66 63 54 24 30 51 58 47 65 56 82 86 79 84 78 81 82 64 69 74 73 68 67 70 62 64 58 62 59 56 53 50
88 68 57 62 76 41 60 45 29 43 30 58 50 41 63 55 58 74 70 49 39 45 58 47 50 48 63 56 67 72 81 87 84 91 88 76 88 92 99 95 85 79 77 71 66 63 64 62 59
157 59 75 24 58 37 42 34 41 34 42 56 81 49 28 30 69 72 62 79 69 85 81 65 48 37 34 62 71 79 94 97 92 98 104 93 92 100 103 85 74 74 73 66 72 73 75 78 66
123 95 22 70 58 57 40 24 5 25 59 33 42 44 26 60 46 67 98 99 135 136 116 77 67 50 63 88 107 110 115 113 111 104 114 95 81 81 80 78 82 82 84 79 71 72 90 93 93
108 116 94 69 36 41 47 17 59 41 35 27 51 58 70 72 73 79 100 122 137 140 122 100 70 63 80 117 142 145 148 136 123 124 115 104 93 94 85 86 93 114 96 105 107 92 78 80 87
141 121 56 69 61 31 19 15 27 25 63 41 46 39 65 81 83 107 136 159 156 132 109 100 100 109 123 141 166 184 173 154 141 135 165 147 151 137 121 149 147 111 106 102 112 104 92 81 69
184 95 98 12 57 53 37 1 34 65 35 60 43 28 69 64 88 102 125 138 123 115 119 131 135 127 102 96 108 124 158 208 214 202 202 203 180 185 167 154 148 136 122 117 106 96 93 86 83
77 100 68 49 13 51 45 18 51 32 34 44 35 40 72 93 87 94 115 129 143 158 167 159 126 81 64 74 108 127 132 136 154 168 184 176 175 184 176 146 133 123 111 107 101 86 83 72 77
150 74 50 63 70 43 57 42 49 46 43 38 38 53 88 138 96 120 134 158 184 194 198 187 156 108 96 93 111 119 131 152 159 163 167 157 153 149 134 134 120 114 91 90 76 67 53 60 80
130 56 112 99 40 58 78 49 42 33 28 57 62 66 118 118 122 141 170 197 214 240 223 176 138 118 101 85 85 101 112 114 134 135 124 129 131 132 117 101 82 67 49 49 56 70 85 77 74
96 108 140 91 137 74 16 40 39 41 84 75 77 128 194 169 156 179 197 209 219 222 176 138 120 108 95 89 106 115 106 117 111 103 99 87 90 86 77 64 63 59 48 60 54 90 87 90 80
176 119 119 103 90 153 72 56 68 42 48 61 77 101 176 171 193 189 192 208 220 193 155 125 119 114 101 90 82 89 106 96 79 62 60 61 61 71 78 47 40 47 60 86 88 91 89 90 108
120 135 130 140 135 81 69 33 120 42 56 87 84 124 180 180 198 201 187 200 210 160 127 114 115 117 103 101 114 124 120 95 76 79 76 62 61 56 63 35 52 77 94 90 92 96 101 101 99
108 127 289 213 145 105 79 51 56 62 80 79 45 93 125 151 153 153 160 180 163 135 126 120 125 128 110 117 135 145 127 110 106 90 75 76 76 66 61 64 83 103 104 101 102 107 83 94 101
94 234 247 194 145 85 60 60 85 99 76 54 44 52 90 95 90 98 129 143 134 129 132 133 131 128 125 132 158 164 140 121 107 100 92 98 93 77 82 107 118 117 108 101 100 93 100 83 106
153 115 148 268 226 117 29 66 29 73 86 62 51 78 99 86 82 102 128 122 129 135 147 148 146 147 150 163 186 179 162 151 125 117 109 101 98 96 115 125 116 104 97 98 98 103 89 104 99
189 135 161 227 115 136 51 60 84 51 77 49 38 79 97 97 105 121 118 126 140 149 161 160 158 164 179 196 211 191 176 162 137 127 111 98 101 126 133 122 110 101 100 100 103 101 101 100 113
199 152 223 208 225 157 66 98 147 117 77 33 25 67 90 118 126 120 119 137 144 148 156 173 180 188 205 222 223 202 188 158 136 130 103 88 86 122 124 119 108 105 106 99 102 99 91 113 109
155 127 128 130 150 243 265 106 80 91 75 36 37 38 87 111 111 112 135 147 142 148 168 177 194 212 237 244 216 203 175 155 138 102 78 64 104 130 128 121 110 101 91 96 96 98 98 117 114

GFSSGP_con_3kmhel_024.txt.gz
Helicity
48 34 21 17 34 35 30 38 9 66 50 75 93 52 54 37 65 79 34 42 53 91 78 72 86 84 68 47 67 58 39 26 21 12 14 5 25 37 22 38 42 56 49 52 65 66 116 134 122
35 49 36 12 36 49 29 -23 71 60 145 84 66 38 48 52 84 34 62 41 51 75 90 52 55 83 66 63 68 67 41 34 28 19 13 8 23 20 31 42 41 46 44 43 48 56 65 79 103
38 23 40 25 53 49 62 115 214 215 153 52 62 40 71 116 141 73 70 30 63 42 55 80 74 83 55 57 62 67 42 39 31 25 10 -6 25 15 32 52 43 39 45 42 42 49 68 66 81
33 44 37 48 29 8 43 74 70 138 126 46 65 76 83 94 72 70 48 9 49 23 144 122 125 74 50 54 80 67 56 42 30 21 14 13 26 14 67 63 48 38 34 34 39 45 56 55 58
53 56 74 60 40 38 70 83 56 2 57 89 67 69 52 44 51 35 57 24 62 70 98 88 96 70 54 64 78 77 61 42 31 21 31 20 19 50 59 64 53 44 33 30 29 32 32 30 29
110 82 89 61 38 -28 103 51 77 54 54 32 35 84 77 81 87 51 47 52 72 82 83 68 72 53 44 67 90 79 60 48 35 24 29 38 59 67 64 58 56 44 32 30 27 22 15 16 15
115 120 75 60 48 44 58 133 67 60 131 99 92 53 87 95 59 32 39 73 61 74 81 58 48 46 50 62 78 73 64 54 39 34 21 31 27 31 46 53 43 33 27 18 19 7 0 -1 7
123 113 78 71 73 99 68 94 36 73 86 94 68 76 103 64 29 42 46 53 55 60 54 79 62 57 60 65 73 80 82 68 59 49 33 25 22 17 39 47 29 25 28 20 14 5 -5 -16 -11
123 168 118 61 47 49 57 57 48 70 46 96 88 66 20 -20 -54 -1 13 30 36 51 47 53 85 72 75 82 85 94 109 92 76 58 43 54 36 21 65 53 84 56 27 15 3 -10 -17 -10 -2
189 184 134 81 45 61 50 53 57 79 53 102 102 86 49 29 -31 43 42 55 55 57 65 50 66 85 64 68 175 101 95 106 85 55 80 79 40 68 104 87 53 30 19 13 5 -5 -2 12 46
127 145 129 79 74 57 78 141 110 77 65 59 96 102 130 122 126 68 58 34 73 77 90 65 66 83 91 103 121 77 97 72 75 74 92 83 86 80 78 71 76 65 42 63 46 55 69 71 70
84 86 83 92 63 56 101 89 76 66 49 77 93 96 90 130 64 66 60 83 70 96 99 115 57 95 71 115 117 64 111 96 86 92 104 108 94 99 85 76 77 79 76 72 60 69 55 61 64
75 97 69 77 95 101 54 67 41 39 49 45 56 77 54 50 56 59 107 97 73 87 146 137 103 77 103 94 119 62 113 129 98 124 112 106 103 94 103 96 81 71 71 71 68 67 64 68 67
165 62 106 87 77 80 107 40 49 27 33 44 39 74 67 52 61 134 114 107 120 110 162 133 107 92 87 115 98 114 119 134 127 135 103 106 96 103 104 86 70 74 71 67 83 87 84 77 81
132 161 104 75 95 113 45 32 17 23 27 39 45 39 37 94 151 98 151 184 174 238 231 179 167 141 89 109 145 139 183 187 160 121 148 131 97 87 92 81 79 107 120 112 106 99 109 115 103
227 157 162 87 155 86 90 26 34 40 66 62 49 79 77 113 117 129 115 119 129 177 160 181 126 104 119 127 204 202 212 171 187 197 160 161 166 158 126 152 151 132 127 143 151 134 104 93 84
162 217 144 128 142 122 88 15 25 31 3 72 65 50 112 108 87 122 99 142 154 167 181 145 109 94 144 234 358 367 306 303 292 286 271 265 226 201 220 209 188 196 176 160 133 119 109 79 81
221 176 197 105 132 145 91 25 59 49 100 85 66 68 129 143 109 109 101 118 133 150 132 125 145 192 261 294 288 347 357 336 291 267 239 212 200 243 244 216 183 176 163 137 112 102 83 76 73
132 172 106 102 115 87 56 13 43 41 46 56 38 81 110 235 193 91 89 111 146 155 117 106 116 115 129 137 227 242 222 208 218 202 205 204 210 186 195 175 147 126 123 102 98 69 66 59 64
118 139 111 83 78 29 -1 37 34 55 49 33 77 76 124 321 185 97 92 126 157 188 224 256 258 225 223 213 195 167 152 162 165 175 173 160 168 159 125 110 96 88 86 96 86 74 33 35 53
103 102 96 94 13 96 84 66 56 30 33 60 110 68 195 334 231 150 189 200 219 246 243 241 232 216 207 198 175 131 111 117 121 118 117 105 92 93 80 69 65 70 72 59 54 60 70 48 57
107 39 17 -29 46 177 107 35 3 103 20 13 82 111 250 348 299 215 208 230 249 258 254 231 183 134 98 74 61 93 102 111 92 82 58 55 59 66 61 41 38 35 41 65 60 77 76 93 87
90 34 -3 -1 44 128 99 62 37 73 44 57 138 137 264 370 342 289 241 247 261 269 260 234 220 206 174 159 137 120 114 110 101 90 89 70 52 42 40 33 22 27 41 66 82 90 96 89 98
49 -77 31 151 136 139 128 56 24 103 105 141 130 171 335 378 376 347 305 280 274 259 236 202 200 197 189 182 167 152 147 141 130 106 78 65 54 50 55 43 42 55 70 72 75 83 94 90 98
-61 -188 -25 223 294 129 75 89 38 113 235 133 165 260 332 393 407 350 276 251 238 232 202 171 171 177 165 165 165 161 157 158 141 115 94 82 60 48 51 54 59 70 82 90 92 92 88 89 106
-116 -224 222 295 218 255 172 98 79 117 152 147 172 260 341 356 333 228 209 218 218 197 173 167 168 168 161 160 164 171 174 160 140 126 100 82 69 57 71 74 86 95 95 93 96 93 97 98 111
-76 -65 120 200 116 259 175 127 142 126 151 117 150 227 239 246 222 158 171 194 200 190 171 170 174 175 170 167 172 187 193 189 158 142 115 90 78 73 81 85 96 94 95 98 96 98 100 114 123
6 35 271 284 143 144 98 79 67 93 89 105 148 192 200 201 165 148 179 197 192 188 181 175 173 180 186 196 199 208 202 187 161 138 116 96 80 78 78 94 97 95 98 100 108 114 118 130 141
94 36 284 259 289 176 186 185 84 78 74 51 113 177 185 185 167 200 200 195 217 209 192 209 201 201 212 220 228 228 212 183 155 139 115 96 76 77 86 94 96 97 100 105 119 126 127 132 139
151 104 227 282 222 206 174 173 126 97 81 53 43 165 168 184 188 218 224 250 231 197 205 189 190 221 229 233 236 232 209 186 166 143 111 90 86 87 96 99 100 102 110 120 131 135 131 154 160

GFSSGP_con_3kmhel_027.txt.gz
Helicity
31 32 29 31 49 48 32 -7 44 98 102 56 81 69 33 57 45 39 -13 53 102 87 84 72 90 66 65 97 97 81 61 43 38 32 36 27 35 39 30 38 48 41 43 41 47 64 100 113 100
33 40 36 31 55 58 63 76 89 152 125 99 59 51 67 79 56 44 50 60 89 62 63 61 60 46 64 94 115 101 71 50 45 37 36 17 20 41 30 42 39 40 38 35 35 47 58 81 73
41 41 35 48 53 45 72 54 61 104 175 119 104 87 94 104 55 54 8 95 98 54 61 45 42 28 48 86 115 104 87 67 52 43 20 -6 12 45 29 49 42 40 35 30 33 39 51 54 57
48 84 84 66 37 39 121 54 -6 67 105 149 82 101 56 37 50 26 7 68 100 38 29 52 48 49 49 69 107 112 87 64 48 41 25 1 3 20 73 57 39 32 29 27 20 19 26 26 28
108 94 100 79 34 31 76 29 8 9 48 93 63 90 81 63 24 22 21 52 130 95 91 78 80 64 60 81 86 95 76 55 38 45 36 7 15 47 65 69 45 33 22 13 6 -3 2 2 3
163 128 133 94 32 6 68 42 68 45 60 119 90 43 63 33 55 28 37 78 118 110 85 78 75 68 85 79 84 89 73 59 41 48 57 41 46 36 45 48 43 28 14 4 -10 -11 -18 -19 -20
147 163 116 87 44 24 97 34 92 58 68 132 104 81 41 60 2 -12 25 108 101 98 77 72 68 68 73 76 83 81 75 73 54 46 45 45 39 32 32 39 25 16 -1 -7 -12 -20 -20 -21 -21
142 155 110 85 52 -14 50 55 42 60 50 64 95 114 60 30 -24 18 57 69 92 95 89 59 75 69 62 58 77 82 85 83 71 56 53 57 45 21 20 37 17 -2 -2 -6 -15 -20 -26 -27 -21
155 217 132 118 73 -27 63 98 30 54 52 61 91 85 35 -11 -31 6 15 41 70 77 96 75 67 61 52 66 63 77 86 89 86 73 53 48 45 18 22 32 22 24 17 -3 -15 -19 -22 -17 -7
211 247 159 152 76 47 121 106 52 88 65 43 109 138 47 33 30 4 19 37 67 70 86 118 94 62 43 57 79 74 81 68 69 60 38 54 43 39 44 59 67 59 30 14 7 -5 1 18 53
177 172 185 102 34 -1 56 91 92 107 73 65 77 158 31 60 80 68 58 76 70 85 105 113 135 76 70 83 112 76 61 60 50 44 36 31 34 26 52 60 50 50 40 50 46 45 60 66 80
139 142 107 54 48 7 70 91 107 86 55 78 66 84 116 128 108 91 62 80 66 107 100 101 104 115 113 157 124 87 86 57 53 31 30 51 54 65 62 55 48 55 56 52 54 63 61 61 64
118 96 121 68 40 -12 59 134 114 61 57 95 53 27 62 97 85 82 84 87 104 75 88 115 116 123 122 170 114 103 93 82 84 90 111 127 112 101 93 85 75 65 71 73 64 65 67 64 59
201 133 67 38 53 68 75 126 157 69 60 63 53 48 40 65 67 115 163 164 142 135 146 140 141 138 143 157 129 104 130 145 150 131 124 128 116 101 99 92 96 100 108 110 103 107 112 120 119
146 140 130 81 59 45 85 114 163 70 65 37 42 47 43 30 135 171 187 196 184 216 242 256 240 191 165 133 157 138 171 173 184 165 163 137 109 112 111 135 155 145 151 173 177 176 128 96 80
209 172 131 116 117 76 85 -8 104 50 60 37 74 135 108 127 153 156 161 158 159 182 207 231 229 226 206 192 178 204 281 336 332 318 289 241 196 180 200 185 187 187 184 162 138 115 93 86 79
223 238 186 113 144 137 143 76 68 51 66 17 28 119 100 166 194 152 126 136 114 148 164 149 144 159 231 325 452 462 477 407 360 291 264 268 259 232 194 171 170 171 154 138 113 112 92 75 80
189 159 138 113 61 139 121 92 74 59 58 46 49 79 96 180 189 146 115 126 131 124 128 139 148 197 363 469 549 550 464 382 315 273 264 250 212 201 179 167 158 144 128 122 104 99 86 71 60
143 128 129 79 68 80 89 87 38 38 60 69 83 110 105 224 216 170 135 133 138 119 110 130 172 226 362 423 434 433 339 322 292 238 225 217 188 184 155 123 116 112 99 85 86 58 55 49 66
99 89 61 65 65 71 79 102 50 59 71 43 51 48 170 319 249 190 155 185 193 145 136 164 218 276 294 284 260 243 236 229 211 181 180 159 154 131 112 92 73 67 62 80 76 55 35 28 44
110 111 60 74 93 44 32 62 79 104 50 80 86 94 164 323 313 245 225 236 229 221 217 219 228 268 254 218 220 216 220 188 163 143 131 119 114 100 76 60 47 53 50 47 43 55 60 37 41
129 91 82 63 93 51 88 65 55 69 63 104 90 90 216 348 362 366 312 297 251 239 236 248 266 261 211 170 162 125 99 107 97 101 92 98 90 79 67 57 46 43 29 51 50 68 63 66 71
117 99 91 72 66 37 51 90 -5 86 74 60 80 117 256 354 415 419 359 328 301 286 300 299 290 246 185 159 139 136 132 114 119 130 123 98 88 79 55 40 35 40 40 48 67 78 90 76 75
65 112 106 91 81 78 31 93 19 89 46 39 106 193 292 423 435 431 397 396 377 331 335 321 316 273 238 204 165 150 146 150 171 155 137 98 63 47 47 48 53 54 59 66 71 73 82 79 80
103 93 195 133 138 41 -12 12 47 109 102 78 200 258 396 416 456 464 432 411 369 316 309 297 296 277 253 241 204 180 178 185 171 152 119 97 68 47 44 43 53 54 66 79 79 80 84 82 91
151 126 232 211 67 -231 -19 68 153 -10 143 193 271 330 433 461 464 391 340 364 320 282 283 285 270 252 235 227 215 197 194 182 166 150 124 100 81 59 52 60 69 75 84 88 90 83 86 92 99
71 55 15 58 42 113 159 104 117 175 189 261 291 346 367 437 389 327 285 276 263 249 249 245 238 220 209 206 213 210 197 183 166 158 132 107 90 71 71 74 76 87 96 96 92 87 89 98 106
-51 -72 -116 -220 89 92 229 239 111 181 208 239 268 305 339 364 314 245 225 238 231 217 237 235 209 198 194 208 208 200 187 182 178 163 141 119 96 82 81 81 91 93 91 89 91 95 100 108 121
-101 -172 -176 -179 -71 165 134 130 96 124 155 179 194 247 324 287 264 223 195 197 217 232 239 221 211 221 225 220 211 209 209 199 183 154 128 111 96 87 83 86 89 87 84 85 96 104 102 125 139
-24 -60 -23 -46 47 85 244 261 134 70 63 137 175 210 233 257 244 221 208 235 240 243 236 222 232 238 219 211 222 226 217 205 182 149 123 103 88 84 90 90 84 83 88 97 108 121 127 140 147

GFSSGP_con_3kmhel_030.txt.gz
Helicity
59 53 16 32 56 52 46 63 28 100 118 83 61 64 40 45 29 46 9 28 112 122 81 67 79 73 86 106 99 90 75 59 56 58 67 70 68 58 38 29 32 29 38 30 24 40 79 90 67
47 46 45 35 66 72 85 67 32 58 63 77 40 69 108 80 92 53 47 4 80 86 53 36 52 49 73 75 103 97 80 63 55 53 52 46 41 48 31 15 8 12 18 19 11 21 24 50 64
64 36 54 59 62 57 111 114 182 67 71 90 94 59 89 97 69 31 38 42 66 55 47 27 38 36 48 69 81 81 77 62 51 47 29 -12 11 53 24 18 19 22 21 16 13 15 20 22 22
78 91 99 97 52 50 69 161 195 63 63 81 88 135 123 65 42 14 55 78 68 46 39 24 26 27 30 73 87 79 74 53 40 24 -1 -41 -16 36 62 45 32 28 20 13 11 7 7 4 4
110 125 129 100 45 35 63 126 103 91 14 63 85 70 92 74 46 37 69 62 82 45 23 26 28 37 59 83 81 70 63 45 29 15 2 -32 -35 -21 51 54 46 26 14 8 5 -5 -9 -8 -12
178 167 161 118 52 37 83 108 82 43 24 58 94 90 90 32 26 -4 47 71 76 77 43 37 39 55 72 93 78 75 61 52 37 36 27 16 14 5 36 37 34 17 6 -1 -8 -12 -17 -14 -15
179 217 164 117 74 47 59 115 144 59 42 61 102 125 101 57 12 1 55 109 103 99 98 78 66 59 75 86 80 73 62 58 53 54 48 39 33 33 22 18 11 2 -5 -10 -10 -15 -17 -15 -17
172 204 175 137 98 18 60 112 98 58 50 63 72 107 103 34 -2 -7 57 91 97 92 90 87 85 81 77 78 77 71 66 64 65 62 64 56 38 22 13 22 3 -11 -13 -9 -10 -16 -19 -22 -19
211 246 189 149 127 59 84 164 117 55 65 57 89 85 78 45 43 45 54 81 96 80 76 83 87 81 83 80 61 61 59 65 65 62 51 49 36 12 1 15 17 5 1 1 -9 -11 -16 -12 -6
234 261 225 171 124 59 45 93 132 101 105 70 80 145 126 91 55 37 52 41 85 79 68 95 83 71 73 67 64 57 51 54 48 47 29 29 37 26 31 40 37 12 24 12 4 6 12 26 58
219 178 207 144 60 69 28 68 88 133 84 68 61 124 172 154 83 74 54 67 54 112 116 101 88 69 83 68 86 60 48 39 34 29 21 32 34 14 14 23 23 37 26 39 40 43 55 57 68
146 161 134 107 98 84 53 9 165 140 97 80 61 67 142 140 135 99 81 65 51 116 131 131 97 103 100 108 107 69 55 31 37 37 29 45 35 32 27 34 41 41 43 39 51 56 48 55 54
117 106 127 93 29 44 42 24 53 61 94 97 62 65 41 55 96 93 83 70 81 87 89 156 130 107 123 135 104 98 64 54 49 54 34 48 57 58 76 79 77 57 53 54 67 80 91 99 98
200 188 105 102 64 51 66 18 51 19 68 82 66 38 48 38 50 81 108 135 145 106 87 117 162 131 160 143 124 100 85 81 68 63 71 66 85 98 102 113 119 129 122 136 130 119 122 122 94
84 88 99 118 92 63 91 8 -100 56 73 69 28 39 53 45 43 17 75 176 179 194 149 139 149 135 167 148 129 122 93 158 180 223 248 178 130 129 144 153 176 162 135 129 128 118 99 99 89
163 100 82 123 129 96 108 -126 95 87 108 81 36 25 42 73 64 109 133 165 183 200 205 212 234 171 145 167 185 239 282 344 364 345 294 240 193 173 156 150 150 130 120 107 95 86 94 100 93
155 143 165 127 120 183 162 -27 54 65 87 78 53 34 47 88 112 140 120 136 154 183 208 243 251 248 285 356 422 419 419 432 380 325 261 213 203 166 148 138 130 109 105 111 97 103 95 91 97
192 185 134 137 170 146 89 57 64 86 83 58 41 22 55 79 132 157 148 147 149 157 194 216 235 289 368 471 533 538 498 434 339 262 229 235 191 172 147 142 127 110 113 115 103 112 110 95 69
156 154 122 144 172 155 135 40 25 26 12 60 43 64 69 80 161 158 156 152 164 164 166 167 235 319 420 486 526 514 462 319 293 263 227 217 189 169 146 131 122 99 90 86 93 74 84 78 73
139 117 77 89 69 120 117 70 54 33 26 57 62 40 102 156 189 174 182 170 158 150 170 206 253 271 334 412 420 397 387 321 259 243 254 214 184 160 136 110 90 86 75 88 85 78 62 53 54
135 130 110 91 57 27 95 56 39 14 46 55 34 35 104 182 205 220 238 201 192 176 175 191 198 232 286 331 381 369 331 278 269 250 224 185 159 134 109 91 71 63 61 72 68 66 67 56 48
161 113 93 87 104 120 191 75 78 44 46 76 37 51 88 174 246 297 306 265 238 216 214 211 219 235 243 234 237 232 226 218 161 156 144 162 142 120 97 74 62 63 55 71 61 70 67 69 72
112 92 110 109 88 101 111 152 -28 27 69 60 62 103 116 224 343 340 327 306 274 268 289 271 276 246 207 201 207 206 202 172 155 151 160 151 130 111 92 74 63 64 65 70 85 91 100 80 71
133 118 132 145 139 161 76 154 -31 51 76 30 67 127 169 256 351 450 449 416 373 335 357 304 292 258 225 209 191 190 181 162 161 136 141 126 115 104 88 73 68 72 86 91 92 91 94 83 76
91 141 195 195 238 186 32 110 27 80 22 41 76 143 230 360 467 482 454 411 386 363 392 335 320 285 248 234 216 187 165 157 153 132 127 133 111 87 80 75 86 90 99 107 104 97 92 82 88
103 115 258 257 236 94 64 133 8 -58 -48 91 11 39 360 535 516 468 449 437 414 394 417 362 345 307 273 253 238 209 191 180 171 160 154 140 110 90 80 87 102 117 122 115 108 92 88 88 96
133 117 61 145 167 154 90 51 1 48 -4 17 93 197 349 433 490 463 434 405 396 388 371 347 337 297 274 254 243 227 209 206 190 185 162 139 123 105 113 115 125 127 122 118 105 93 92 96 98
21 85 127 123 153 172 97 76 32 62 94 88 173 231 312 370 458 436 377 371 356 344 331 310 280 259 242 249 245 231 220 204 190 179 162 142 125 121 130 131 134 134 120 103 99 100 103 105 116
161 -34 103 129 136 108 83 -17 -52 44 106 127 153 204 289 347 390 351 322 316 318 307 279 282 284 279 260 256 252 240 212 203 191 177 151 136 128 134 137 135 136 122 107 100 103 107 102 119 108
185 -12 -34 -185 -204 -146 7 -40 32 7 137 176 177 191 255 334 319 288 269 270 260 243 250 250 263 257 231 241 247 226 212 199 187 174 147 128 139 139 131 132 123 113 106 103 109 113 107 105 134

GFSSGP_con_3kmhel_033.txt.gz
Helicity
56 60 24 44 64 71 71 66 102 135 88 64 78 65 60 48 63 76 13 -13 40 88 53 38 61 79 72 79 62 64 65 57 53 51 52 71 70 47 27 25 19 19 26 21 14 34 58 81 65
57 40 54 45 80 86 86 82 143 159 77 70 63 60 68 52 60 62 39 5 61 76 52 28 46 53 65 77 62 60 64 61 52 46 48 36 33 24 10 0 2 11 14 6 4 8 12 35 50
60 48 69 84 79 73 84 118 187 197 117 54 66 85 85 58 86 54 12 44 48 56 40 23 40 36 42 78 62 55 51 50 46 36 17 -9 -19 31 11 9 11 12 12 8 7 8 8 8 18
97 91 120 134 68 61 62 106 183 236 133 40 38 86 78 74 78 40 56 60 49 45 35 22 32 31 31 60 60 52 45 43 38 21 -7 -49 -57 3 42 23 27 23 17 13 14 16 16 15 13
123 133 149 121 61 47 70 98 110 205 167 106 67 66 81 89 61 53 70 50 57 32 28 25 31 31 25 69 62 54 47 38 37 15 -12 -42 -52 -11 27 26 32 28 16 8 9 3 4 3 -1
187 177 191 126 59 53 73 92 114 123 134 83 75 87 64 55 46 36 51 36 46 58 31 27 32 33 31 76 67 58 50 33 29 27 1 -24 -30 -29 46 33 22 18 11 8 4 1 -3 -7 -17
182 217 167 122 75 57 43 68 116 114 114 107 34 89 83 78 22 69 40 50 64 62 59 45 42 49 67 79 73 63 46 37 36 43 35 20 7 2 36 24 11 2 -5 -10 -9 -12 -14 -15 -18
184 195 143 114 92 34 42 99 103 107 105 68 60 81 108 92 43 74 76 76 77 76 65 65 68 84 93 88 79 63 47 51 44 41 46 36 19 22 13 13 7 -7 -9 -13 -12 -14 -13 -15 -16
207 235 154 152 149 109 43 136 150 149 162 112 89 75 67 91 125 101 97 83 80 66 68 76 83 98 109 103 75 61 49 46 47 36 37 32 18 9 -1 1 10 1 -2 -3 0 -2 -2 8 15
234 247 192 169 151 72 69 81 131 147 158 126 93 74 91 107 116 94 87 75 63 53 61 73 81 98 111 87 79 73 57 48 48 28 23 25 14 17 18 11 9 11 9 14 11 10 18 30 47
237 148 178 151 95 65 31 28 27 119 114 96 73 62 81 125 136 106 77 103 85 83 95 87 80 92 116 94 92 79 65 56 38 18 22 19 28 27 21 17 15 26 28 36 43 43 45 43 53
197 159 132 86 87 73 58 5 46 111 108 153 143 98 94 94 107 120 114 95 117 128 120 114 110 108 109 102 92 74 72 59 35 18 31 45 43 34 41 43 47 45 41 36 42 50 49 56 75
154 109 96 70 57 38 35 34 42 50 99 110 132 129 64 47 71 93 93 86 77 84 140 156 152 128 121 117 95 88 70 62 47 47 56 67 62 57 64 66 70 61 49 56 74 85 94 97 93
144 135 83 81 68 39 30 11 35 16 39 91 104 124 95 46 27 54 59 57 87 81 84 194 189 153 155 113 101 74 76 57 62 68 70 75 90 89 75 105 114 113 103 103 103 96 91 85 68
95 86 65 56 71 46 75 -30 -121 10 5 39 70 97 94 67 39 30 40 30 55 154 122 174 206 192 166 116 89 87 86 113 143 139 144 131 109 100 96 99 114 111 115 110 104 91 78 81 73
134 104 99 59 104 99 81 -102 47 72 58 43 57 82 80 62 40 47 59 53 68 104 101 137 195 188 169 147 163 166 207 260 293 265 238 202 170 117 123 126 125 112 106 88 79 79 72 73 68
163 145 125 148 105 135 124 12 -13 47 117 90 78 68 68 29 40 39 69 71 90 117 143 174 215 221 255 277 309 333 341 374 372 313 292 259 198 167 149 121 120 107 106 103 89 96 87 77 79
183 151 113 100 108 143 102 44 38 41 86 110 53 63 51 40 42 91 104 86 106 122 169 208 263 340 384 430 456 473 461 458 384 324 278 225 179 178 156 138 130 111 100 105 96 103 99 83 57
151 144 137 149 147 114 87 44 18 17 13 64 32 52 30 22 27 47 110 125 133 141 177 254 302 326 415 449 499 517 441 421 382 307 240 203 188 188 163 138 124 104 96 85 88 77 102 86 73
178 146 135 103 80 115 87 39 35 54 17 43 63 51 24 51 28 87 134 160 139 140 156 230 289 341 383 450 491 502 431 418 371 275 245 220 211 181 157 122 108 102 82 94 92 91 73 76 66
173 159 151 124 98 80 70 16 54 57 61 51 60 71 47 43 84 150 171 152 160 161 170 223 264 306 358 438 509 559 482 420 338 282 275 242 201 171 141 124 99 87 70 70 70 77 80 69 59
132 118 95 117 143 171 128 -24 4 81 108 88 82 86 59 105 116 157 232 207 177 161 187 225 237 247 278 315 376 349 329 314 254 241 224 216 186 159 136 116 96 77 64 84 75 81 70 67 71
179 65 95 92 142 139 142 177 -150 -52 92 58 87 117 97 79 118 166 213 214 206 207 221 243 231 227 225 256 280 308 333 312 269 235 228 200 176 154 133 107 93 90 80 80 97 100 108 93 91
195 120 97 90 127 215 170 200 -126 12 62 43 71 100 86 107 129 195 325 335 302 281 279 278 254 256 237 240 245 267 291 249 237 196 189 161 148 138 128 121 109 105 103 102 104 110 120 112 105
169 183 212 196 279 293 50 132 70 58 71 50 79 81 82 153 244 308 357 354 325 274 303 305 284 275 251 250 248 243 232 197 179 156 146 138 128 129 140 125 125 112 111 119 123 125 123 109 100
249 209 259 250 256 188 145 130 52 -43 -70 175 58 64 45 143 228 294 378 386 353 323 339 343 330 326 291 276 268 250 233 198 179 159 152 148 146 139 136 137 133 138 138 133 131 120 109 102 100
257 222 129 173 153 143 168 128 34 28 38 -2 95 68 133 166 213 284 433 432 389 374 354 359 388 358 321 297 283 258 228 204 183 179 172 157 149 140 144 144 147 145 140 138 132 120 112 104 101
196 168 168 177 135 -63 87 60 -5 -46 60 54 -20 29 93 189 275 369 485 480 429 399 394 377 369 326 313 302 273 251 231 214 198 187 178 170 162 156 157 157 161 155 144 139 132 118 107 105 108
255 132 182 160 159 124 35 -17 -48 -36 8 27 67 131 171 194 325 454 495 429 412 405 375 381 374 337 317 291 276 271 242 218 208 202 181 168 164 165 167 166 167 158 149 138 126 113 97 112 108
273 141 156 106 169 137 -10 -180 -13 -37 41 34 115 125 161 224 291 377 367 357 355 367 358 358 342 314 285 280 273 254 231 224 220 197 177 160 170 163 163 170 170 158 143 124 118 112 106 105 111

GFSSGP_con_3kmhel_036.txt.gz
Helicity
63 57 20 45 72 80 73 64 84 154 121 75 64 61 63 65 77 79 26 -32 9 48 9 4 27 63 64 44 38 27 25 27 21 27 37 36 38 16 -6 5 13 14 14 14 11 41 81 87 77
59 50 58 57 93 98 75 75 101 142 146 149 55 59 62 82 60 62 38 -9 20 64 25 12 48 65 60 44 39 26 24 25 20 19 30 26 11 5 3 -3 -1 8 9 4 5 2 25 41 50
54 57 73 102 98 86 70 71 111 187 168 108 112 74 67 54 64 54 36 46 42 30 32 34 48 47 50 56 48 36 36 34 25 24 11 -9 4 19 15 11 14 18 20 15 14 15 16 20 22
88 91 129 137 54 71 66 93 126 199 144 88 91 102 78 48 66 51 48 58 55 22 26 38 41 29 44 61 49 39 34 32 27 25 0 -25 -34 11 25 3 17 22 19 16 13 17 19 20 23
127 137 170 143 63 53 59 80 95 138 190 136 102 93 70 69 61 68 62 48 51 31 25 34 39 35 45 56 49 43 33 29 26 14 -4 -41 -59 -10 30 20 19 18 16 13 10 8 9 5 0
177 176 232 162 97 44 55 50 88 90 121 147 150 114 82 67 70 37 52 40 38 51 39 34 32 38 37 68 50 41 33 28 26 11 1 -33 -63 -35 10 40 23 13 8 6 7 11 8 7 2
176 222 205 153 65 60 36 23 97 102 120 123 87 134 77 76 64 33 36 48 36 40 49 39 40 38 33 82 64 46 32 28 27 14 7 -12 -29 -24 40 31 15 5 1 -2 1 5 3 -3 1
165 210 169 108 63 26 26 50 86 88 121 112 85 99 118 73 90 87 78 75 58 48 43 44 53 66 73 86 81 58 41 35 29 18 20 10 -3 13 23 21 6 -5 -8 -6 -2 6 9 5 10
160 203 95 86 107 98 53 68 100 124 142 150 116 91 69 71 115 135 103 86 74 44 36 53 64 82 97 103 91 71 46 38 25 21 28 17 15 10 11 5 6 3 2 5 11 20 18 16 26
175 167 97 70 69 53 58 73 104 168 189 175 156 101 81 66 85 93 69 60 57 54 54 58 50 62 106 102 100 84 69 56 43 39 29 28 20 19 10 9 -2 1 13 17 26 27 31 39 42
194 167 139 130 125 112 50 47 21 72 97 151 161 178 130 80 76 67 63 58 60 83 83 73 63 68 89 89 103 96 86 70 53 44 33 34 35 31 38 34 24 27 36 37 37 39 47 46 50
189 172 119 70 84 71 50 46 47 61 56 91 148 200 182 120 63 56 58 73 91 107 103 105 103 97 94 117 92 89 90 72 60 53 41 47 50 52 53 51 47 47 44 39 44 58 72 91 83
162 155 142 117 105 76 59 29 20 20 70 92 115 143 192 167 92 51 50 63 56 56 126 140 162 150 125 119 94 91 77 72 69 67 59 67 74 77 66 64 72 71 62 69 84 87 91 93 89
167 147 137 115 72 72 62 33 78 -13 -15 66 118 135 143 142 103 92 68 56 56 44 49 141 175 194 197 136 103 80 78 80 86 84 86 84 74 77 95 107 108 112 106 102 98 94 88 83 72
100 105 104 102 103 88 61 16 64 60 61 70 29 118 124 127 108 85 61 52 41 32 42 129 179 225 222 166 116 113 104 105 117 96 91 82 90 123 115 88 107 102 101 99 97 94 89 87 85
143 126 133 122 96 116 112 -13 46 87 49 80 112 117 133 116 110 84 57 49 44 37 50 89 147 185 213 188 187 177 152 158 186 192 206 187 180 146 121 106 113 101 100 84 76 76 75 72 62
157 171 149 143 121 122 119 111 8 71 72 101 122 108 108 105 113 79 64 69 52 57 79 83 133 183 237 275 268 280 263 269 279 288 287 254 223 168 115 135 116 109 100 92 69 67 56 38 56
147 166 138 127 98 143 121 96 68 53 74 94 108 113 128 95 64 90 75 68 86 110 103 112 155 221 306 381 431 425 384 355 356 352 302 253 228 177 159 165 144 117 97 97 75 87 83 58 41
190 167 151 174 143 114 108 57 43 14 27 37 38 66 97 119 80 76 61 79 123 128 128 137 172 253 388 450 459 417 415 409 429 385 318 300 200 178 176 167 138 106 88 71 81 50 73 63 56
181 145 127 105 80 103 65 7 46 32 22 28 35 51 47 75 78 79 69 96 123 119 130 155 186 270 354 412 449 463 481 453 426 386 337 241 190 182 189 152 125 102 79 84 73 67 35 30 26
179 153 130 107 119 125 77 -86 -13 43 65 90 79 95 68 82 59 44 82 85 110 119 142 171 204 274 354 445 531 601 558 500 447 377 284 232 221 208 174 144 114 99 69 55 49 43 52 50 43
115 135 93 105 134 103 77 -56 -56 54 87 77 96 119 130 110 129 63 91 138 115 133 147 178 224 284 317 371 434 474 470 383 319 296 236 270 226 200 164 138 116 100 74 70 52 55 41 31 47
207 103 94 102 119 121 148 220 -120 -113 7 54 102 92 113 141 144 117 110 139 182 175 167 183 230 261 287 312 363 445 470 367 348 297 287 268 235 193 155 130 118 105 85 80 84 84 80 58 59
193 140 167 146 160 152 114 142 -99 -24 -78 -43 119 101 89 99 149 144 160 235 259 223 208 197 222 237 264 281 313 331 375 321 293 257 258 233 201 169 148 135 120 109 103 105 102 97 98 89 93
163 191 174 142 209 247 42 39 100 -7 59 0 -9 72 79 85 150 204 214 236 264 221 209 207 220 249 246 258 265 260 286 272 265 231 199 183 165 147 140 128 126 117 124 125 116 108 101 100 105
200 277 341 245 220 158 152 166 112 2 -82 34 64 189 89 93 127 177 213 237 256 241 233 239 250 285 267 254 269 284 289 270 243 204 196 183 160 138 120 130 140 146 138 133 125 107 106 107 99
208 298 241 280 162 195 220 187 88 -17 -10 48 -28 10 78 76 136 150 193 249 295 296 299 291 322 324 310 287 300 317 301 271 242 235 213 185 151 133 138 149 159 154 147 141 125 115 106 103 101
181 251 303 421 382 325 252 191 103 46 96 100 146 41 96 76 112 178 199 279 343 346 387 359 325 330 340 333 316 316 299 271 245 230 205 179 158 146 152 158 156 145 144 137 124 111 107 117 114
249 306 338 385 388 333 163 117 12 -20 -16 -8 41 87 74 155 155 220 262 331 408 405 366 387 373 389 390 354 336 338 313 279 250 223 185 165 155 149 151 150 150 149 141 130 124 114 105 118 113
261 294 204 251 471 346 220 12 97 -62 -76 -66 41 89 87 147 229 291 335 386 377 361 355 372 375 398 381 343 335 325 296 258 238 211 181 158 156 149 148 152 157 143 131 126 125 116 110 110 117

GFSSGP_con_3kmhel_039.txt.gz
Helicity
64 55 26 45 71 82 77 59 56 86 113 76 79 68 73 75 82 93 43 -3 6 38 16 9 20 48 52 44 34 27 19 9 7 14 20 28 42 17 -6 -6 5 7 13 24 31 79 114 112 84
65 47 56 62 101 97 72 58 57 83 132 127 78 70 83 83 44 34 57 -6 2 38 21 6 32 57 47 34 28 21 15 10 4 1 7 3 -0 -4 3 8 12 19 21 18 9 29 45 59 62
47 64 76 102 98 76 67 54 70 121 150 96 107 66 69 79 43 56 67 34 33 43 11 9 45 50 43 38 31 20 16 15 16 20 4 5 26 19 10 18 23 27 29 21 15 11 17 20 33
94 88 117 125 39 51 79 85 92 143 140 115 112 132 64 40 69 47 46 41 59 61 21 27 41 38 43 42 34 28 17 11 16 16 -7 -15 -13 10 24 18 23 25 29 30 24 28 24 28 32
147 144 180 132 43 54 64 69 57 105 146 164 149 155 106 49 51 49 62 54 60 38 35 19 27 30 51 47 43 34 22 14 11 11 1 -40 -20 -16 30 29 25 22 25 33 27 25 19 20 22
201 188 213 122 50 65 52 38 47 62 85 146 142 165 141 39 37 45 38 38 36 40 41 19 24 37 55 52 49 38 25 17 13 6 -3 -36 -43 -17 17 47 26 18 23 29 27 27 20 18 17
193 235 202 132 45 73 42 36 92 75 75 99 102 144 113 84 46 51 59 58 52 44 44 26 22 29 46 55 56 46 33 21 15 8 5 -8 -19 -25 9 36 19 13 14 12 11 9 9 3 8
175 207 188 117 58 39 50 47 65 77 93 95 88 123 144 89 53 64 80 79 66 44 32 28 30 32 32 46 68 61 52 39 27 17 23 37 18 27 33 31 13 7 9 10 8 8 6 12 20
168 224 145 112 102 60 69 61 73 98 119 140 129 120 104 79 77 89 84 71 64 49 33 34 36 37 45 53 56 64 60 47 33 29 41 42 26 27 20 22 16 19 22 21 15 20 25 33 44
193 170 77 67 58 25 55 72 102 150 185 183 191 147 108 70 69 84 60 39 38 33 40 42 37 41 54 65 63 57 58 46 38 41 42 36 29 33 24 25 27 30 23 24 28 31 43 45 49
175 102 75 51 77 88 70 69 55 114 144 129 193 209 185 144 94 80 52 42 32 57 44 41 46 53 58 64 85 76 66 63 51 47 48 44 49 59 47 38 38 40 40 37 38 42 51 61 72
168 90 43 18 60 63 56 62 81 86 73 108 134 192 180 240 179 90 59 49 53 54 45 60 60 66 66 67 82 73 70 68 64 48 52 59 65 67 62 65 62 62 58 55 63 81 91 91 88
121 91 79 53 65 74 87 54 56 35 24 56 107 160 170 179 185 141 96 72 62 46 51 65 82 89 88 94 87 78 63 70 73 66 61 73 73 74 77 84 88 95 84 85 91 91 91 88 79
112 92 70 55 20 41 64 56 91 31 11 34 79 107 133 134 155 160 113 73 70 56 53 49 69 112 117 116 97 82 73 80 94 83 72 64 60 69 94 110 118 113 99 99 89 84 82 71 71
102 67 45 38 64 87 72 24 68 58 69 68 89 105 135 116 107 124 107 66 64 69 61 53 47 90 136 132 115 106 95 102 102 97 74 57 71 85 111 122 103 98 87 95 90 85 80 78 79
87 80 67 100 104 91 121 62 114 68 46 64 78 111 120 98 98 112 119 86 71 68 51 44 70 104 123 157 156 149 136 124 130 135 126 127 135 150 160 138 114 114 96 90 86 73 68 68 65
112 105 81 91 119 122 83 73 60 104 132 109 103 122 151 110 116 111 112 104 75 67 53 52 84 106 143 166 183 183 191 180 177 222 223 227 219 189 195 141 109 117 102 97 73 71 62 59 55
77 101 90 102 123 146 120 71 63 62 63 85 105 114 127 172 162 148 130 113 75 82 69 72 98 123 155 224 259 314 312 306 271 291 293 286 265 213 189 141 117 115 114 97 78 74 67 57 48
139 113 82 91 97 77 57 27 61 60 43 36 61 65 61 101 127 168 191 184 135 109 100 95 124 137 201 262 351 366 375 356 351 359 328 311 283 183 172 129 146 135 120 101 82 62 76 67 49
107 89 84 80 54 115 79 6 24 47 73 88 81 70 63 78 68 119 148 168 162 124 129 126 115 127 176 252 358 412 450 423 436 401 400 281 239 223 176 153 146 121 101 104 105 70 31 28 32
131 114 100 97 131 118 77 7 -39 -29 11 75 91 88 76 89 96 81 88 139 158 137 130 145 130 147 220 331 482 505 514 478 445 408 408 279 224 205 180 156 133 121 97 93 78 61 46 38 30
100 133 88 92 105 72 73 10 -15 -21 2 33 68 93 77 80 93 94 91 130 135 133 161 137 139 183 216 274 355 412 438 396 351 397 387 329 236 217 179 153 134 120 97 82 64 58 52 33 55
155 143 121 106 102 100 96 131 11 -23 -23 28 65 66 88 86 102 99 111 126 126 174 170 157 165 169 195 238 294 393 439 406 435 425 400 315 244 213 182 149 133 118 98 89 81 69 63 58 45
185 157 101 121 152 170 138 160 63 71 2 -65 -46 21 81 70 83 98 77 133 155 191 192 177 171 179 200 247 302 373 466 435 440 363 305 268 235 206 179 153 133 114 98 90 85 76 78 77 68
213 208 213 177 238 264 92 99 299 135 53 3 20 64 74 78 87 97 145 144 163 201 208 208 180 190 211 234 271 314 375 382 350 298 292 236 211 182 155 136 113 98 95 98 86 94 96 92 84
165 185 287 223 266 227 232 280 350 135 -33 -22 11 48 59 102 46 76 85 163 163 222 235 231 202 212 218 244 292 333 350 349 307 261 231 201 180 158 132 123 108 99 104 102 105 107 103 98 97
180 221 100 263 242 284 373 327 221 177 20 31 -13 38 57 18 83 67 74 139 179 220 224 248 262 244 233 263 333 323 312 313 275 248 220 197 171 147 127 114 109 106 107 118 117 112 114 109 108
242 221 318 464 502 435 369 306 402 253 36 8 34 -50 63 75 50 65 104 144 172 226 267 284 268 287 285 296 313 333 331 305 270 241 210 187 167 141 123 115 113 111 117 123 124 123 111 107 105
196 233 373 437 553 504 379 385 232 87 67 57 57 27 9 98 80 95 103 168 217 287 316 322 356 345 339 335 367 395 358 313 273 231 198 178 154 131 120 114 113 114 122 129 127 112 100 98 96
212 248 325 413 485 516 405 308 199 126 162 -2 -79 86 -20 37 92 125 169 198 246 310 328 342 355 353 362 381 406 397 360 303 260 216 185 156 150 129 115 109 114 119 130 124 108 98 92 94 102

GFSSGP_con_3kmhel_042.txt.gz
Helicity
73 61 40 23 52 58 61 54 57 52 67 75 77 86 130 117 98 83 51 62 45 43 32 12 15 30 24 36 31 38 43 47 44 56 59 68 78 50 9 4 9 16 24 33 47 108 127 112 93
80 58 40 67 92 70 61 50 41 71 86 111 77 45 51 93 61 62 59 50 32 39 31 23 33 43 43 25 19 23 28 35 39 49 52 61 51 23 23 21 20 22 19 22 28 43 62 80 71
63 75 72 91 62 44 82 62 72 81 93 93 107 75 92 90 69 66 60 30 26 34 31 54 54 54 40 27 23 20 21 24 27 35 41 43 47 32 28 30 36 36 39 39 38 47 52 59 60
85 74 92 83 15 27 53 88 79 102 85 107 145 133 61 48 72 87 57 47 61 49 56 104 54 50 37 27 27 25 24 22 24 19 8 36 44 50 45 37 41 45 50 54 56 51 52 45 43
123 136 124 76 -7 11 48 75 100 110 125 139 147 159 141 57 41 46 44 65 35 50 61 70 54 51 41 32 33 30 23 17 16 4 -10 18 32 28 50 47 40 36 39 46 45 38 42 33 35
133 173 160 83 8 49 32 53 65 80 95 135 125 142 142 55 45 49 44 56 56 53 44 55 44 47 46 39 38 34 27 18 12 3 -13 -20 1 -4 38 47 37 31 30 32 31 26 29 23 26
111 125 103 74 18 44 36 57 73 81 80 96 121 153 131 83 66 52 65 70 59 44 51 41 33 39 51 47 44 39 31 23 17 4 -4 -3 14 6 54 36 26 20 22 21 21 17 19 21 24
142 144 102 94 15 6 75 54 74 78 93 90 94 119 117 106 60 57 55 60 69 70 61 55 47 33 27 37 48 44 42 38 32 26 27 39 34 61 75 40 25 18 17 16 20 22 27 29 36
173 147 100 54 31 53 67 62 48 84 99 98 108 165 156 107 67 51 54 56 65 63 56 56 46 35 29 39 58 51 51 48 45 39 48 32 34 42 34 69 47 27 21 25 33 39 44 36 38
142 143 62 102 81 58 69 82 92 120 86 82 103 129 163 129 111 87 69 53 50 55 55 49 37 35 34 45 53 36 52 37 33 32 42 27 42 47 46 49 42 33 27 33 40 47 42 23 45
144 77 71 88 78 89 57 48 71 90 92 101 124 149 181 178 141 126 99 83 55 48 48 37 47 46 32 40 45 57 63 57 52 45 49 53 55 47 44 46 39 40 40 39 39 43 56 70 72
125 76 84 81 61 63 7 21 11 31 28 148 173 197 212 197 180 160 105 87 75 47 38 41 37 49 44 54 43 54 67 67 67 58 61 72 77 74 64 59 62 61 57 59 62 84 79 65 61
83 61 78 54 47 41 54 -27 -40 10 19 63 87 127 185 205 183 164 149 123 101 74 49 42 35 48 53 54 70 53 51 64 76 82 77 76 79 82 78 78 76 86 95 89 75 76 63 57 57
96 69 39 37 34 39 23 -8 1 -25 -9 1 39 81 106 162 171 167 152 142 102 70 59 52 42 48 57 70 78 82 61 69 89 94 92 86 88 85 78 104 101 103 95 88 70 78 62 66 64
60 42 28 5 14 12 18 3 4 -14 13 -32 -5 42 84 103 144 141 148 146 123 96 87 68 53 44 46 70 87 82 85 97 100 109 95 82 72 72 84 93 87 69 70 68 69 66 65 64 63
64 50 49 46 63 46 46 -27 48 61 34 30 -1 13 64 95 121 126 110 136 141 124 94 79 60 40 45 69 82 110 140 138 124 127 104 82 94 102 126 120 103 77 90 80 75 69 64 61 49
23 56 28 51 72 82 45 40 39 93 82 63 63 79 120 154 154 170 164 129 131 113 107 96 58 31 38 75 92 117 160 166 167 148 134 129 128 134 152 116 110 82 89 90 71 65 58 52 41
44 40 42 38 54 69 36 19 30 43 46 44 52 67 73 106 151 187 213 182 153 120 109 94 81 58 64 108 123 151 205 233 250 209 172 184 183 183 206 136 124 93 93 78 60 58 59 53 39
86 68 57 44 45 48 23 20 37 38 30 36 48 47 54 60 80 130 225 208 171 148 152 113 107 82 103 141 147 207 324 341 327 291 266 226 248 259 209 136 123 110 100 79 64 61 61 52 45
30 36 50 55 48 92 67 12 50 47 79 55 45 51 48 51 57 75 109 210 210 196 172 160 122 101 109 139 141 166 338 405 437 384 336 277 287 273 227 136 132 119 94 89 84 64 45 47 56
26 42 41 49 83 76 42 40 -45 81 65 43 28 23 44 58 67 69 85 112 177 214 223 183 145 121 139 138 220 318 392 460 473 402 387 316 271 245 191 139 128 117 96 89 85 73 57 54 56
50 80 50 61 85 75 111 91 97 65 33 22 2 9 -7 39 51 51 67 99 130 173 208 195 163 150 164 195 174 194 310 436 438 393 388 351 259 197 180 147 141 119 99 91 81 72 70 58 66
80 87 66 90 111 118 85 145 96 93 27 40 40 75 107 79 71 101 97 72 112 148 181 179 164 163 162 127 146 162 242 378 487 404 388 372 295 249 195 162 140 119 102 94 78 70 76 79 75
166 91 80 127 151 140 87 127 97 64 78 74 55 5 59 126 137 85 91 105 95 153 155 159 163 156 150 143 142 171 273 374 432 358 391 362 321 220 187 164 138 119 103 86 77 82 86 90 94
128 156 153 94 163 198 181 133 228 133 165 121 45 28 76 72 107 124 89 79 110 148 163 153 152 164 146 147 147 205 219 256 285 336 345 298 217 209 186 150 127 115 103 90 85 91 86 94 96
106 118 153 151 147 117 194 226 248 178 200 145 133 43 72 78 118 105 108 57 106 121 143 160 149 154 143 166 175 188 223 295 370 357 351 308 236 186 166 147 133 117 100 88 91 89 90 100 91
112 110 47 102 136 183 270 198 87 52 37 6 -77 3 74 92 163 43 96 88 83 111 133 153 145 150 160 178 210 227 258 338 381 362 323 251 215 188 156 135 122 109 97 100 93 93 88 93 106
82 142 186 246 257 205 199 161 225 144 71 65 68 101 91 65 99 31 56 72 83 109 138 151 150 165 197 201 219 242 283 376 378 322 261 219 206 168 141 125 109 96 100 98 85 83 107 111 127
121 164 199 238 347 353 279 279 223 190 100 27 67 85 136 122 113 104 66 71 84 124 172 180 177 195 212 220 236 284 380 381 312 255 226 216 183 150 133 112 99 97 91 88 89 105 117 124 119
84 121 169 301 307 363 364 435 220 157 100 104 83 45 -22 6 48 53 56 71 87 142 182 198 203 200 225 237 291 378 387 342 274 242 236 194 175 150 129 112 101 91 94 98 100 114 119 110 112

GFSSGP_con_3kmhel_045.txt.gz
Helicity
76 48 39 28 58 51 45 40 23 45 52 44 97 105 85 100 79 77 44 109 81 72 66 43 59 49 34 26 27 26 28 30 32 42 43 66 69 49 33 29 19 35 45 57 75 109 109 57 103
75 61 33 63 75 60 43 22 48 34 92 85 67 57 72 75 58 40 26 63 62 70 61 54 68 76 52 39 29 23 20 22 28 36 68 93 55 34 39 37 37 35 38 36 49 67 102 106 87
57 49 71 63 28 10 38 77 48 84 49 44 78 70 64 79 68 44 75 57 50 48 41 118 80 65 54 39 24 19 21 19 23 33 32 48 50 40 38 41 38 41 42 46 52 55 49 55 63
68 62 88 87 5 -8 4 68 27 56 45 60 107 99 74 104 69 91 66 43 44 42 66 136 97 84 74 42 29 21 22 20 15 11 23 32 43 44 43 42 37 38 41 51 59 60 56 52 51
78 104 92 62 -9 -15 37 66 71 78 92 63 72 46 75 50 61 51 56 60 67 70 153 124 113 94 81 49 38 29 23 21 18 2 16 30 34 49 47 44 45 47 44 51 51 49 44 41 39
129 109 104 67 11 23 21 65 70 61 69 68 66 73 56 71 35 50 47 51 69 88 114 111 96 90 74 56 48 40 31 23 18 1 9 24 33 25 50 49 42 44 42 43 43 36 30 29 23
118 119 96 66 43 42 46 89 91 56 35 37 45 114 73 68 103 52 46 61 76 75 90 88 66 72 83 70 58 48 37 28 16 7 2 13 21 18 50 49 36 34 30 27 23 20 19 18 18
102 123 77 86 36 31 47 113 95 93 74 69 104 89 64 173 66 56 54 60 63 73 73 75 75 70 64 64 63 52 48 43 31 20 34 25 26 26 71 51 40 36 31 27 22 25 25 24 26
110 132 108 50 40 58 84 159 71 92 118 95 81 75 113 141 68 66 63 56 57 61 63 68 79 73 60 61 67 58 57 50 47 41 44 23 12 41 35 72 60 44 37 38 36 36 24 9 10
122 127 63 60 69 70 125 78 89 127 68 93 88 95 120 100 81 77 77 75 63 52 52 61 65 76 76 88 115 51 57 48 39 40 50 18 47 66 91 74 54 40 41 36 34 25 6 6 28
82 68 47 105 172 188 178 96 98 119 130 74 64 76 97 156 127 109 95 89 81 55 58 57 65 64 91 88 94 73 74 61 40 50 55 40 68 67 47 52 40 36 27 23 18 23 32 75 70
89 68 74 133 106 92 89 94 67 37 62 120 73 113 223 163 148 127 128 117 96 82 70 55 52 65 63 62 73 53 79 99 72 67 62 75 69 67 65 60 79 57 45 68 67 94 60 40 47
89 86 74 99 85 57 72 61 68 89 43 97 188 120 148 138 154 145 141 97 79 98 95 68 45 61 55 47 44 58 82 89 92 84 64 70 74 80 93 98 79 91 114 117 73 59 47 48 54
106 89 74 55 54 38 37 31 40 22 11 -9 29 56 78 87 130 148 135 128 121 105 100 75 59 54 55 66 65 44 73 78 148 87 76 78 78 92 102 113 139 120 93 89 65 73 69 58 56
76 49 43 20 17 23 7 1 16 14 -42 -42 -13 -9 -0 33 84 99 150 128 106 87 94 101 95 73 70 74 79 83 61 97 160 94 96 84 117 107 115 115 90 83 76 76 73 61 59 57 57
54 36 61 33 62 52 56 -8 83 7 31 32 27 36 -0 6 34 84 107 129 98 114 119 102 124 97 81 71 98 101 57 144 161 110 140 111 96 115 86 124 103 74 79 86 86 77 63 59 48
46 108 29 63 11 81 17 16 58 77 77 68 51 72 64 35 5 46 101 126 76 82 111 136 127 112 83 66 85 53 41 140 184 130 179 124 136 135 120 126 114 82 98 96 85 84 71 48 34
80 43 79 73 22 27 56 24 25 58 24 44 64 72 99 102 92 90 116 140 124 113 109 107 120 118 86 95 98 59 90 194 211 222 214 201 157 173 166 146 135 111 96 91 91 75 58 50 36
92 131 80 62 54 35 25 12 17 21 14 18 47 57 64 73 74 81 91 153 217 205 181 138 166 143 133 131 130 112 190 254 362 274 333 219 234 203 188 189 153 132 105 105 87 68 55 53 44
48 43 44 40 39 46 34 28 28 24 42 44 52 72 71 80 74 63 74 105 130 201 261 245 186 167 166 159 143 137 306 510 509 503 418 360 294 270 237 215 185 155 118 115 96 70 49 49 49
27 39 43 55 75 48 18 17 -25 29 40 14 -1 19 48 62 65 56 62 83 119 149 203 236 240 202 189 181 176 238 534 540 487 440 471 415 344 302 275 231 198 174 135 122 102 82 78 51 39
35 35 55 50 50 29 90 20 68 79 37 50 48 73 78 73 82 80 84 88 94 112 175 234 230 225 217 210 216 302 421 412 402 439 454 441 370 328 271 223 209 158 140 119 94 85 75 58 66
48 90 55 56 77 75 55 102 72 110 48 57 75 80 78 79 124 141 118 111 120 124 135 190 247 266 271 219 267 323 279 259 401 491 476 465 434 361 291 277 231 179 144 119 96 85 84 77 76
116 35 26 44 42 74 17 64 89 99 165 198 43 79 84 23 35 59 80 109 137 147 205 191 232 262 294 337 235 196 243 361 420 522 522 482 389 351 260 234 198 156 138 114 100 90 85 88 90
79 84 56 12 98 141 133 133 214 112 63 117 107 112 123 128 88 62 57 64 93 129 186 201 201 237 256 236 197 149 269 251 299 435 464 403 383 338 291 250 174 149 134 114 98 92 75 88 92
35 89 102 117 100 155 227 184 169 64 115 109 131 99 91 94 51 125 102 85 87 106 125 199 165 214 210 191 190 211 274 241 288 370 376 392 349 293 228 226 158 150 121 106 89 78 82 94 80
96 78 92 110 89 142 198 133 110 63 8 112 90 73 46 98 119 128 96 86 77 101 100 169 168 198 192 196 244 272 208 246 336 361 414 421 364 280 269 196 177 139 115 97 85 97 83 85 108
47 110 158 180 130 101 112 115 154 105 97 176 193 106 102 110 86 63 45 71 98 69 89 109 138 186 193 208 243 259 223 246 362 397 440 375 288 207 190 183 149 125 105 99 94 88 104 114 117
105 93 150 157 219 192 126 195 163 224 170 149 134 136 170 67 90 96 77 70 104 69 87 104 162 198 206 230 277 247 232 278 401 428 357 340 251 209 182 169 133 113 106 97 92 114 119 106 99
65 86 90 188 165 217 273 291 146 64 124 79 31 67 70 57 14 -23 24 7 132 91 167 138 188 245 245 266 256 238 254 348 427 405 334 227 205 195 196 145 129 118 106 101 112 113 109 100 98

GFSSGP_con_3kmhel_048.txt.gz
Helicity
88 97 50 51 71 66 56 27 19 79 51 61 73 128 159 58 77 61 113 107 176 105 89 53 72 86 62 48 36 35 30 25 30 36 45 52 50 42 34 33 44 56 61 71 88 120 125 113 81
68 78 66 69 97 85 48 5 46 95 66 142 157 121 115 78 24 25 70 63 131 106 68 76 89 86 66 54 46 36 20 18 26 28 35 64 38 42 46 41 42 43 47 57 78 114 123 105 74
55 56 104 80 74 37 32 -12 109 63 122 59 38 7 15 73 70 -30 95 74 127 99 40 85 96 97 73 54 46 37 26 13 19 29 51 42 33 36 37 40 43 49 50 57 63 57 57 51 45
69 78 106 112 22 6 -15 5 81 140 61 40 62 62 77 126 101 108 57 76 104 50 188 114 98 94 87 67 50 37 27 22 17 13 10 26 33 36 41 40 41 43 44 48 57 47 41 48 45
100 133 99 88 11 -3 -15 10 71 121 82 47 48 38 80 126 132 85 56 63 72 206 162 127 111 111 91 69 57 46 33 25 12 9 15 24 28 29 31 30 29 32 37 40 43 41 37 39 40
152 151 159 83 22 28 33 24 117 164 87 36 63 40 69 74 60 70 45 44 103 187 173 153 149 123 102 76 66 53 40 30 20 16 12 19 12 29 27 26 25 26 28 30 32 32 28 28 25
132 142 130 80 47 48 36 13 142 94 74 80 51 81 77 82 124 71 30 42 101 119 139 139 138 114 95 80 73 60 47 33 19 11 11 27 12 -1 42 30 26 30 28 23 22 17 17 20 18
155 149 97 93 71 49 39 44 154 140 124 2 100 98 109 158 84 83 64 121 135 171 122 92 126 115 99 87 79 67 57 44 30 32 44 34 16 27 70 46 38 37 37 31 28 25 20 15 12
118 168 128 91 64 57 67 67 154 182 108 86 76 85 66 113 76 99 86 90 97 110 106 75 99 103 91 97 90 87 76 61 47 44 46 26 19 54 66 30 50 48 40 37 32 23 11 0 -9
240 188 143 96 68 75 73 71 114 181 114 138 154 95 64 46 74 107 69 84 94 91 87 116 130 105 86 112 129 98 90 75 57 51 39 -6 4 80 74 75 57 45 39 34 25 13 4 25 26
162 150 131 109 126 52 150 275 175 238 221 138 101 109 135 61 77 73 67 72 84 91 86 81 145 107 84 149 137 101 102 68 47 54 52 -13 98 128 117 65 55 42 30 29 10 26 30 51 67
108 102 89 95 202 75 76 173 271 175 122 106 149 112 129 152 89 126 127 94 100 105 91 101 111 132 184 172 146 120 117 72 54 65 52 46 123 86 84 88 52 49 58 54 66 79 71 47 39
90 86 84 164 159 130 50 117 153 184 171 66 88 210 115 202 212 185 101 102 114 119 127 144 102 118 188 173 121 111 112 106 93 66 91 117 100 72 56 99 90 107 142 140 130 95 64 67 80
120 86 94 148 146 84 65 46 83 113 13 35 107 156 216 222 226 188 211 160 146 112 146 173 115 133 162 138 122 82 126 126 75 91 102 101 68 47 91 137 166 160 148 146 118 104 99 82 73
161 110 101 97 91 88 55 30 42 29 52 52 55 -21 8 132 169 132 145 191 119 121 115 174 159 122 182 133 119 93 124 132 130 147 118 81 88 104 172 191 151 108 131 119 133 117 103 105 78
87 73 90 37 17 53 52 22 38 61 91 57 29 37 -45 14 14 6 81 139 184 130 127 144 176 150 181 204 217 92 128 157 168 148 134 90 162 197 223 182 159 134 116 184 147 131 114 96 77
77 118 80 79 39 48 69 37 23 141 79 98 83 69 39 -5 9 38 62 77 107 196 156 161 199 216 194 246 248 190 53 161 211 168 150 162 197 215 229 202 186 146 156 146 145 147 111 97 76
109 93 108 111 70 6 38 38 42 81 53 61 88 97 108 118 100 106 96 126 132 133 173 169 245 281 226 220 271 206 93 142 226 221 205 260 292 245 236 206 192 201 190 148 124 134 117 89 64
229 186 228 183 190 76 46 32 39 40 56 45 77 95 83 78 82 115 138 156 178 130 162 187 225 256 240 226 285 264 153 194 280 269 289 345 333 326 284 256 264 211 162 131 130 133 112 100 68
113 94 81 66 46 42 23 52 42 61 90 83 92 102 118 113 109 81 108 127 122 196 227 221 235 293 305 249 262 281 323 431 452 419 441 493 492 371 308 327 301 271 237 197 155 108 102 71 73
78 71 74 84 58 20 36 3 -10 91 51 44 53 78 111 125 133 129 117 121 135 149 158 260 281 283 292 324 325 501 509 566 575 625 650 661 623 489 403 372 322 278 242 225 214 155 127 71 53
70 70 59 63 62 44 74 7 15 39 41 57 78 86 95 98 112 135 132 132 145 160 166 138 239 298 319 332 394 437 464 535 553 641 736 706 545 423 386 359 343 322 278 251 188 145 108 80 62
73 98 92 73 74 50 15 58 -15 32 18 16 55 83 85 73 100 87 101 128 103 161 156 167 166 208 269 345 391 542 574 582 628 626 689 572 454 410 368 359 353 335 281 229 187 155 123 99 80
110 45 22 34 27 33 -18 37 -4 -1 84 256 220 138 90 65 65 85 76 79 91 126 158 218 167 235 265 333 436 548 604 580 549 553 600 554 503 472 441 374 386 351 271 239 200 138 133 111 102
75 51 30 -5 22 22 -9 33 142 88 64 79 71 144 172 178 184 155 138 119 95 85 95 170 238 260 321 401 473 474 527 504 454 514 566 526 493 492 453 397 359 310 278 214 174 136 116 107 101
41 56 47 42 57 102 176 132 115 18 40 111 104 137 144 140 170 186 196 163 137 124 93 119 216 354 379 469 452 420 440 446 425 430 437 444 451 417 386 354 299 279 227 197 144 112 96 99 90
69 26 114 132 88 101 123 171 96 -5 1 46 114 145 103 99 119 197 220 178 125 117 125 121 144 349 443 448 359 378 437 411 379 402 414 457 435 405 382 314 284 240 209 177 125 98 88 84 88
37 64 129 155 84 75 89 65 43 159 233 257 242 173 149 123 195 215 152 89 122 76 129 136 191 290 416 374 414 486 445 372 331 357 393 400 391 385 351 323 258 264 188 163 116 93 93 97 102
70 62 108 153 122 123 79 73 165 176 207 206 223 199 123 155 225 222 193 80 128 77 124 140 229 304 359 422 549 562 494 381 333 377 386 403 381 328 286 267 207 189 176 135 113 104 98 101 109
69 92 126 153 86 136 178 233 71 90 186 202 161 76 96 97 157 185 151 107 56 28 70 187 233 302 505 588 545 474 399 366 379 401 423 386 333 289 282 242 209 193 174 131 119 110 115 109 115

GFSSGP_con_3kmhel_051.txt.gz
Helicity
67 64 58 99 113 116 76 37 71 152 56 53 68 56 56 103 99 91 30 125 146 104 58 52 69 78 86 65 74 70 61 50 45 51 54 55 47 39 32 44 47 49 52 69 64 83 82 79 75
76 80 97 109 139 135 53 31 46 29 76 97 110 77 100 91 47 22 86 128 135 129 81 70 71 83 85 76 69 58 52 53 48 54 61 52 38 38 35 25 24 32 46 54 70 90 101 81 53
88 83 138 127 124 98 35 31 210 56 104 100 66 49 80 122 64 8 108 142 114 131 73 72 80 79 78 76 68 62 50 43 43 53 89 42 33 26 22 22 25 27 45 56 64 77 67 56 40
123 156 152 152 67 53 29 15 36 48 102 83 89 82 93 50 -6 32 147 173 104 112 101 85 83 91 96 73 67 56 49 42 40 60 42 28 26 24 20 22 25 32 35 53 48 44 47 37 32
162 178 134 99 -2 7 -3 92 78 33 82 42 87 75 77 148 105 71 173 122 132 119 103 86 88 105 100 73 77 60 51 41 28 14 25 23 23 22 20 21 26 31 34 40 40 29 24 30 33
195 176 140 83 14 20 12 64 14 52 123 132 65 41 34 39 77 57 138 190 165 128 97 91 107 108 97 79 72 64 62 43 36 25 24 32 32 27 20 17 21 28 27 28 28 26 27 26 23
163 187 129 97 42 48 24 91 89 116 125 116 113 65 69 94 37 52 171 192 186 184 149 136 116 112 106 94 69 55 51 42 36 32 35 27 33 37 24 18 15 17 17 14 15 15 17 19 18
168 180 138 113 39 28 2 31 0 208 172 160 131 75 117 73 42 44 136 198 195 175 172 180 164 134 118 93 76 59 53 41 37 34 44 40 28 28 44 25 17 16 13 12 15 20 21 18 18
136 197 141 111 82 68 47 20 88 149 190 218 200 106 77 80 99 102 161 217 194 157 136 150 171 163 134 115 87 84 80 63 55 49 45 35 27 56 62 37 32 27 22 19 17 23 23 24 5
230 190 147 155 78 49 70 50 105 134 168 191 210 137 92 111 103 106 121 169 177 145 124 125 139 139 129 117 114 109 98 81 69 65 38 24 30 53 55 42 43 39 30 23 23 34 37 27 17
176 166 139 114 61 59 72 121 113 229 239 174 156 176 102 92 59 87 102 115 114 153 139 142 117 86 116 139 149 140 123 107 79 61 36 45 32 60 60 55 40 34 34 31 36 47 50 55 51
161 167 98 80 41 96 96 129 209 195 257 302 241 208 179 116 80 83 82 89 105 115 136 156 144 106 117 166 167 136 120 117 94 61 32 84 83 98 87 56 37 36 41 55 46 50 73 80 89
144 137 120 119 118 120 92 113 147 161 225 246 162 154 231 204 159 132 100 91 112 120 116 179 159 154 193 205 146 148 126 126 82 77 41 91 88 85 94 63 52 42 65 55 90 94 112 111 106
182 138 188 150 110 138 100 70 110 114 146 96 91 20 138 232 201 162 174 151 156 135 186 156 192 186 228 217 171 160 128 107 81 111 46 73 78 82 79 78 85 82 93 119 127 148 148 127 103
157 170 137 96 52 37 79 52 103 60 63 39 32 21 -6 154 199 201 136 174 182 123 149 221 198 277 254 241 196 169 140 127 101 120 110 104 105 76 103 119 156 148 157 197 182 156 158 169 120
132 71 76 41 63 75 115 25 47 55 100 107 81 46 -25 -26 78 88 78 114 178 167 117 159 190 253 285 260 224 195 178 165 146 159 138 130 104 115 172 202 181 164 182 184 178 162 146 145 141
122 97 57 87 44 79 125 44 15 104 107 84 83 133 56 -74 -68 -64 -31 -77 -15 173 172 131 182 237 248 253 285 246 229 196 164 195 190 170 174 222 265 245 214 220 222 196 156 153 139 141 120
101 100 102 100 116 98 109 80 69 69 37 55 66 72 81 22 -34 -28 -58 126 137 106 179 200 152 192 302 293 248 240 277 201 172 182 235 221 281 304 303 257 253 259 265 212 171 162 173 141 110
175 170 141 121 192 113 81 59 46 62 43 -4 8 32 28 55 55 84 94 103 132 120 88 132 199 189 403 420 412 327 271 249 233 190 271 288 366 356 314 283 292 270 267 209 174 161 154 159 122
103 113 69 66 139 83 42 23 22 63 91 86 65 50 51 39 27 27 69 98 124 120 119 148 171 221 299 405 376 376 336 283 282 233 326 396 449 463 349 311 311 298 304 246 195 185 182 182 149
85 65 49 54 24 33 14 18 69 59 21 -6 5 49 74 90 109 89 88 80 91 123 113 131 169 158 306 453 588 629 589 475 401 394 487 510 504 530 424 348 363 343 315 262 212 192 197 172 146
81 92 74 76 62 63 41 25 95 58 35 37 35 58 49 73 140 127 127 129 124 103 114 96 121 145 195 335 483 525 518 493 422 544 566 590 566 598 460 417 394 372 330 296 253 220 200 166 124
64 75 82 74 59 44 60 68 1 -35 16 36 79 31 46 78 61 51 88 116 121 120 129 130 102 148 151 229 312 436 555 562 576 648 653 646 659 644 533 448 408 399 349 287 268 259 225 183 132
57 56 63 53 39 89 53 66 -2 -40 -48 -1 73 118 2 42 55 59 78 96 120 134 110 119 134 132 171 181 332 455 591 617 616 624 656 675 650 625 534 488 438 409 373 283 265 281 248 205 157
85 84 90 77 87 58 71 51 71 -10 -50 -27 -23 17 77 149 166 148 179 193 183 174 136 101 100 108 146 230 365 474 539 585 586 597 618 665 658 599 565 537 485 411 352 284 281 249 264 189 143
92 56 72 53 54 48 81 18 -13 -49 -26 12 42 88 68 123 127 100 122 140 177 186 168 115 86 128 163 282 446 517 554 630 583 581 560 586 583 569 562 511 436 357 336 265 274 270 220 165 131
60 55 74 76 68 61 53 76 25 24 105 103 144 178 199 190 100 89 168 183 177 143 111 70 80 120 200 354 550 582 593 575 486 500 508 513 523 551 524 477 419 352 295 231 244 218 182 147 106
55 64 91 93 41 36 42 28 23 36 107 119 162 218 232 217 184 144 205 230 193 114 46 54 63 142 231 417 509 565 537 478 445 424 422 412 443 478 468 428 386 338 232 259 208 217 164 135 119
54 63 78 76 81 33 16 11 -6 58 29 48 120 125 113 136 182 194 164 156 149 81 55 43 78 196 329 460 538 560 485 410 405 349 348 397 422 412 393 357 319 219 279 228 255 156 104 106 105
76 74 103 92 63 86 100 114 -28 -36 163 78 -88 -116 -39 69 101 160 166 160 104 52 73 92 131 370 453 461 454 447 408 396 344 315 324 377 403 376 359 340 336 210 249 202 237 123 125 108 103

GFSSGP_con_3kmhel_054.txt.gz
Helicity
65 73 56 87 102 93 68 51 62 112 154 41 11 16 8 54 58 77 29 84 122 88 53 43 47 50 76 90 88 92 81 68 66 59 60 60 55 48 46 49 49 39 31 52 49 46 56 51 41
77 90 111 108 129 110 49 46 68 131 127 66 35 31 55 76 47 73 64 44 101 99 64 52 63 51 62 85 77 85 74 67 61 60 63 47 41 35 28 25 31 30 39 44 49 55 74 72 42
109 117 132 140 134 97 22 71 118 136 75 47 64 56 52 72 50 15 42 96 137 115 84 65 53 58 60 72 66 71 72 70 71 82 66 40 34 31 24 22 22 27 34 47 49 71 64 46 30
151 183 194 187 131 78 42 74 109 197 95 40 56 66 88 70 67 29 77 125 180 136 113 92 63 57 69 73 70 60 62 56 42 71 59 35 30 27 24 22 23 25 34 35 42 42 36 32 28
200 228 221 184 101 56 33 23 46 204 175 64 70 73 92 125 68 107 96 136 186 164 129 93 65 61 69 70 72 66 68 65 80 71 44 31 32 30 25 19 15 19 26 27 28 29 29 27 31
256 253 245 185 78 23 -3 45 69 164 117 74 73 86 79 89 133 116 107 107 132 146 132 81 65 69 66 63 70 71 70 66 64 51 50 47 37 28 26 22 16 14 14 19 24 25 24 24 29
218 244 191 123 53 39 -3 -15 99 125 99 67 88 113 84 51 106 113 127 98 118 128 122 77 78 81 73 70 74 71 65 69 61 63 58 54 43 30 24 17 16 13 16 16 19 17 17 22 21
180 195 158 106 81 18 27 38 59 100 128 58 131 112 102 24 98 168 182 157 132 121 107 108 104 99 99 84 75 70 61 60 60 55 59 59 56 40 33 19 9 13 12 12 13 19 25 27 33
198 189 158 104 84 67 53 59 80 84 102 142 202 164 104 105 175 226 228 206 180 147 136 138 154 145 132 111 85 79 70 60 65 72 70 61 40 32 41 22 18 20 17 16 21 25 29 28 39
231 203 152 113 87 68 54 37 60 174 181 209 219 193 227 199 141 183 173 174 166 148 140 155 161 157 148 126 113 98 82 71 69 68 57 54 36 51 48 35 30 28 23 24 33 35 30 30 37
216 169 143 110 106 69 63 95 91 186 202 178 217 161 179 205 148 178 132 177 170 160 155 138 143 150 165 153 135 119 115 103 86 71 65 66 53 55 49 38 29 28 26 33 37 47 48 52 52
193 164 138 98 70 63 61 69 92 184 172 160 235 293 227 139 141 113 150 116 174 175 172 158 139 152 153 168 171 140 132 117 104 73 76 88 77 68 55 42 41 39 35 38 42 54 74 95 108
157 177 151 92 87 91 95 82 86 103 179 178 159 179 258 268 141 164 184 156 165 171 160 175 156 145 167 176 160 161 140 131 105 99 93 93 85 84 67 40 52 46 54 44 45 59 90 107 123
190 103 126 122 105 103 80 68 105 87 113 154 129 160 178 252 270 274 216 131 145 158 183 197 184 164 192 177 169 167 129 105 99 110 110 90 87 94 88 64 47 56 59 58 82 106 117 130 113
167 177 178 152 107 103 98 -1 59 61 30 73 64 58 64 110 179 197 246 204 155 141 226 266 222 213 216 205 185 173 159 124 126 92 97 98 86 96 88 80 73 78 95 132 159 159 162 159 138
139 152 134 104 65 74 103 4 32 37 46 36 39 41 26 22 88 94 137 166 159 165 172 204 257 249 253 248 220 210 166 145 144 113 95 105 98 111 114 126 121 153 176 183 186 183 176 154 133
218 163 124 106 64 91 124 30 -7 57 90 77 70 89 87 61 2 -8 63 76 100 149 178 193 257 276 263 265 264 232 207 194 173 168 156 132 129 147 191 179 194 195 213 191 202 184 151 136 125
119 129 120 117 143 89 125 97 69 89 77 87 69 54 68 59 41 50 111 87 32 60 134 172 209 244 235 299 314 277 270 225 224 186 205 183 189 233 227 238 262 252 256 239 218 192 176 139 117
106 131 130 124 109 83 93 54 33 25 39 32 -7 -6 14 -2 -10 65 105 101 103 55 65 166 186 242 296 350 351 351 271 251 232 243 235 239 276 271 269 302 329 291 276 246 230 222 177 156 133
115 111 108 111 84 58 59 41 18 40 88 98 32 -9 2 17 20 41 55 91 111 115 123 105 175 205 316 324 372 447 346 316 266 284 258 243 319 349 322 352 349 315 312 284 244 217 190 166 169
113 78 61 77 60 0 38 29 73 95 49 53 50 49 32 22 -6 -10 36 46 73 103 110 112 125 173 195 271 374 561 581 461 434 322 290 276 336 465 396 377 414 389 356 290 247 220 189 191 199
118 67 36 63 43 59 68 29 72 58 54 38 52 51 48 62 88 85 75 48 63 78 95 111 126 127 149 230 357 379 395 458 388 364 393 401 358 469 418 433 450 406 374 317 277 237 208 204 197
77 55 32 27 34 32 37 57 47 53 73 90 52 94 55 32 57 73 139 154 128 137 145 156 129 132 149 196 260 332 380 433 544 526 471 470 469 430 474 462 504 456 420 382 326 279 241 209 205
53 78 75 38 16 78 44 83 46 40 68 82 51 97 79 20 30 29 31 36 55 87 113 153 183 162 124 177 227 266 407 495 526 531 532 532 536 498 467 498 515 491 454 424 326 285 265 231 252
117 96 92 109 107 66 33 60 15 34 -23 21 38 58 59 103 84 65 65 73 94 120 131 128 123 132 122 127 192 273 375 431 442 485 551 567 558 531 484 520 513 508 437 404 372 352 311 241 251
102 65 58 86 77 70 59 38 36 50 5 -5 43 90 165 174 167 127 78 96 116 134 157 157 138 118 91 98 137 238 345 463 496 517 526 532 568 600 571 538 495 483 456 441 393 365 328 214 267
64 59 42 32 41 30 53 50 37 71 96 113 144 186 201 177 162 134 104 116 112 121 123 115 110 84 65 85 167 300 379 437 503 543 576 614 635 612 550 475 464 456 460 422 397 323 305 282 207
47 68 77 93 40 29 44 46 1 33 75 81 145 144 93 51 57 75 109 146 145 108 108 88 78 45 42 120 262 310 399 489 519 535 530 490 512 502 460 435 404 430 421 419 354 338 269 212 221
86 81 82 72 60 28 41 10 7 40 51 56 88 -13 -48 -37 36 83 67 97 204 191 155 105 81 41 84 224 293 338 397 481 497 453 462 412 434 418 389 384 408 387 392 343 366 373 246 231 269
70 44 69 61 48 72 46 -1 -10 -28 25 52 -52 -158 -52 67 75 70 57 78 150 161 145 107 61 49 164 262 327 367 386 389 413 361 371 378 384 366 390 401 421 403 323 384 261 299 275 161 92

GFSSGP_con_3kmhel_057.txt.gz
Helicity
81 93 66 87 97 83 67 64 71 97 153 89 73 79 38 59 71 99 37 26 89 62 35 43 31 21 36 57 66 74 102 95 85 83 86 80 70 61 58 65 54 28 16 41 26 34 42 50 31
83 96 123 105 104 91 41 32 58 98 94 107 89 65 55 56 62 75 68 34 100 72 48 39 49 23 57 54 62 61 82 70 68 67 58 52 50 42 34 33 32 34 28 34 14 -7 18 59 28
119 123 138 129 90 61 18 44 96 126 140 84 94 69 33 41 63 42 3 43 80 92 76 57 69 53 51 54 54 55 50 63 63 65 49 41 37 36 36 33 27 30 41 51 38 63 85 49 40
162 187 186 155 98 63 48 57 107 165 165 84 66 91 59 43 57 23 74 105 102 101 95 79 78 55 43 44 51 55 51 55 75 76 61 44 34 31 32 32 33 33 48 36 54 57 40 34 28
222 232 189 143 81 47 35 34 8 128 162 188 132 76 62 84 91 113 102 115 124 122 111 90 75 61 49 43 46 53 42 50 71 91 61 50 47 36 33 28 26 29 25 25 31 32 30 25 18
257 255 216 157 95 49 21 19 50 99 117 214 145 79 73 78 125 77 119 101 106 135 122 108 90 60 54 33 42 42 58 49 78 82 61 55 50 44 38 30 21 14 12 10 10 11 18 21 20
230 260 200 146 75 72 47 27 91 118 181 188 104 113 80 67 77 133 100 107 95 122 128 113 89 61 60 54 50 48 58 52 82 68 63 62 58 52 44 37 26 17 10 7 7 8 11 20 33
218 224 168 146 107 55 23 28 45 73 146 97 56 78 100 39 100 160 133 130 121 108 112 104 89 82 81 69 58 59 60 57 61 67 79 78 67 53 48 35 25 23 19 15 14 16 20 35 56
231 222 189 162 118 88 58 103 90 62 130 87 84 88 91 211 204 204 190 155 120 102 93 107 106 97 106 95 72 75 75 71 72 74 81 77 56 49 47 36 28 26 21 16 17 22 32 49 65
265 222 178 143 87 26 50 47 67 114 176 155 153 139 181 281 214 174 149 130 113 97 87 103 112 104 128 108 100 95 88 84 74 81 80 71 57 50 49 41 32 33 27 23 30 35 43 62 66
229 170 209 132 100 64 42 90 45 92 156 138 167 218 265 236 186 156 146 130 126 139 116 101 112 103 140 134 134 120 104 95 91 89 89 79 66 47 49 43 29 29 29 29 36 50 54 53 71
188 154 174 92 73 57 29 56 62 84 111 115 191 192 216 202 155 124 134 147 164 163 151 131 130 130 141 153 157 137 124 106 98 90 96 101 82 71 69 53 39 37 37 45 52 56 66 87 112
159 198 139 90 81 57 32 52 62 60 91 134 180 215 235 249 196 140 122 144 168 159 159 151 155 172 160 168 167 159 146 134 95 97 105 118 100 88 84 57 55 49 55 54 64 68 84 109 130
140 82 96 119 76 69 39 46 77 55 51 141 122 190 190 216 196 195 154 145 170 181 156 177 166 178 188 185 178 169 158 142 117 111 115 120 114 106 94 69 58 61 55 64 74 83 106 126 130
163 117 144 106 85 89 49 23 73 77 61 60 94 93 158 143 163 164 184 188 208 221 187 186 192 198 198 198 197 182 162 148 137 118 117 127 126 111 100 84 77 64 68 90 103 133 143 149 141
163 158 150 138 103 109 89 15 106 70 85 60 52 20 53 105 106 113 155 183 238 255 240 209 213 212 229 241 235 195 156 144 142 115 116 112 119 118 115 113 93 92 94 114 151 170 176 153 127
197 155 151 149 80 107 126 13 -27 24 80 96 75 40 37 32 24 60 74 164 214 216 224 240 236 220 228 265 280 230 187 167 169 125 126 120 125 142 145 124 119 145 155 177 200 191 159 136 129
188 142 134 131 130 122 122 81 57 67 75 78 89 81 34 5 -3 42 14 116 144 155 185 185 220 223 263 301 295 241 224 181 199 169 135 159 150 171 171 163 174 216 233 226 214 201 176 136 131
125 137 146 123 107 101 53 43 61 42 51 41 30 26 22 11 -20 -11 30 66 93 173 170 200 216 192 276 356 310 255 226 255 226 188 171 197 195 202 205 214 222 265 275 224 237 221 178 165 146
136 123 117 104 81 75 75 27 30 16 42 53 56 59 56 57 30 24 43 67 83 127 188 163 158 141 240 292 307 354 295 258 253 230 217 225 236 246 253 264 257 281 321 299 282 251 234 197 164
67 62 60 60 91 50 52 5 72 63 57 65 36 40 33 44 31 13 28 49 74 98 143 195 156 137 160 209 298 430 461 434 361 303 211 222 299 291 295 265 320 323 325 342 301 286 257 246 206
84 61 53 72 70 58 75 16 66 80 86 59 60 82 103 106 88 100 101 66 53 74 102 116 145 163 175 176 312 329 368 369 367 309 239 268 341 372 363 330 340 382 416 406 338 300 304 287 243
74 74 59 49 32 38 59 44 62 93 121 110 105 135 140 121 91 85 83 93 102 100 121 112 123 137 128 129 201 281 319 329 405 439 358 409 415 371 392 401 394 409 439 408 376 333 299 301 268
44 88 66 43 44 82 54 88 80 84 128 168 217 163 196 230 212 130 100 102 114 99 94 127 164 163 151 152 179 207 234 363 407 425 423 429 448 447 425 429 412 381 396 412 400 331 282 309 283
114 83 88 116 132 78 43 76 37 141 138 103 78 96 147 181 226 235 186 133 110 89 75 84 89 107 162 165 149 155 204 252 294 354 383 453 501 480 427 489 461 425 403 439 415 344 345 324 314
121 75 68 100 91 87 35 66 56 106 63 35 64 104 139 124 89 106 135 112 85 81 86 104 102 98 85 81 77 94 155 211 276 307 363 379 408 466 481 497 511 465 418 444 398 358 379 378 380
69 80 57 16 48 62 42 56 30 28 63 121 155 137 117 97 71 45 35 67 86 96 84 84 101 97 84 78 60 69 148 220 244 305 384 444 458 494 531 508 493 468 450 404 385 404 409 434 395
58 44 75 92 25 44 55 51 40 56 90 88 128 94 22 -52 -6 32 27 18 77 116 116 135 135 131 129 105 80 105 160 229 287 345 408 442 463 469 497 505 465 459 398 354 398 431 441 417 417
105 87 94 75 66 44 67 36 25 15 67 61 44 -37 -80 -52 -53 -4 49 22 34 113 137 133 158 148 145 109 103 135 215 273 305 344 396 391 416 403 430 432 403 400 390 390 423 416 415 445 340
65 48 67 51 40 66 48 29 32 18 -61 -42 -9 -25 35 42 43 45 63 91 117 132 180 188 152 188 163 104 119 185 249 260 289 322 338 377 363 353 373 349 394 441 437 413 421 378 364 314 309

GFSSGP_con_3kmhel_060.txt.gz
Helicity
93 83 71 102 103 97 81 82 62 99 168 94 93 105 96 73 87 109 16 29 59 68 38 32 51 26 9 18 46 67 61 80 77 66 75 84 84 73 62 61 45 19 8 20 8 21 42 47 39
106 90 114 108 99 100 61 41 72 102 99 159 89 82 108 98 49 56 56 35 62 87 48 45 42 30 12 31 51 51 44 66 61 48 55 65 61 57 58 54 38 44 30 25 -1 -5 27 60 34
133 145 126 105 79 71 29 34 82 87 108 76 133 75 84 89 48 29 16 29 99 102 58 43 32 45 29 34 45 45 69 55 56 57 50 45 46 40 42 43 37 28 33 20 -30 -1 56 47 48
174 206 183 129 79 64 52 56 75 140 119 88 116 142 74 29 42 34 50 79 107 103 83 66 57 67 45 44 46 45 55 57 49 59 43 37 41 42 44 42 28 39 69 65 49 71 60 47 44
266 235 181 123 67 23 36 38 25 69 120 131 166 139 112 51 57 80 104 87 97 88 97 92 76 73 41 29 35 27 38 42 68 63 51 40 40 40 43 39 31 36 39 25 34 42 40 35 33
288 258 200 146 78 30 20 41 59 65 69 122 137 127 107 38 76 71 80 104 67 68 100 84 65 61 45 34 41 34 36 43 75 74 51 42 42 44 45 42 35 33 26 20 22 21 19 22 23
220 280 195 138 66 50 19 29 66 85 89 103 100 171 129 44 60 93 87 108 66 66 108 92 73 63 50 37 37 37 47 31 42 61 47 50 44 42 44 42 36 28 25 19 17 14 19 24 30
221 230 154 144 91 50 15 41 59 57 91 66 54 172 129 59 93 135 129 81 70 78 95 97 82 82 64 61 53 49 62 44 71 59 59 78 59 47 47 38 32 32 25 21 21 24 32 43 46
231 239 184 158 107 85 49 53 115 112 112 113 69 127 109 84 158 152 130 100 70 79 85 93 97 79 72 78 61 64 67 62 69 62 84 89 57 47 51 40 29 29 28 24 26 33 44 60 61
265 214 160 170 147 85 116 85 118 158 166 127 137 153 138 145 146 129 95 86 87 63 46 58 72 79 77 92 91 85 77 81 83 84 89 87 69 57 54 47 39 33 26 25 30 41 57 61 54
230 193 202 183 140 121 83 96 81 97 144 113 152 168 161 187 146 109 84 62 81 53 43 57 84 95 101 101 104 103 94 99 95 96 91 88 83 73 66 56 46 46 38 37 47 64 62 51 60
193 151 183 158 140 103 67 62 80 62 77 102 134 161 195 157 139 105 86 81 74 81 72 77 86 114 117 124 120 119 115 107 104 104 104 111 95 80 70 64 62 62 61 58 61 65 69 62 82
154 184 122 113 123 58 43 28 21 38 53 92 157 185 215 210 148 98 102 114 115 90 83 81 85 131 137 150 141 145 122 118 104 114 114 122 107 85 82 76 77 73 76 70 74 77 83 88 96
90 96 126 108 77 38 10 10 26 20 47 73 103 154 190 205 185 158 121 110 118 116 90 105 114 155 164 161 167 158 139 128 122 120 126 127 123 105 93 92 80 79 76 83 88 86 95 108 103
184 97 103 83 62 62 -13 9 63 52 74 80 95 111 162 166 157 153 145 114 109 129 160 162 179 189 187 177 172 161 157 151 136 124 127 143 140 123 109 106 98 80 82 92 112 115 126 139 135
127 128 109 99 88 87 58 20 -31 30 57 72 70 52 101 133 138 136 159 142 133 158 182 197 204 198 214 205 213 194 194 178 156 143 130 133 144 137 122 116 100 101 107 110 129 144 158 155 134
153 141 160 172 67 112 113 9 -4 56 51 71 88 88 61 77 126 137 133 126 127 138 151 175 218 233 235 233 241 222 197 193 173 155 142 131 146 136 142 122 101 136 133 138 171 177 175 161 144
206 169 142 103 109 115 117 74 34 45 44 32 83 95 73 38 51 103 90 118 128 143 155 172 225 218 238 263 243 210 196 183 190 153 146 146 150 149 153 136 137 168 179 181 200 217 205 160 152
150 153 141 132 123 102 57 10 13 48 49 49 60 46 37 38 49 73 100 104 136 150 201 205 243 229 279 283 244 210 187 192 187 192 169 193 167 185 143 150 160 200 216 200 217 248 217 200 185
175 161 142 157 130 79 72 9 20 44 43 56 77 87 63 49 49 61 90 102 117 148 155 194 208 224 274 288 272 271 206 193 196 214 216 227 225 226 202 187 189 217 242 248 276 291 267 223 183
247 145 111 105 107 55 36 -21 46 52 51 67 61 51 63 22 24 32 40 68 90 124 131 137 115 157 244 273 312 404 352 312 234 212 221 230 253 271 231 260 256 231 259 267 293 309 294 278 214
122 83 61 60 85 94 105 30 91 77 129 119 179 220 191 160 112 109 130 149 143 130 124 142 135 118 156 215 297 302 292 279 275 265 242 266 328 293 288 284 277 287 293 299 355 366 339 270 232
39 53 66 63 60 64 92 62 93 118 158 214 265 210 175 136 199 217 177 154 165 167 145 146 142 151 136 174 196 222 230 258 298 261 244 273 336 328 325 300 336 345 344 353 369 383 345 294 276
57 129 103 73 48 97 80 92 95 116 184 200 167 204 224 221 236 226 187 175 173 169 170 164 157 145 155 163 174 190 182 257 311 312 309 334 366 392 362 338 332 369 384 389 381 369 334 313 280
92 93 111 133 152 96 87 86 63 119 91 97 98 171 179 151 184 182 194 184 172 177 159 135 142 152 123 107 126 145 165 234 231 255 263 299 322 362 341 372 410 406 412 389 406 372 358 323 295
120 67 76 124 114 102 73 93 80 97 72 53 72 82 63 84 61 78 102 128 130 118 120 127 140 135 112 105 89 88 105 164 186 211 230 252 265 269 367 406 408 447 448 432 415 398 362 333 308
80 113 83 62 95 103 70 75 49 46 71 86 124 96 64 40 12 -0 13 22 54 87 95 71 90 106 108 98 87 86 86 113 129 156 215 268 286 315 320 388 477 428 402 399 387 393 371 365 400
83 54 90 107 82 99 79 76 53 77 125 134 114 80 36 3 -0 1 10 12 19 25 44 76 89 97 120 134 127 129 116 118 146 194 220 286 318 314 328 383 422 437 416 382 382 375 388 417 436
111 93 95 79 65 63 85 65 31 60 25 59 12 -17 -69 -50 -24 -3 5 1 -2 27 65 90 128 174 210 193 171 160 148 138 148 185 235 271 296 294 303 324 357 372 392 381 393 403 426 437 445
54 37 61 58 48 55 39 56 73 112 82 -17 -54 -13 -3 -4 -16 -21 -8 24 43 67 61 105 181 206 219 227 213 196 155 119 159 196 235 239 246 246 279 316 352 386 404 408 418 454 457 419 395

GFSSGP_con_3kmhel_063.txt.gz
Helicity
90 87 79 99 93 110 94 92 91 111 134 105 105 90 125 128 93 95 25 30 64 63 42 28 23 3 -9 10 41 43 68 79 73 68 76 80 75 69 72 70 49 31 21 -1 21 35 49 37 32
109 110 130 105 96 88 80 70 84 75 123 179 101 81 119 129 55 55 47 25 55 71 51 32 39 21 -1 14 45 42 48 58 66 57 55 62 56 55 60 44 26 18 7 -4 -18 35 52 21 16
142 154 135 109 90 76 55 49 86 83 97 117 133 72 110 130 53 22 17 20 66 60 49 36 43 27 13 26 22 22 56 59 46 36 36 31 27 32 34 30 23 21 32 -8 3 31 69 41 26
183 207 184 126 85 79 65 49 62 114 91 103 142 153 91 28 38 22 29 37 41 69 55 52 41 35 37 34 23 31 35 37 44 39 31 22 16 23 31 20 22 77 40 18 38 77 70 45 38
239 222 171 122 79 62 72 54 70 127 104 112 116 140 122 47 27 27 47 53 65 75 58 50 56 45 49 44 18 16 26 33 42 44 37 18 22 26 30 10 17 53 70 68 60 59 53 44 36
269 240 179 122 76 50 60 52 49 35 30 107 95 103 101 48 37 23 28 53 60 57 63 61 70 57 47 39 17 -4 21 20 54 47 30 24 23 27 29 21 26 21 43 39 38 37 35 30 28
236 253 162 127 59 65 48 57 73 69 75 77 80 101 118 84 26 22 28 49 70 59 59 59 51 49 36 28 25 31 25 36 56 52 41 40 33 23 26 25 23 22 26 21 28 31 31 30 30
225 220 138 136 71 58 29 58 43 32 68 62 68 118 132 122 38 48 53 69 64 62 52 54 51 47 41 42 47 36 37 31 43 49 55 73 54 33 29 23 17 14 20 21 20 26 32 34 34
237 236 158 118 98 82 59 69 82 82 96 100 87 132 131 71 76 81 75 70 69 52 38 59 62 50 54 51 45 57 60 37 61 71 83 75 46 44 44 35 34 36 27 28 33 38 49 52 49
281 215 148 157 128 92 67 55 82 115 137 129 131 136 85 38 76 92 65 53 61 40 25 47 48 52 59 57 48 53 61 50 56 63 72 63 63 58 55 54 54 53 50 42 45 51 61 43 36
243 187 196 159 139 132 100 110 117 107 116 120 152 153 102 104 107 102 84 48 47 40 49 33 27 33 52 54 63 69 73 68 69 71 83 78 84 78 69 68 61 60 58 55 58 60 47 44 41
200 179 162 191 144 152 121 104 123 102 87 89 118 145 108 107 143 99 78 60 59 41 36 43 46 46 51 65 71 70 76 73 74 77 86 94 93 84 76 76 74 73 68 69 69 67 60 50 57
155 161 150 164 152 112 104 78 74 77 73 89 95 142 148 125 131 125 108 90 57 57 46 50 61 47 57 71 75 76 74 72 72 83 82 88 88 81 82 79 80 84 85 80 82 78 76 72 76
98 107 133 112 90 87 63 54 44 62 62 63 90 111 144 145 143 159 127 98 70 76 65 84 77 73 66 82 84 72 81 74 88 88 88 85 88 86 85 81 84 87 86 91 88 83 85 89 87
148 82 110 84 95 84 41 23 25 51 69 56 60 98 114 138 154 142 138 107 80 80 80 71 82 100 88 99 103 102 91 83 93 93 89 97 92 88 89 86 88 85 91 99 106 108 106 108 98
133 154 92 98 90 110 73 24 -2 63 32 67 75 94 97 106 122 123 117 114 115 89 77 78 114 134 142 131 144 132 110 99 96 96 101 103 101 94 92 95 86 87 104 108 115 125 121 126 117
136 126 118 181 70 105 82 6 -9 99 39 87 100 94 93 106 115 92 91 118 132 118 99 91 97 119 158 131 160 149 128 126 123 128 116 106 103 101 102 99 82 93 114 115 128 146 143 139 127
168 179 130 108 104 109 95 73 104 109 59 66 81 76 74 74 103 123 105 112 117 131 127 135 147 130 136 168 169 180 182 153 158 157 135 130 115 117 110 95 81 111 130 141 149 158 165 148 155
95 134 128 107 119 115 81 52 52 57 45 46 57 70 77 73 84 111 141 152 156 154 173 161 193 162 204 238 219 174 200 185 161 156 128 138 147 142 119 115 91 121 148 160 146 192 176 199 194
82 153 153 168 150 106 93 66 49 56 67 63 65 79 74 65 74 83 110 138 168 164 167 183 194 211 241 268 233 239 174 174 164 155 134 133 146 174 168 150 152 141 169 167 194 238 260 234 208
133 126 164 141 138 104 65 12 51 69 89 117 125 100 100 94 79 90 98 104 137 142 143 169 187 182 211 255 275 291 274 244 188 171 163 162 188 224 218 202 209 193 202 223 234 254 271 304 237
206 167 128 116 127 123 109 96 113 91 158 206 241 222 223 219 162 139 156 165 179 178 181 172 156 186 181 188 249 276 275 225 224 214 194 173 186 216 237 237 249 251 261 254 274 288 304 349 324
173 198 126 136 140 129 125 73 145 140 193 200 288 289 269 237 212 244 246 235 212 216 198 178 173 150 154 147 133 177 197 241 252 243 184 196 217 212 228 237 277 291 322 280 313 325 314 333 329
15 131 196 131 132 145 145 123 164 149 155 159 206 249 244 223 187 178 177 171 174 168 173 186 202 196 183 171 143 129 129 145 181 202 188 180 211 248 259 276 273 280 302 313 339 346 318 336 326
69 111 155 147 191 128 106 104 112 120 133 96 146 196 189 152 160 172 175 168 167 164 152 136 150 185 215 205 175 141 117 128 151 160 181 167 223 240 228 271 293 296 289 298 342 359 334 344 343
89 64 111 124 112 100 89 106 99 109 46 65 126 114 86 82 79 92 107 111 121 125 114 122 133 147 143 163 178 164 150 153 159 162 189 196 195 185 181 216 233 258 286 333 345 353 339 353 364
87 72 56 82 104 100 83 91 82 89 115 116 85 51 56 43 32 42 61 61 61 96 115 116 117 104 128 141 146 163 164 155 148 141 148 162 177 212 191 179 221 241 259 290 334 362 353 347 369
74 69 80 83 97 122 104 98 73 67 126 112 99 67 38 16 7 3 7 17 17 38 52 95 118 119 115 148 153 164 183 184 167 152 135 123 133 134 138 157 208 268 293 296 336 361 349 383 394
86 91 91 90 88 103 149 106 49 41 75 123 104 32 -11 -2 -2 3 31 39 40 32 38 63 84 138 187 197 197 223 236 238 218 200 187 163 152 146 148 188 211 212 294 331 354 371 378 419 429
63 72 79 87 80 61 79 99 46 45 76 125 67 -10 -20 -21 -0 25 18 18 29 68 110 117 112 123 169 200 208 220 221 202 190 175 155 152 161 170 181 200 224 243 288 322 364 379 396 443 506

GFSSGP_con_3kmhel_066.txt.gz
Helicity
72 80 73 65 69 81 84 81 98 86 79 110 90 78 136 202 153 90 45 61 58 67 52 33 17 1 -16 3 16 36 53 62 68 51 50 67 64 63 60 46 35 27 15 11 36 48 30 28 29
88 96 96 97 98 66 70 62 67 78 115 179 99 72 82 155 92 82 16 45 53 72 46 37 18 6 -2 -5 8 46 57 60 55 48 42 42 41 36 44 31 11 2 2 -6 36 60 32 12 15
119 126 114 109 80 71 76 47 78 102 107 142 148 96 121 135 69 58 30 36 57 60 33 46 26 18 23 14 7 26 45 50 48 45 35 30 27 33 32 24 14 10 19 1 18 64 44 21 23
162 161 160 103 43 45 51 61 78 77 75 111 160 138 83 65 80 38 21 30 44 49 31 66 36 25 31 19 -1 7 26 44 41 37 26 6 9 14 16 18 18 36 27 17 38 70 47 25 24
226 193 122 74 44 36 48 54 42 89 118 117 164 160 129 52 32 25 19 24 41 46 52 41 47 33 28 30 21 17 25 38 29 30 17 -1 -2 10 12 -6 34 34 43 56 68 48 39 24 26
233 193 139 72 38 33 30 41 47 109 106 107 119 129 105 52 38 35 10 18 35 48 55 56 47 38 22 30 11 -3 15 38 36 36 29 8 2 9 4 -7 31 41 44 58 48 32 25 21 25
187 161 87 69 28 36 28 34 52 58 90 86 85 108 102 74 48 42 22 22 40 43 42 47 43 43 43 37 15 21 5 47 60 44 27 26 24 15 7 6 1 11 35 38 32 26 23 24 25
167 171 89 78 58 39 22 43 59 53 66 58 65 88 97 111 42 39 35 19 34 40 39 42 42 40 33 31 33 43 37 43 64 49 55 64 55 30 17 2 18 25 21 27 27 23 26 31 34
249 184 112 65 49 41 92 33 48 90 70 63 65 103 118 88 46 70 56 41 41 37 32 45 44 41 42 41 51 56 55 60 39 66 88 61 24 32 45 33 39 32 42 37 31 34 47 49 48
204 164 96 85 73 78 25 22 41 72 69 60 66 88 90 65 82 81 74 57 32 38 41 39 46 53 47 51 45 23 39 20 28 53 50 26 43 49 48 63 57 57 54 51 50 55 53 15 36
192 153 137 139 120 100 48 43 75 74 69 64 62 106 102 86 91 88 62 49 33 29 37 37 39 44 53 56 48 43 41 39 36 32 38 44 61 69 58 69 62 57 49 49 45 56 32 35 36
190 143 283 135 133 145 99 93 89 91 118 110 132 159 137 94 89 108 76 60 49 33 35 29 33 30 27 43 40 41 45 50 48 45 41 56 63 68 67 66 71 69 68 68 55 55 54 50 47
127 121 115 159 157 170 126 90 82 88 87 115 147 143 132 139 83 108 117 99 77 68 45 35 34 36 29 36 41 41 43 52 43 47 44 60 64 62 69 71 77 76 80 77 73 68 67 57 60
78 129 127 135 128 133 112 77 88 70 83 82 93 111 114 111 129 117 96 94 84 75 62 44 42 52 43 38 37 45 45 46 49 50 49 49 60 61 69 72 76 85 85 86 81 79 79 78 74
140 73 85 124 115 101 86 65 37 74 71 76 70 83 96 86 105 119 114 107 93 73 68 66 54 59 59 38 44 42 50 52 55 56 49 50 54 58 69 73 84 83 90 87 91 96 91 94 96
74 120 57 46 70 126 83 51 48 45 28 61 67 73 89 85 95 112 119 123 106 96 95 76 67 62 58 62 60 69 77 66 61 60 65 56 53 60 75 90 94 83 94 98 95 96 102 100 102
76 62 52 45 62 88 68 88 54 121 56 101 70 63 71 73 82 91 103 121 135 105 88 80 66 61 66 74 104 101 93 83 76 74 69 65 59 66 81 91 95 92 103 105 95 97 100 116 113
90 87 74 67 123 64 63 49 38 55 119 90 100 96 78 81 80 106 117 101 104 109 108 96 90 74 67 101 136 166 160 123 93 90 92 91 92 85 95 89 80 100 119 107 109 107 116 111 122
87 48 46 79 83 73 64 49 40 89 93 78 72 75 74 69 103 124 130 134 127 152 161 142 125 91 107 150 185 186 185 166 173 155 93 93 101 95 98 99 87 95 115 120 120 119 135 155 163
54 34 31 114 87 114 56 42 25 31 51 67 81 84 85 93 83 107 113 128 141 147 155 172 175 155 150 172 166 161 153 175 153 147 123 106 91 92 125 113 120 112 117 124 139 159 191 167 188
60 59 65 116 107 119 97 53 35 68 91 78 85 92 96 102 107 115 142 153 163 167 190 211 210 202 199 184 197 217 224 221 197 206 168 136 118 106 117 124 151 154 159 183 177 196 201 239 203
128 118 93 95 105 152 123 105 86 94 108 109 124 148 152 148 146 151 172 192 204 199 199 199 218 222 227 223 243 242 253 263 253 209 167 149 118 141 122 123 144 177 235 235 254 275 249 253 266
95 118 137 134 141 147 127 163 77 79 95 136 177 194 196 185 174 184 193 194 198 217 225 198 177 176 171 173 176 174 159 162 157 156 159 137 131 139 155 153 152 177 220 208 257 320 297 314 282
132 258 217 166 159 138 125 187 83 108 111 133 193 226 220 197 178 166 163 163 164 151 145 147 156 168 196 193 180 149 121 116 135 131 131 133 145 166 158 187 196 215 239 206 248 266 291 335 323
235 250 244 206 169 177 155 152 183 129 153 142 183 199 204 185 170 155 156 146 147 149 141 123 124 122 125 134 155 164 140 123 122 110 116 111 134 172 163 155 173 215 239 264 256 260 272 324 338
91 277 225 181 158 180 150 168 150 116 126 142 159 151 135 130 117 127 134 123 106 102 103 116 132 131 123 123 129 128 136 153 158 155 169 170 161 147 128 139 145 155 177 229 251 269 262 273 318
74 154 151 158 168 150 128 103 104 130 127 125 123 105 94 79 66 66 71 77 77 98 107 107 113 128 149 154 155 160 156 144 139 138 149 163 166 176 157 151 144 173 195 218 231 270 263 250 323
73 54 88 128 125 123 79 93 77 106 139 115 100 82 56 51 47 35 33 47 65 80 98 123 150 161 169 191 189 192 195 184 170 161 159 153 154 149 136 141 139 158 187 210 233 280 301 305 340
72 74 77 89 107 102 101 73 57 66 117 147 133 85 52 45 34 23 34 47 62 80 107 137 164 168 175 196 218 236 250 266 261 260 246 222 190 158 133 123 122 110 123 168 248 321 355 360 394
65 59 64 107 71 94 111 79 54 83 97 132 122 72 19 7 3 -1 27 42 66 97 113 117 123 134 140 145 177 208 225 226 223 214 204 189 172 143 123 109 124 141 155 174 219 280 318 356 387

GFSSGP_con_3kmhel_069.txt.gz
Helicity
66 58 73 80 80 81 97 73 63 63 54 88 119 94 103 115 58 72 51 89 75 82 73 49 41 9 9 -2 14 34 38 45 50 52 33 38 35 30 26 22 19 12 5 22 30 27 26 28 23
85 62 81 90 109 94 80 43 43 67 101 88 85 49 71 119 84 45 2 50 61 83 65 42 38 9 13 1 21 40 38 43 54 51 38 34 26 22 25 12 5 4 -5 11 44 35 19 15 8
103 92 100 118 64 93 100 19 35 51 90 99 114 100 66 87 72 90 64 37 50 77 45 72 40 2 21 11 17 30 30 40 44 39 39 32 25 37 21 4 9 -3 8 17 44 44 29 20 10
129 134 136 111 61 36 78 42 41 51 71 90 141 128 84 99 99 69 25 33 54 78 53 77 55 24 34 16 12 17 28 37 42 37 31 18 14 15 9 -1 16 44 43 29 54 53 38 24 15
151 100 113 39 46 50 29 45 54 64 45 80 119 93 101 82 50 28 13 22 50 53 102 68 68 50 38 31 21 15 26 35 32 36 20 -1 -0 10 22 22 37 25 34 51 61 46 35 24 20
225 145 92 79 24 41 32 54 42 82 56 83 107 127 79 31 35 33 13 15 38 76 73 76 73 62 36 36 24 8 18 25 26 25 29 2 3 6 16 17 40 46 60 64 48 36 25 17 21
161 143 85 85 50 18 28 50 55 55 58 53 104 159 61 51 64 35 22 31 32 89 68 65 54 57 37 36 25 16 8 38 40 49 35 33 26 14 15 21 42 54 53 55 44 32 26 22 27
142 160 96 85 74 55 21 39 42 59 54 39 95 123 77 92 75 82 37 35 39 48 62 37 57 55 52 44 38 28 27 37 47 60 64 60 51 32 23 17 25 37 44 34 22 20 21 26 28
155 184 122 81 61 61 48 48 57 80 73 61 48 110 94 76 72 85 80 49 85 40 38 55 32 57 34 38 52 64 47 53 63 69 89 52 19 27 47 31 66 40 46 30 29 30 35 40 35
203 165 98 95 58 61 101 145 47 80 81 67 65 94 92 45 67 94 92 86 83 42 17 37 37 50 59 66 61 39 44 35 28 37 48 26 33 33 36 76 74 62 65 49 41 48 45 19 37
158 150 113 105 134 142 105 98 61 45 85 66 55 51 65 84 79 95 94 89 72 42 50 38 49 65 68 72 57 37 40 41 36 48 38 20 55 77 61 66 66 60 61 53 55 58 39 33 38
146 95 202 80 97 224 109 51 52 69 68 62 88 168 111 89 78 87 88 80 81 52 42 51 37 46 53 65 51 51 50 46 44 48 42 47 56 63 50 58 59 60 77 53 54 57 46 56 54
79 156 168 262 88 134 88 63 66 54 96 167 159 153 106 123 80 91 99 87 66 69 51 54 31 50 41 45 54 53 50 56 52 64 55 59 67 57 49 58 61 66 75 70 71 64 79 66 72
97 165 114 165 111 150 96 81 115 105 109 72 80 85 94 113 132 83 96 115 104 94 82 68 64 78 50 52 57 60 55 51 52 65 64 56 64 74 67 76 77 74 77 78 84 89 97 84 82
157 78 177 119 125 119 131 92 61 97 86 68 54 66 85 106 117 123 103 91 77 80 77 67 62 56 55 54 81 65 69 63 55 57 62 61 62 78 79 79 107 87 79 76 100 109 112 101 103
82 132 105 87 118 103 110 89 14 13 65 72 65 68 73 75 70 88 111 122 117 109 64 75 88 85 70 62 67 85 69 67 59 63 60 58 58 72 83 94 99 107 80 100 124 124 125 117 121
101 99 87 36 19 93 80 76 54 71 53 56 59 55 73 75 63 57 87 111 112 127 138 126 94 90 86 77 91 78 67 72 74 94 88 69 57 64 88 102 102 107 149 130 134 134 133 132 138
92 82 44 71 37 41 50 102 114 140 106 95 95 87 86 77 64 61 66 89 96 105 116 109 116 106 86 108 143 128 129 92 98 105 116 95 93 78 110 111 105 120 159 174 145 143 148 139 140
98 44 110 15 107 76 60 57 67 56 64 85 99 68 72 92 79 76 83 142 123 126 134 131 133 122 125 129 146 171 172 154 135 139 113 115 118 104 104 120 114 132 138 196 150 152 149 153 165
170 115 75 96 114 92 86 57 56 62 50 63 79 96 89 88 97 112 84 101 115 91 104 141 144 118 118 134 158 127 133 168 171 187 173 156 138 148 151 133 138 135 159 165 182 143 196 181 213
144 148 106 97 85 100 195 95 79 41 49 79 94 78 96 122 114 95 106 94 114 129 130 140 129 147 142 156 174 152 97 128 153 203 184 153 151 179 182 184 184 161 161 176 204 192 210 239 247
130 163 76 90 82 128 59 146 -21 36 56 64 57 62 82 72 86 101 124 127 132 174 205 212 239 233 217 221 239 251 232 221 240 207 185 165 157 144 179 179 182 181 189 188 197 232 267 281 286
157 171 96 59 98 120 62 194 45 64 61 78 99 110 120 129 137 130 139 152 158 162 166 163 155 156 164 197 222 251 262 266 217 191 148 152 121 108 140 162 176 173 207 190 212 222 271 312 307
154 152 164 153 152 164 68 135 73 33 75 97 117 118 148 155 143 139 146 159 168 172 174 170 157 140 134 144 152 168 188 181 178 156 147 134 146 157 121 127 131 169 216 228 242 261 280 315 300
171 151 203 187 174 175 150 139 208 133 122 92 97 144 178 161 149 144 138 131 136 145 145 132 133 123 113 105 92 108 139 145 147 144 138 133 151 163 160 132 121 141 183 237 259 248 307 316 331
302 176 218 209 168 128 113 155 142 113 120 189 167 164 157 155 137 128 120 113 101 103 110 116 115 110 114 112 111 107 113 135 159 144 155 170 164 161 134 138 130 132 144 183 235 268 284 297 269
294 213 151 227 266 173 132 158 97 99 129 117 138 136 136 125 98 93 87 86 84 82 83 96 115 120 131 142 145 147 141 137 136 144 147 152 162 192 228 172 147 149 154 162 186 236 264 285 267
211 166 232 249 124 130 80 91 103 104 126 137 126 111 104 87 74 70 62 60 68 85 97 105 121 131 142 171 196 214 225 229 227 206 206 212 199 203 194 172 178 156 142 149 171 222 252 313 384
91 131 173 200 228 198 79 114 99 45 98 128 127 117 95 77 72 56 37 33 55 76 101 116 134 148 160 166 166 184 210 224 235 251 260 250 223 220 192 166 145 135 131 140 202 236 277 329 350
77 93 66 89 59 94 123 56 39 64 139 177 149 104 65 58 44 20 14 22 40 70 99 123 140 143 136 136 140 163 180 214 243 253 262 264 271 274 269 231 189 173 150 147 140 156 180 203 243

GFSSGP_con_3kmhel_072.txt.gz
Helicity
50 42 91 164 139 109 116 130 53 114 112 102 143 152 180 128 80 77 99 111 167 92 83 68 67 33 18 17 28 29 30 34 34 36 39 30 27 28 28 24 22 14 17 18 27 18 24 22 21
151 59 90 132 176 168 120 107 38 70 94 148 90 41 90 121 18 58 47 88 113 93 70 67 61 30 18 17 27 34 30 31 50 44 28 15 17 17 20 17 9 8 11 41 38 21 16 8 8
276 81 121 113 159 183 152 37 43 33 84 66 53 72 66 103 140 45 61 41 100 96 51 71 60 33 26 28 18 14 13 36 44 47 36 23 22 27 13 9 0 -2 5 48 45 30 22 15 15
248 180 114 218 214 89 124 22 77 79 70 57 103 107 111 153 109 83 22 54 97 42 146 83 61 55 49 34 25 4 25 34 42 30 20 7 8 6 15 8 5 14 9 49 59 43 34 22 18
234 273 137 226 225 132 63 27 80 149 27 20 70 93 110 106 57 47 11 62 93 173 134 85 67 71 52 35 17 20 2 28 35 19 -4 -6 -5 11 11 26 12 29 39 72 63 46 34 20 18
208 203 118 100 110 121 43 44 61 64 43 75 70 138 88 28 55 33 23 35 140 136 111 94 87 70 63 49 38 21 6 13 31 11 19 9 4 12 5 23 35 54 73 64 55 43 33 19 16
172 204 107 68 63 55 78 54 68 64 79 69 93 181 45 103 65 34 6 61 164 129 58 119 97 72 62 56 42 31 11 15 31 50 48 54 24 23 37 32 60 57 62 60 47 37 27 23 21
186 187 63 47 28 11 20 -8 89 71 124 25 72 134 113 91 92 52 80 62 93 71 55 84 94 78 68 58 52 42 25 20 38 62 68 52 39 38 37 42 72 62 64 57 40 34 27 24 22
137 219 96 85 74 52 48 45 113 102 105 29 71 76 79 82 105 113 59 61 109 49 48 67 69 79 80 76 67 64 52 44 44 63 74 48 25 26 42 28 67 77 63 52 44 40 42 42 31
234 178 96 94 118 94 47 82 189 130 137 82 66 91 49 65 63 88 72 122 102 66 33 60 41 48 15 33 92 100 86 76 60 51 44 31 25 29 37 77 67 75 80 54 53 56 52 41 36
169 130 60 124 109 65 71 48 67 99 99 110 92 94 75 30 60 108 125 165 126 67 85 28 -19 -6 20 157 74 71 66 60 55 72 31 -9 66 100 110 89 81 89 83 62 67 66 40 17 22
132 65 144 138 30 81 164 167 211 154 81 70 84 85 155 100 51 82 115 134 110 64 103 111 123 110 113 135 83 44 60 32 53 96 51 3 103 102 84 89 78 77 71 59 71 70 50 36 56
89 133 93 168 182 153 161 205 203 180 110 82 132 226 210 54 68 61 67 74 95 102 72 70 130 126 90 123 79 61 75 94 58 80 78 42 126 119 63 98 78 58 97 43 79 70 58 64 76
131 87 208 130 144 192 225 184 157 92 133 72 84 151 184 147 145 90 92 103 109 75 89 82 79 154 123 121 95 64 95 93 76 89 97 106 131 115 72 83 96 76 113 58 105 72 111 139 99
120 137 129 216 203 147 178 162 86 96 134 130 57 71 96 84 102 147 73 89 99 141 115 82 86 82 54 76 74 93 107 102 91 93 96 91 112 108 96 118 128 124 102 101 114 110 142 170 132
131 133 150 110 183 174 173 117 98 69 113 183 111 78 72 69 72 76 122 73 63 81 89 101 95 99 72 52 131 132 118 113 115 96 94 97 89 108 115 114 142 145 134 127 125 147 167 190 185
154 131 145 130 95 211 139 68 48 63 95 79 78 87 101 68 58 64 80 112 134 139 135 59 113 111 116 99 93 129 111 119 123 116 112 100 93 113 138 126 114 152 127 117 141 160 193 229 220
132 132 87 116 64 70 104 98 177 141 88 83 92 66 78 79 72 74 64 74 125 144 164 161 146 140 117 138 121 125 152 156 137 118 130 125 150 147 163 153 145 140 193 156 197 186 186 228 205
100 91 93 46 74 -10 53 72 106 157 130 75 107 152 106 86 83 73 78 91 92 129 123 138 172 167 184 162 221 203 151 118 123 157 133 141 167 194 185 189 164 170 188 234 215 215 203 220 238
59 76 74 62 133 94 46 70 85 83 104 94 84 117 116 123 90 87 127 137 154 188 183 167 173 168 171 199 221 231 201 161 137 137 161 188 206 210 245 231 213 188 207 271 242 238 254 233 262
152 92 102 112 131 159 140 122 86 78 93 88 92 94 118 143 165 216 242 189 165 170 183 168 148 152 179 162 190 237 197 167 171 160 152 118 167 216 225 241 243 227 230 229 286 266 259 248 273
86 63 120 75 173 127 112 104 81 96 127 102 109 106 63 86 95 133 146 119 129 163 186 189 210 233 256 245 226 257 234 227 200 164 135 139 142 155 165 243 237 248 245 235 246 290 295 351 316
127 185 157 127 121 118 89 171 135 86 109 167 110 106 170 141 115 137 124 91 85 117 146 161 154 162 195 245 282 271 291 272 209 200 139 115 114 109 117 147 198 223 231 223 209 242 277 312 396
165 254 182 78 136 142 107 137 145 146 143 148 163 189 138 113 129 112 112 103 115 150 167 184 162 162 162 159 161 163 161 193 250 262 235 161 122 140 157 123 108 150 201 226 188 194 231 278 347
122 107 278 277 222 138 94 129 153 111 82 137 197 157 151 131 131 127 145 132 143 151 175 168 188 165 171 161 130 125 127 150 177 223 199 165 153 153 148 146 125 144 141 174 207 208 241 267 325
148 215 220 166 198 200 276 156 144 211 190 144 151 170 134 151 149 149 141 133 111 114 122 133 139 133 138 146 146 142 122 118 140 179 202 181 170 173 155 170 177 151 144 148 154 186 218 238 267
177 167 121 225 149 193 161 171 232 217 225 243 190 129 142 152 139 139 125 120 115 114 103 104 121 108 106 125 129 158 168 172 166 177 190 213 224 235 252 262 210 161 141 131 131 162 186 230 267
128 186 103 92 222 164 96 115 124 111 192 165 149 122 147 140 119 107 100 92 102 94 98 99 110 108 110 117 116 137 157 166 180 211 238 261 263 261 240 222 212 215 202 184 173 165 178 219 270
139 253 207 188 141 176 81 101 73 84 169 128 133 148 146 133 127 104 89 75 65 65 82 93 110 114 131 150 157 206 231 231 246 246 251 262 290 269 294 251 248 233 221 196 159 164 183 203 227
81 132 194 155 156 160 123 73 69 72 85 164 195 154 135 124 106 84 77 55 52 57 84 93 114 120 139 161 167 205 220 243 241 243 242 247 244 248 260 266 241 226 205 193 199 212 220 222 235

GFSSGP_con_3kmhel_075.txt.gz
Helicity
261 85 32 80 167 169 168 146 159 138 159 147 111 92 130 134 130 89 87 26 137 112 65 54 58 49 41 47 45 45 39 33 27 28 32 27 28 26 25 24 22 22 31 27 13 23 23 21 21
180 159 76 97 189 226 181 77 194 151 49 126 137 123 138 154 66 52 87 69 114 126 77 48 55 44 35 33 36 35 32 28 23 16 18 18 12 12 16 12 16 17 42 34 20 16 13 10 10
166 234 129 124 195 186 178 121 91 58 91 97 121 70 107 151 78 37 99 97 85 128 82 41 54 45 39 25 17 16 20 30 30 36 27 16 29 21 7 4 15 19 49 41 30 22 14 13 10
205 298 265 230 298 163 135 95 47 118 151 109 77 132 125 124 55 15 126 153 74 97 87 56 54 58 44 26 9 -6 15 44 36 30 21 21 12 10 15 5 2 19 45 47 44 30 17 14 5
259 243 246 147 223 143 16 -62 82 84 83 74 81 155 136 120 58 42 158 92 103 91 95 74 60 72 55 35 21 12 7 19 24 14 -1 -6 3 8 5 7 33 28 55 61 58 32 22 12 -2
301 290 291 158 92 170 -44 -0 88 47 42 59 107 101 116 59 67 52 152 168 119 106 100 87 84 77 67 39 33 17 7 23 26 31 18 6 11 7 11 6 13 50 71 60 54 36 29 14 -0
212 287 139 111 74 124 91 51 157 61 60 68 75 160 128 81 17 82 148 186 186 142 121 103 91 77 71 60 43 28 31 8 10 34 50 24 22 16 24 15 54 69 63 63 52 42 33 19 7
261 188 105 122 99 86 175 80 78 69 76 120 85 135 127 73 39 127 144 158 131 103 93 98 106 78 61 64 56 30 20 22 36 36 52 45 38 38 27 49 76 69 75 74 50 43 36 28 13
171 250 125 107 93 96 77 153 60 30 57 137 132 79 92 113 123 142 145 121 86 65 60 85 98 85 95 91 76 61 55 46 50 60 64 46 27 31 40 48 74 74 81 74 58 56 53 45 28
208 175 115 83 80 60 48 41 25 95 164 133 151 164 117 87 107 141 108 124 85 41 29 62 76 84 98 87 76 63 78 75 65 55 44 45 32 30 40 45 65 80 84 63 59 65 66 56 36
199 111 79 86 83 68 -19 -45 37 185 174 107 40 69 80 86 91 122 134 105 101 60 31 50 54 54 90 107 99 98 127 93 75 70 72 46 36 22 49 62 52 56 77 54 58 67 62 58 58
174 82 138 72 147 91 61 -30 -32 128 132 17 62 69 110 50 62 103 153 140 142 123 86 83 39 20 84 105 97 76 100 89 97 63 44 62 68 74 93 87 78 88 73 57 57 56 51 55 59
96 159 76 106 216 186 179 115 122 59 90 91 119 135 115 61 19 61 86 85 83 109 89 73 84 69 120 132 83 67 63 67 84 81 54 67 110 106 113 94 91 82 76 72 55 55 53 52 66
101 91 106 151 73 102 128 143 179 112 135 153 96 185 193 119 56 44 74 79 84 81 64 74 112 153 153 145 103 85 96 49 87 121 59 53 119 110 125 108 85 55 66 50 69 67 66 60 74
132 123 112 162 129 151 102 149 123 154 167 202 234 78 124 160 99 60 57 67 108 85 70 81 121 153 176 163 113 96 91 103 101 103 98 93 135 143 114 125 97 76 59 66 59 62 86 93 88
126 149 167 112 163 193 129 63 114 141 182 174 212 229 89 86 87 63 26 64 70 115 88 79 89 116 127 155 154 85 110 122 107 125 115 117 129 138 127 114 130 111 124 110 126 128 127 138 157
164 125 133 178 124 200 165 89 102 76 97 105 160 179 155 126 73 60 64 42 56 80 152 107 83 98 75 111 126 152 140 126 130 128 131 108 106 118 130 128 127 148 170 158 146 145 173 179 189
126 166 173 159 116 163 162 102 192 163 137 117 107 94 80 63 102 52 50 71 81 71 80 157 161 114 88 95 112 140 158 169 141 141 127 113 114 119 136 139 147 162 161 151 176 162 174 192 208
171 179 160 82 142 139 103 105 104 127 144 116 123 87 87 55 59 68 59 57 90 143 131 91 129 149 159 174 133 147 171 159 147 151 130 126 145 139 150 156 166 198 190 175 185 206 195 199 240
113 114 92 131 37 90 100 60 69 90 134 125 66 91 84 139 211 228 195 194 224 212 236 237 183 169 158 163 165 178 163 138 155 152 155 178 195 182 208 219 196 213 238 216 209 272 292 248 277
97 118 114 134 165 193 122 113 106 98 88 127 110 96 101 123 164 216 253 256 263 260 245 255 247 237 221 178 183 228 214 227 205 164 137 159 196 206 235 218 228 245 264 266 259 270 337 312 341
91 77 74 143 131 145 140 82 110 101 68 90 115 128 114 109 113 140 167 191 189 179 162 165 192 204 209 262 255 253 269 230 199 182 150 141 165 172 215 212 225 207 258 287 265 281 319 429 340
102 117 131 66 51 123 159 112 84 81 104 77 135 138 112 100 142 128 93 90 102 115 132 161 153 162 170 200 241 276 260 238 214 202 172 131 114 118 127 150 170 203 222 229 226 232 238 276 308
133 179 170 91 130 130 130 161 57 122 67 162 219 183 150 158 138 114 119 129 153 178 203 219 212 255 235 183 183 193 206 215 210 199 152 136 105 73 66 86 111 136 170 162 183 208 226 247 253
128 172 128 113 124 90 135 147 48 122 108 200 251 225 201 148 99 104 147 161 170 184 201 202 203 218 218 227 244 225 175 162 169 178 225 235 192 159 92 101 111 125 110 105 130 137 150 184 239
123 113 187 110 125 178 203 120 79 73 113 186 227 239 198 155 147 143 148 145 149 152 159 168 165 166 170 169 175 176 181 166 180 195 211 241 253 252 242 223 191 169 168 151 124 124 140 149 171
115 86 101 265 229 170 209 223 139 165 261 239 208 186 174 173 152 145 146 143 136 125 118 120 120 121 129 133 139 145 146 153 158 177 204 242 272 265 267 267 256 237 214 182 172 165 160 163 171
119 124 99 100 116 140 119 190 103 140 184 231 224 164 164 160 150 134 128 127 117 108 97 109 102 98 102 110 136 154 158 165 171 188 216 231 248 244 221 213 217 234 243 220 183 170 167 169 183
148 142 134 119 122 234 119 67 85 99 209 284 196 163 152 144 130 113 107 98 93 100 100 102 110 116 133 112 133 160 194 206 209 218 227 225 231 227 222 199 192 195 206 221 210 227 215 210 208
66 100 165 137 105 82 89 67 79 103 222 233 143 146 157 140 113 103 94 94 95 81 73 77 92 113 125 130 152 169 183 185 191 202 209 208 217 231 225 202 194 182 193 214 208 201 196 178 178

GFSSGP_con_3kmhel_078.txt.gz
Helicity
147 130 110 119 175 178 171 170 179 317 164 92 86 44 42 151 154 133 89 53 97 72 41 50 53 39 36 48 55 56 54 47 47 49 45 43 39 36 32 26 29 40 30 11 19 23 25 32 45
187 173 160 107 188 186 172 115 242 249 152 75 67 74 89 127 146 96 119 52 123 90 60 47 50 41 34 36 44 49 44 39 39 32 36 26 23 25 26 24 20 49 36 18 16 18 15 21 46
197 184 178 126 166 163 139 114 179 187 93 82 111 126 82 112 128 67 45 76 122 106 71 44 46 42 35 17 11 20 25 26 15 29 23 29 30 22 17 12 11 56 44 28 22 18 15 14 27
223 202 253 195 177 156 48 141 174 305 122 91 80 131 127 105 69 63 65 96 123 120 85 58 48 42 29 19 2 -8 0 31 41 40 43 40 12 11 15 9 10 50 51 32 22 23 12 5 16
248 229 239 156 150 113 5 12 95 294 194 81 100 105 158 160 113 115 94 99 134 127 95 65 54 42 29 18 1 -11 2 3 22 22 7 5 -7 -3 0 2 14 48 49 42 29 22 8 -7 5
294 253 248 139 88 63 18 -65 89 202 109 75 112 130 170 143 160 97 113 55 101 124 118 73 64 49 36 24 19 11 32 13 15 -16 -10 -4 -4 -2 5 24 22 56 59 48 33 22 8 -9 8
230 273 210 151 84 49 77 -77 42 145 138 72 60 144 163 138 135 90 113 95 98 120 137 102 75 53 50 34 32 23 35 41 13 -6 -4 0 -2 -8 2 7 30 66 53 48 36 26 11 -1 2
200 194 179 166 105 72 80 -100 -36 158 135 42 74 126 153 123 132 195 163 109 109 89 97 100 100 81 65 48 30 30 38 44 29 24 22 9 -2 7 0 11 69 61 56 58 33 29 20 8 7
203 224 154 128 121 100 123 53 72 26 -6 129 118 66 116 163 164 203 162 136 139 124 98 87 93 72 57 54 36 28 44 51 54 56 34 30 -5 5 20 43 59 51 54 56 36 32 30 20 10
217 208 163 138 113 106 138 192 95 34 168 178 124 217 246 169 159 151 141 116 101 89 77 80 80 62 52 88 78 69 69 65 73 60 38 37 28 18 34 49 59 54 52 43 37 38 41 31 12
204 140 192 159 119 194 121 228 -19 83 198 220 64 92 148 140 158 138 109 102 62 37 35 38 65 56 94 115 99 105 98 94 87 82 61 57 44 29 52 53 51 47 58 45 31 40 46 39 28
169 98 123 172 209 182 141 127 -58 89 151 168 16 75 140 116 89 138 129 96 85 62 24 16 41 83 95 126 99 97 117 109 103 78 78 95 83 54 43 69 67 70 69 67 58 49 43 43 49
128 166 111 186 134 170 6 33 116 32 176 130 42 106 121 105 114 147 138 146 126 96 76 37 42 51 77 106 79 94 103 114 76 76 78 95 94 78 64 58 77 79 86 72 66 60 56 55 46
123 122 138 121 108 102 72 73 13 34 89 30 79 105 103 104 78 134 129 116 124 108 115 102 80 65 83 81 86 73 84 72 77 65 58 88 86 93 83 72 69 70 76 71 69 65 65 57 75
165 112 117 120 117 101 36 50 35 113 44 38 91 157 111 81 82 70 57 80 73 108 91 102 98 104 128 100 79 78 72 84 93 53 42 93 99 114 106 91 86 65 66 53 58 46 62 61 85
142 145 148 98 119 116 108 51 31 86 126 147 73 123 148 121 27 42 36 56 76 90 97 91 109 119 149 143 128 90 66 87 109 92 61 96 121 134 135 122 108 86 83 83 81 62 60 65 66
192 172 167 162 118 164 169 70 25 107 87 93 111 97 149 148 147 94 28 4 34 75 85 90 103 133 158 176 177 149 126 84 104 125 119 101 125 135 150 152 133 126 126 119 113 105 129 142 122
204 169 166 168 149 173 163 103 126 139 129 97 54 94 118 159 150 106 68 40 31 63 95 108 127 124 151 189 179 168 154 137 105 111 132 133 137 141 152 147 145 160 164 160 173 163 169 173 174
191 221 135 135 166 113 85 93 90 113 120 100 111 112 113 109 125 103 98 69 101 102 83 108 121 122 154 175 184 199 186 184 148 114 119 108 128 142 151 155 163 191 189 186 195 213 183 172 202
112 130 152 126 78 117 87 62 101 95 86 79 68 83 120 91 72 103 136 172 178 174 162 132 133 147 154 175 179 191 190 173 173 165 153 140 134 146 153 168 172 191 208 181 194 231 224 206 263
117 125 134 127 112 96 82 57 71 83 66 72 80 66 74 99 90 136 253 249 248 235 222 218 192 154 136 146 173 200 207 208 187 181 185 169 172 170 167 170 200 199 212 206 216 233 253 213 270
117 91 115 104 112 130 128 64 83 33 67 71 63 79 81 106 166 151 179 231 245 245 245 233 203 204 213 199 154 160 157 163 167 172 172 163 161 179 194 189 201 196 226 221 224 264 300 338 270
87 71 79 100 139 140 121 101 62 99 85 53 27 55 67 141 181 177 174 169 165 181 188 184 184 196 179 176 225 203 195 191 178 165 170 162 173 173 174 171 162 163 192 197 210 248 267 256 248
98 139 165 117 113 102 83 124 34 103 57 88 58 75 130 167 184 149 116 125 187 211 216 217 221 243 266 241 227 212 223 222 221 210 193 155 144 150 143 164 177 155 162 177 162 154 171 186 182
134 135 132 148 109 60 89 128 134 47 82 67 135 187 186 234 210 148 93 92 139 188 213 202 207 237 241 240 248 227 194 183 181 191 181 167 166 170 132 142 100 108 112 152 165 151 127 122 153
185 92 105 72 47 37 96 56 86 51 23 56 168 247 241 211 175 115 77 133 163 189 196 186 193 199 203 199 203 199 201 188 188 188 188 214 224 224 240 222 174 143 140 166 189 161 139 136 138
151 106 131 68 59 90 66 67 110 85 96 173 199 245 229 222 184 152 147 164 174 170 172 155 147 148 156 154 145 162 167 172 171 181 185 199 224 236 249 250 255 258 227 205 167 160 166 177 177
126 84 88 88 71 88 51 81 89 96 128 174 177 213 227 204 183 167 167 163 149 127 126 123 110 112 118 128 133 142 162 171 171 179 193 202 212 213 210 217 214 204 212 204 212 199 194 190 168
155 136 127 95 120 82 50 -1 61 137 130 190 192 184 162 150 135 127 132 132 118 105 98 98 101 99 109 118 128 148 164 171 178 190 206 219 237 249 244 233 228 213 207 201 193 188 173 172 190
98 93 124 116 120 109 78 48 66 23 156 183 194 162 131 120 114 111 108 104 100 89 84 80 79 88 95 103 119 136 148 159 173 188 199 203 219 241 227 213 207 203 196 193 185 157 162 170 187

GFSSGP_con_3kmhel_081.txt.gz
Helicity
129 122 96 150 182 186 164 161 130 189 109 75 67 93 85 81 125 125 63 65 73 48 19 22 44 48 39 39 46 57 59 54 51 50 46 45 42 34 34 32 33 22 13 13 18 27 50 68 70
118 136 147 153 187 190 181 116 114 222 235 176 118 133 148 122 100 105 136 62 84 54 27 22 41 38 36 35 43 48 52 54 53 54 53 52 51 54 42 30 40 26 17 11 15 22 40 52 39
149 158 188 178 177 166 160 119 182 245 286 173 172 130 120 131 119 83 142 93 111 82 57 26 38 37 31 17 25 37 38 41 45 43 44 43 41 29 25 24 44 29 23 13 14 24 34 35 20
241 261 227 228 202 186 104 128 234 194 230 136 123 96 122 136 67 57 82 79 121 106 86 37 41 42 33 16 -5 -2 22 28 28 33 37 39 29 17 14 15 46 43 28 15 10 21 25 26 13
309 267 175 134 139 141 86 83 94 223 250 268 210 104 114 153 99 80 90 89 95 112 91 63 51 47 33 10 -11 -16 -25 -5 26 40 33 12 5 6 4 11 37 39 34 15 7 18 21 15 5
356 353 209 126 109 110 66 -22 37 146 167 226 206 139 127 123 123 96 89 84 81 95 114 74 62 46 29 13 -4 -5 4 2 -12 -30 -25 -34 -22 -11 -12 2 30 36 27 15 3 8 14 3 -0
310 340 231 125 78 108 130 -12 19 104 195 207 175 163 142 127 146 118 96 101 105 127 138 105 81 48 37 21 23 32 36 29 -22 -71 -81 -46 -42 -25 -19 2 9 28 19 14 -1 -1 -1 -2 1
271 281 201 171 92 108 97 93 -37 53 161 183 88 132 115 89 140 166 138 111 116 127 120 115 102 80 54 28 36 33 37 28 4 -11 -17 -46 -64 -59 -20 3 10 28 25 25 6 -0 -4 -2 2
216 290 185 153 120 129 71 106 -29 -60 7 91 155 51 77 166 189 187 134 125 92 110 98 110 100 98 71 50 29 43 32 31 26 20 13 14 -10 -16 -31 -1 51 48 36 35 18 11 8 2 8
240 245 209 175 166 121 152 125 48 -35 45 161 149 93 159 148 145 126 113 109 115 95 84 84 88 84 75 68 56 49 37 46 53 36 30 18 17 18 33 32 56 52 51 47 29 14 9 15 12
225 181 253 153 160 90 82 162 188 16 134 155 264 198 116 122 116 89 85 83 86 86 76 75 91 82 66 70 92 74 66 80 78 64 54 49 47 47 57 56 49 49 55 54 50 40 37 30 23
226 178 194 188 170 160 101 123 187 69 79 90 194 198 52 72 107 100 99 89 87 98 82 71 84 85 83 97 116 98 106 102 98 81 79 70 68 60 62 59 53 61 66 61 59 55 46 41 39
150 136 154 268 121 93 90 113 111 156 -52 14 117 206 109 37 97 110 104 105 93 60 51 39 72 81 81 85 128 119 115 114 102 108 89 88 85 77 65 48 52 57 70 64 62 63 57 46 44
102 151 149 181 170 113 100 112 85 50 29 59 137 294 73 86 112 122 94 113 106 65 44 41 35 47 75 66 98 90 98 99 108 102 85 82 94 90 76 58 50 56 70 66 66 71 66 52 57
147 120 145 201 156 132 122 111 36 64 13 50 322 243 93 64 77 83 91 113 117 101 86 82 60 55 50 50 63 92 84 92 81 66 86 80 87 85 86 79 64 55 59 57 54 49 60 57 59
157 174 158 157 170 163 115 70 83 51 19 111 533 235 110 109 39 72 72 104 99 112 112 112 109 87 74 64 68 86 94 100 62 63 91 92 90 93 96 95 74 63 67 73 67 69 62 60 77
230 195 201 203 118 153 158 53 41 143 50 72 90 150 83 111 89 69 59 48 46 69 102 113 127 108 96 100 107 104 80 90 70 71 93 109 115 113 119 117 94 89 95 105 102 87 106 97 90
218 183 198 195 137 145 150 115 70 124 90 41 13 19 63 43 57 74 52 43 67 53 75 108 124 129 109 131 150 140 113 93 104 99 89 102 118 136 147 145 133 128 129 125 138 134 129 141 124
202 200 175 150 149 157 116 120 149 183 125 66 59 21 -3 45 80 82 73 62 63 63 56 76 114 134 209 208 192 180 160 154 135 129 108 99 120 135 156 156 159 159 160 158 172 194 170 156 188
129 225 152 142 122 133 107 90 81 97 64 103 63 49 -23 20 56 80 118 103 86 99 62 64 90 153 172 195 195 197 168 148 163 161 150 115 130 162 165 160 155 178 188 176 188 233 225 209 235
189 136 199 129 108 122 100 75 51 27 55 65 90 84 65 50 102 111 114 144 170 168 136 120 102 101 123 139 190 193 201 202 197 187 175 138 136 135 144 144 165 180 203 191 212 241 243 199 204
197 107 114 138 175 124 94 31 86 35 -13 52 59 55 67 87 135 160 125 140 203 241 227 187 176 165 148 135 155 168 182 176 159 158 169 158 157 150 157 162 180 192 223 214 212 215 215 241 207
124 110 134 144 138 142 122 69 12 86 63 -17 9 39 42 114 129 127 124 139 198 228 227 208 193 203 202 182 155 144 154 164 174 161 147 144 149 150 160 166 163 163 183 181 188 198 204 218 208
125 154 198 172 135 93 63 95 -46 103 89 74 61 96 87 98 152 156 174 194 222 225 201 179 184 187 182 177 183 160 146 145 153 155 161 166 169 164 155 158 165 162 167 165 155 156 156 164 161
102 125 197 192 145 77 56 80 3 99 79 57 68 79 111 154 193 193 195 218 211 214 185 160 169 193 198 196 210 216 191 162 139 140 152 156 154 152 141 159 165 152 162 141 138 147 153 130 142
146 106 154 211 145 76 69 18 8 13 36 33 34 85 159 207 233 194 182 184 167 159 137 154 203 224 224 198 183 179 192 191 196 186 172 171 167 161 176 188 203 180 157 135 159 190 182 169 160
176 127 139 156 129 84 41 9 19 16 18 38 47 123 154 215 208 193 178 145 126 129 147 169 180 190 191 173 153 162 161 163 164 176 175 174 186 183 201 230 251 271 255 223 211 208 197 200 196
154 109 120 81 32 8 10 -39 -19 -32 5 68 119 166 159 217 240 218 194 155 154 163 166 163 155 150 137 138 135 133 140 148 151 158 172 177 183 190 205 226 244 262 248 230 225 234 221 213 204
133 120 109 112 92 -1 -44 -30 12 18 30 76 136 182 187 175 174 161 148 150 159 168 149 135 122 107 111 113 116 126 141 152 167 172 181 194 202 214 217 217 226 234 229 218 225 231 219 189 180
116 76 117 98 108 90 31 -1 21 -2 13 82 131 153 133 128 121 124 123 133 118 121 111 100 91 92 88 91 103 115 130 143 155 174 190 200 212 227 225 231 240 242 234 228 221 219 203 173 167

GFSSGP_con_3kmhel_084.txt.gz
Helicity
119 108 113 164 182 176 164 161 138 128 108 55 118 91 85 91 98 108 38 37 44 41 -15 -18 23 34 43 53 59 60 56 52 52 54 52 41 33 25 24 19 13 12 10 12 15 24 34 41 42
105 92 143 186 209 207 177 132 126 145 168 181 112 135 120 110 91 76 91 53 68 31 -17 -20 21 18 30 46 48 54 45 42 39 44 45 43 38 30 20 14 9 6 7 11 17 18 25 22 14
111 130 202 229 228 167 152 125 120 190 188 204 219 148 151 115 107 45 109 90 115 57 7 -8 8 6 23 29 48 33 30 33 36 41 42 43 37 24 9 21 6 4 5 7 11 10 9 1 -5
157 195 228 261 223 215 145 95 132 210 220 225 221 279 157 118 45 82 112 115 151 87 45 4 11 15 13 9 3 -1 8 21 23 29 22 27 19 11 -3 20 18 9 4 1 9 5 -4 -15 -23
235 270 295 259 220 237 166 84 99 185 228 264 205 289 189 133 78 96 98 111 126 83 62 33 17 23 13 -3 -20 -39 -35 -35 8 13 15 6 -4 -7 -8 5 20 10 8 3 8 9 -4 -21 -28
277 329 302 202 165 140 138 76 51 70 137 211 222 256 166 102 70 71 64 68 90 89 86 64 45 36 20 -2 -18 -13 -47 -38 -37 -33 -24 -30 -23 -24 -19 -8 12 3 3 2 3 9 2 -10 -16
253 358 265 207 76 86 63 45 45 39 77 153 160 240 158 70 79 73 73 73 88 99 113 98 93 63 38 17 -4 22 24 10 -26 -55 -85 -113 -92 -48 -32 -29 3 -7 -2 -3 -2 3 8 3 -2
251 297 248 195 159 124 77 67 -13 25 83 95 126 263 287 23 82 125 99 104 101 123 106 99 112 96 79 48 45 34 15 2 -16 -26 -9 -57 -90 -84 -45 -25 -12 1 -4 -4 -3 2 9 16 15
211 306 191 190 196 173 127 90 64 1 60 85 96 113 130 34 73 128 159 129 104 98 107 98 115 108 99 69 48 32 14 0 -12 -13 5 -3 -20 -15 -13 -26 -7 26 26 19 3 2 11 19 30
247 240 207 159 197 134 134 127 96 -9 107 128 161 73 169 58 102 88 111 120 125 88 107 105 106 105 106 88 76 45 42 23 8 7 5 4 9 8 4 3 46 47 38 36 26 25 32 44 47
230 211 245 193 170 141 82 102 111 33 72 63 170 224 219 166 81 56 75 66 82 96 103 109 109 124 113 115 99 69 60 55 43 39 31 35 41 51 57 63 56 48 48 41 40 37 37 40 53
226 183 199 285 161 173 109 84 90 128 77 -24 89 131 175 171 85 45 82 80 52 70 89 88 101 121 132 132 106 81 76 75 71 60 57 57 54 57 63 59 54 52 50 49 44 40 38 41 45
171 166 155 228 159 121 140 80 56 113 90 -2 82 132 221 125 128 46 46 55 57 41 80 65 93 127 139 126 112 104 90 88 100 89 71 73 65 61 67 56 55 49 53 53 50 45 42 42 43
129 199 162 161 208 140 141 125 66 92 84 -73 12 126 169 147 161 74 63 48 60 76 68 91 97 107 113 108 101 102 117 109 116 104 86 80 76 69 66 59 50 44 52 56 53 49 47 42 42
199 139 174 177 193 205 176 164 96 81 80 104 -71 59 129 221 148 74 80 72 71 83 70 66 75 83 80 75 79 95 104 108 107 99 91 82 74 68 67 59 51 47 57 54 52 45 48 42 44
215 180 181 157 177 195 140 112 110 51 26 120 65 79 173 315 140 65 67 64 84 84 80 71 52 57 66 60 59 63 74 93 94 100 83 78 78 78 73 62 49 59 62 65 66 63 54 53 63
239 209 177 223 140 167 137 98 88 79 56 76 171 161 234 312 124 64 49 51 70 97 101 97 98 85 65 52 66 71 73 84 77 92 88 75 78 89 98 91 70 86 83 78 78 71 86 85 81
291 234 195 227 186 167 147 138 125 115 104 62 166 182 239 323 185 74 70 54 64 58 67 95 112 100 96 102 101 88 85 85 87 82 91 88 83 98 116 112 91 105 106 94 101 97 108 123 107
205 246 224 219 198 174 132 114 81 76 140 98 81 243 356 276 236 207 97 40 49 60 55 63 91 99 130 140 127 112 87 114 88 79 59 84 103 115 134 135 123 125 130 127 145 158 140 136 165
119 168 173 169 196 171 117 98 63 72 89 95 70 74 63 117 66 56 26 88 42 56 46 45 47 95 134 161 155 145 147 123 137 124 106 102 101 124 132 124 132 146 151 146 165 199 185 173 204
123 125 216 168 208 215 129 121 101 49 79 67 61 72 26 53 17 31 27 44 85 84 73 71 63 75 116 139 176 168 160 160 156 143 130 137 141 140 143 139 157 169 177 172 190 211 218 195 188
160 107 165 138 191 155 128 81 109 74 42 42 45 108 69 37 32 -53 -23 44 99 125 140 147 133 123 119 108 125 136 155 150 139 136 147 150 146 135 132 140 162 168 191 182 187 208 221 237 204
144 101 199 201 190 159 127 92 73 132 95 -2 -18 18 35 69 86 55 74 98 151 174 204 224 220 209 191 159 131 120 112 122 124 119 118 120 116 122 136 151 157 161 178 166 178 201 203 221 226
143 237 231 183 169 120 91 90 -20 80 99 75 69 41 58 80 85 103 166 183 196 198 199 233 239 234 214 188 173 144 116 113 122 125 125 130 134 134 131 138 153 161 170 168 165 165 167 163 161
169 228 313 215 151 70 65 81 -17 77 70 53 62 70 71 107 175 227 237 215 210 193 183 198 192 212 209 187 169 158 144 136 122 127 135 146 158 161 163 156 155 168 170 173 164 162 162 154 140
180 193 254 228 175 113 99 50 0 24 16 45 82 71 103 138 173 235 277 252 218 184 180 201 176 171 182 176 180 185 190 170 175 175 162 161 158 161 172 169 161 160 183 199 184 211 229 244 230
148 90 162 156 186 156 101 67 45 43 32 9 58 29 8 93 154 236 315 308 269 235 208 178 176 176 181 172 195 205 197 187 170 171 172 171 182 176 182 191 210 242 263 251 249 264 253 238 205
115 105 109 129 98 91 90 55 44 37 49 58 56 29 44 105 187 266 302 311 286 240 210 188 166 168 186 197 189 180 172 168 159 160 173 173 179 177 181 187 199 217 234 229 222 234 216 204 181
207 172 122 97 86 56 33 47 6 58 71 89 49 74 87 145 175 203 239 243 226 195 146 140 155 166 182 159 149 144 143 140 138 141 149 153 158 174 181 188 193 204 207 215 230 232 208 224 211
149 119 146 85 46 46 10 51 55 24 23 35 32 81 112 147 132 151 154 170 157 149 145 145 148 147 130 109 104 112 116 124 134 148 160 169 174 190 188 195 206 219 228 238 231 246 244 235 225

GFSSGP_con_3kmhel_087.txt.gz
Helicity
133 133 121 159 179 171 167 149 138 139 105 87 116 110 136 107 108 130 52 27 51 37 -14 -9 30 35 38 50 58 59 52 42 34 31 23 20 14 12 5 -0 -4 -8 -4 5 13 19 19 19 18
137 133 174 188 224 212 170 152 119 142 186 165 94 105 113 119 87 72 56 43 19 29 -24 -34 13 24 30 48 53 48 35 32 24 20 16 13 4 5 1 -0 -4 -3 -4 -0 9 12 8 4 -1
147 169 213 244 204 166 162 138 128 144 189 194 140 136 136 139 92 38 77 74 29 18 -25 -44 1 9 21 13 29 28 32 24 22 21 15 14 -1 -2 -0 -0 -4 -6 -8 -6 -2 -4 -10 -15 -21
191 218 227 249 165 168 157 122 147 141 164 213 203 178 149 116 108 54 79 83 60 26 -14 -9 -0 -1 -2 -15 22 10 10 18 20 19 9 2 -10 -21 8 7 1 -7 -13 -11 -11 -15 -19 -22 -14
243 253 297 210 137 134 190 121 164 203 134 220 228 249 199 132 86 56 77 101 72 42 6 1 -6 8 -1 -24 -32 -53 -34 -19 -7 -11 -4 -14 -26 -32 -19 7 2 -6 -11 -10 -15 -20 -21 -21 -15
305 329 292 178 100 159 192 134 157 223 163 184 207 254 212 114 94 83 72 78 74 60 33 -2 6 17 13 -21 -50 -60 -85 -80 -57 -30 -28 -48 -45 -50 -46 2 -0 -0 -3 -4 -6 -11 -14 -10 -8
223 340 250 130 94 161 157 124 112 153 188 162 120 243 225 131 105 83 74 74 75 52 54 21 1 20 30 8 -16 -19 -34 -33 -53 -54 -55 -81 -89 -85 -63 -20 -10 -5 -8 -10 -6 -9 -12 -11 -5
247 306 193 157 111 56 125 88 56 94 157 116 97 232 269 182 79 87 80 63 76 75 59 56 45 32 25 24 35 17 6 -8 -30 -29 -32 -67 -68 -118 -75 -50 -11 -10 -13 -18 -14 -4 -1 -0 6
243 302 181 94 92 52 76 58 44 59 60 140 88 67 127 143 53 100 98 100 89 65 70 82 79 56 56 51 37 26 7 -9 -22 -12 -22 -27 -52 -55 -28 -36 -9 13 24 15 10 15 28 38 37
241 228 187 129 118 74 65 35 16 51 73 128 118 50 61 143 86 90 86 91 95 88 92 100 88 73 72 75 60 46 28 12 -3 -9 -7 -6 -12 -18 -11 -2 19 34 26 27 26 32 41 33 30
228 213 195 205 126 134 77 92 87 29 46 57 126 74 43 145 184 151 98 89 89 91 119 119 106 94 75 87 88 80 65 48 37 26 19 21 21 24 21 26 34 40 39 33 34 38 34 41 39
217 192 163 172 133 131 117 83 120 125 -11 14 84 109 50 168 170 137 109 79 87 75 90 120 109 109 85 91 92 82 79 68 63 49 45 41 44 44 49 58 52 45 42 38 36 38 38 43 44
176 210 150 174 145 125 115 109 108 116 43 33 84 125 84 118 129 137 77 89 95 69 54 88 120 113 99 95 101 87 80 77 72 64 59 60 57 58 63 63 58 52 45 40 41 41 38 37 38
111 250 131 125 160 153 123 133 110 114 79 59 44 68 106 80 98 152 109 73 78 82 35 61 106 117 93 106 97 84 79 86 85 77 66 67 73 67 64 64 59 52 50 48 43 41 40 36 32
163 196 207 139 119 156 109 117 141 113 68 95 66 80 103 104 53 191 134 78 61 49 63 76 91 87 82 90 94 96 90 98 97 87 70 68 71 69 66 55 45 43 49 45 45 46 42 40 32
191 198 224 157 136 173 129 62 118 101 95 97 73 178 102 99 67 192 158 93 76 58 57 61 74 91 78 80 89 97 90 87 85 79 73 59 53 50 56 44 33 41 49 51 51 54 49 44 45
209 230 186 217 96 194 162 96 138 92 90 121 121 156 104 117 97 183 159 95 84 62 48 64 67 59 57 64 73 74 68 61 58 62 57 46 44 45 46 43 44 53 57 59 64 56 63 71 72
281 267 200 198 172 158 154 114 157 72 85 99 146 119 139 128 136 188 186 109 85 77 72 85 68 72 69 72 73 55 48 42 43 50 51 44 47 46 53 47 46 62 63 64 74 73 91 86 90
193 279 149 212 194 142 109 82 84 87 90 106 116 141 165 137 158 209 287 126 90 94 100 77 69 82 96 102 87 61 53 55 46 39 39 46 42 51 62 64 58 75 80 77 87 103 100 107 125
169 233 205 225 177 145 116 72 87 87 87 96 92 120 100 144 218 295 350 152 140 121 88 86 99 49 94 119 101 97 98 72 83 85 68 77 75 59 60 57 67 77 96 94 102 127 146 144 152
169 202 225 141 170 172 104 91 103 106 112 97 92 99 89 45 155 274 300 262 130 173 114 46 40 41 55 90 126 130 117 97 94 97 98 92 93 94 98 97 104 106 112 110 115 145 142 142 159
114 118 169 127 140 160 161 83 104 104 99 99 63 64 49 51 101 173 178 190 190 129 60 58 73 77 69 81 89 96 110 110 107 107 110 107 96 108 113 123 125 118 129 123 125 136 147 173 173
87 63 135 169 168 153 143 103 75 149 72 82 65 70 46 65 69 124 167 85 -31 28 69 92 128 140 126 102 95 96 89 106 108 98 94 92 89 83 93 105 113 113 143 126 128 156 162 184 202
289 162 165 179 132 125 90 90 12 90 101 80 63 44 54 58 36 22 45 -58 -29 47 78 132 164 178 174 160 144 105 89 92 95 94 94 104 110 113 104 102 104 114 128 128 139 155 161 164 173
196 156 282 219 161 97 101 85 37 48 50 67 57 46 63 77 80 77 115 133 63 88 130 156 195 229 212 195 181 151 127 115 110 113 115 120 129 145 162 159 137 138 140 153 173 184 179 179 180
116 164 266 216 140 125 123 45 25 38 -22 30 58 96 82 73 105 121 179 192 205 153 151 194 198 223 213 186 170 157 147 134 138 142 145 167 182 190 189 181 173 154 150 164 188 215 215 205 223
163 129 172 173 208 129 85 85 87 -3 55 30 25 18 42 54 88 125 201 262 277 278 256 218 230 213 206 191 186 193 195 190 176 191 176 173 183 185 188 187 186 198 209 197 222 254 301 302 261
248 158 141 145 120 104 78 74 86 83 87 78 52 25 47 41 38 111 197 304 333 296 258 220 213 194 172 184 195 205 209 212 203 189 185 171 166 171 162 164 179 191 209 218 251 289 271 261 229
111 81 123 101 107 118 87 93 86 102 105 97 94 63 67 37 51 127 233 304 287 282 247 206 191 170 173 175 190 207 214 209 192 180 170 160 156 167 172 180 181 192 201 212 232 239 237 228 233
124 94 108 47 49 100 109 132 49 87 96 129 99 75 73 83 111 166 220 221 216 215 206 197 182 167 165 172 177 176 168 160 153 154 155 153 156 165 170 186 200 211 221 227 225 241 243 242 243

GFSSGP_con_3kmhel_090.txt.gz
Helicity
134 132 122 120 167 182 140 117 165 109 115 111 127 156 173 204 109 106 46 30 57 57 34 4 19 32 34 37 36 34 25 19 10 10 6 2 0 -1 -1 -2 -4 1 3 6 9 10 14 13 16
128 134 148 164 224 170 147 110 113 132 170 155 110 111 134 137 91 62 40 50 11 42 12 3 13 25 32 43 31 26 20 11 5 5 4 -4 -3 -1 -6 -4 -6 -2 1 5 4 3 4 2 3
131 158 185 206 178 148 151 86 119 130 161 139 127 134 126 122 86 51 39 41 8 7 -10 5 8 27 29 34 23 9 7 -2 -3 -4 -2 -10 0 -3 -7 -7 -5 -4 -1 -1 -5 -9 -17 -16 -16
154 189 219 232 133 134 210 103 139 114 136 153 163 136 85 97 99 62 40 34 8 -9 -18 21 -9 9 20 16 10 -7 5 0 8 9 4 -8 -11 -5 -4 -4 -5 -13 -14 -9 -12 -19 -23 -16 -17
198 247 218 185 102 123 171 127 108 133 131 145 163 165 180 110 105 60 73 77 21 -10 -23 -23 -18 -8 -13 -14 23 3 -4 2 -7 -13 -15 -31 -39 -4 -1 -8 -10 -14 -17 -18 -20 -22 -18 -19 -12
232 281 215 141 91 112 143 122 99 131 180 149 150 160 230 172 103 76 86 96 45 4 -12 -21 -21 -25 -16 -12 -17 -41 -43 -58 -49 -24 -33 -51 -60 -42 -5 -12 -18 -17 -15 -16 -18 -20 -18 -16 -9
193 227 148 93 117 83 121 136 123 148 157 211 171 183 207 184 132 103 104 63 58 20 5 -8 -45 -39 -17 -16 -27 -34 -74 -78 -33 -39 -24 -52 -69 -67 -23 -25 -29 -26 -25 -24 -24 -25 -18 -10 0
210 206 96 110 127 68 123 118 109 123 175 154 191 171 182 187 135 110 106 92 57 34 12 17 -15 -38 -41 -36 -16 -18 -15 -21 -48 -17 -47 -68 -73 -73 -75 -41 -41 -33 -27 -21 -11 -5 1 10 16
205 247 113 96 120 92 97 138 133 124 115 132 166 148 151 127 95 118 120 125 75 50 27 33 24 -13 -25 -20 -3 1 -9 0 -12 -35 -45 -66 -72 -63 -38 -36 -18 5 3 -2 0 6 11 14 19
214 149 56 53 65 81 76 142 57 85 65 106 100 81 50 86 100 115 121 104 101 69 68 58 61 29 6 8 8 -10 -10 -26 -37 -38 -40 -38 -29 -23 -19 1 10 26 26 21 23 28 25 8 17
199 124 97 139 152 169 132 104 111 39 68 68 78 43 24 73 154 186 175 94 83 70 96 76 98 62 43 31 24 29 19 17 9 1 0 4 6 12 17 28 28 34 27 25 27 33 21 25 21
200 123 224 92 158 117 87 67 55 49 53 35 27 34 0 38 131 162 169 138 96 88 59 80 87 85 66 58 44 44 51 46 40 31 32 29 32 36 39 42 40 34 32 37 31 31 38 36 30
157 133 122 195 180 155 150 103 74 27 70 58 62 98 38 -2 47 62 109 122 98 78 67 61 86 81 85 72 62 60 64 64 66 58 61 62 62 62 63 62 55 49 45 41 43 40 43 37 38
131 150 124 107 88 139 49 60 75 78 55 49 65 79 106 35 22 35 61 91 81 90 88 58 61 73 89 81 73 72 72 75 80 77 75 78 88 82 76 74 63 57 54 55 45 46 45 44 42
135 106 179 96 77 114 82 46 55 65 52 74 76 74 90 86 28 17 86 111 74 72 64 65 58 82 72 70 75 78 82 83 84 87 79 74 84 91 88 76 69 62 58 48 47 48 45 47 52
129 143 139 100 102 142 110 89 55 80 75 117 72 139 105 90 54 14 97 117 99 95 80 58 76 75 77 69 78 84 94 93 96 98 93 77 82 90 89 79 66 60 58 51 51 55 56 56 57
194 225 113 86 78 108 112 77 65 50 65 99 132 96 135 70 121 48 117 124 107 88 79 71 58 55 62 69 81 81 88 93 96 94 88 76 71 64 59 63 61 55 56 56 58 58 57 79 82
178 208 106 146 98 96 80 98 79 63 73 86 115 119 134 115 140 77 112 147 113 90 95 66 51 44 71 90 96 98 93 94 90 87 78 60 54 46 50 50 50 58 64 60 59 62 73 83 94
67 171 126 146 129 77 62 80 85 121 105 101 128 155 147 115 174 142 127 147 126 133 115 85 69 49 70 89 101 122 116 84 68 49 36 39 44 46 47 53 55 57 56 60 72 81 92 98 99
280 99 134 113 124 92 68 79 66 92 90 119 113 114 134 118 170 184 173 163 172 122 134 104 82 78 64 67 86 104 87 75 71 59 48 46 46 46 42 42 49 61 73 72 84 104 111 109 119
95 81 135 80 154 160 106 69 63 59 63 78 104 125 116 121 98 133 182 186 213 183 153 131 107 110 107 120 105 92 75 63 51 49 63 64 58 64 59 56 71 82 87 94 96 107 114 112 137
54 109 122 100 81 106 115 87 39 49 61 55 82 88 110 110 133 152 143 203 256 271 108 136 120 96 91 55 135 113 107 83 60 43 41 63 72 79 86 92 96 99 120 120 125 123 116 136 131
162 162 101 62 49 93 73 116 98 74 48 76 68 74 73 118 150 149 149 168 254 242 296 136 113 105 56 69 87 65 56 57 79 95 67 89 99 85 89 95 104 112 134 125 116 125 125 144 148
64 101 148 103 103 146 101 103 94 46 41 32 36 40 50 74 104 92 120 120 190 229 237 187 145 77 88 92 104 79 89 74 82 86 94 98 97 108 102 95 98 105 117 113 117 118 136 147 162
188 94 215 187 124 112 136 92 113 71 65 67 42 28 27 39 49 56 103 158 156 185 135 161 127 138 136 89 115 134 112 97 80 84 92 93 94 105 114 126 124 138 136 130 136 151 158 168 177
179 135 212 156 124 81 98 68 52 67 2 28 72 69 101 38 33 54 55 57 74 152 -29 58 64 92 121 129 142 172 172 158 131 110 106 107 111 122 138 144 157 164 159 159 172 197 201 202 210
103 114 138 167 242 116 69 141 99 56 57 47 0 49 73 42 49 34 61 58 54 136 113 90 102 134 146 162 178 191 183 156 139 131 133 138 153 164 162 162 165 174 175 170 179 220 254 269 290
178 241 125 129 89 94 49 89 87 69 67 107 90 59 66 44 55 53 63 64 93 135 145 177 192 184 182 170 173 177 175 171 179 195 193 191 178 175 172 163 157 155 165 173 188 235 265 293 309
148 116 163 123 122 134 73 67 108 121 179 143 103 66 39 47 45 54 60 76 163 259 266 249 246 234 197 188 170 161 162 164 171 186 192 189 181 174 166 167 158 160 167 179 194 234 246 259 282
118 70 141 109 93 113 147 110 74 103 123 178 144 96 91 65 67 63 71 108 161 232 255 235 205 216 179 166 162 170 171 178 174 177 175 165 156 160 164 167 161 161 169 180 192 207 207 210 226

GFSSGP_con_3kmhel_093.txt.gz
Helicity
123 101 109 122 168 165 108 118 58 147 112 98 146 177 110 140 120 115 37 44 79 74 51 37 34 32 34 29 26 24 14 5 4 5 5 6 8 10 8 13 20 20 24 26 27 21 20 16 9
149 103 127 149 206 161 129 68 89 137 122 117 98 129 140 109 83 62 46 54 32 64 39 26 28 25 35 32 23 16 4 -3 -3 -4 2 2 4 4 6 9 8 14 19 18 15 12 10 7 4
193 131 152 199 158 173 131 65 54 155 147 108 110 140 87 157 90 36 48 45 36 50 14 34 22 27 36 40 24 12 -2 -4 -3 -4 -4 -4 0 5 9 3 2 7 8 7 0 -5 -9 -9 -9
161 177 231 180 136 95 48 74 65 90 102 114 139 102 162 142 139 52 34 41 36 39 4 46 8 27 29 33 12 9 3 5 2 -2 -6 -3 0 5 5 -5 -9 -11 -9 -4 -8 -13 -8 -11 -14
180 226 212 169 133 91 41 101 110 85 84 81 117 137 105 108 115 52 39 46 33 35 46 5 -13 10 14 6 8 6 9 14 9 10 -2 -8 4 9 1 -8 -13 -15 -12 -10 -11 -10 -8 -10 -9
234 242 222 163 99 61 70 128 48 107 125 149 118 98 161 115 91 62 62 61 43 41 13 -4 -23 -20 -26 -16 6 3 4 -1 -3 -4 -20 -30 -7 -4 -14 -13 -18 -15 -11 -6 -4 -8 -14 -15 -13
190 208 155 86 111 59 143 77 107 81 107 183 254 111 97 152 128 106 122 203 144 61 6 -6 -39 -44 -25 -32 -15 -29 -40 -28 6 -5 -21 -27 -15 -19 -22 -22 -21 -19 -21 -16 -16 -12 -13 -6 -4
184 218 125 78 115 57 102 76 99 83 151 143 211 158 77 109 140 74 119 149 172 92 1 -1 -20 -43 -53 -53 -39 -41 -48 -25 -34 -12 -29 -46 -47 -45 -48 -50 -43 -39 -37 -30 -21 -12 -8 -3 -1
164 234 136 111 51 50 91 100 59 99 93 180 197 258 153 91 115 138 161 144 62 73 50 26 19 -24 -28 -50 -34 -34 -28 -14 -18 -32 -51 -66 -76 -60 -34 -41 -20 -19 -15 -7 2 11 15 17 18
187 187 86 86 50 57 129 89 137 164 126 149 121 122 89 47 86 150 130 143 194 101 87 56 18 9 2 5 -22 -31 -22 -38 -47 -48 -45 -62 -42 -42 -36 4 9 24 16 17 21 25 24 12 37
168 90 55 81 69 122 180 89 45 82 90 94 101 100 126 77 112 103 161 116 138 119 123 60 66 39 39 16 -9 8 -11 -7 -10 -18 -26 -9 -3 11 21 32 27 30 23 24 26 29 21 27 21
211 57 170 118 69 73 166 70 102 88 104 69 56 46 71 48 106 116 139 146 109 114 96 122 92 89 58 35 30 55 45 29 26 14 9 17 16 18 28 39 49 37 33 39 5 22 42 35 31
141 199 142 60 106 62 228 58 78 72 92 71 92 39 29 47 41 83 115 152 127 125 69 84 89 100 79 76 66 61 59 57 44 42 38 37 43 41 56 61 58 46 59 50 43 45 42 34 37
132 176 215 109 33 146 47 198 78 127 44 73 104 46 35 14 19 37 57 88 100 111 104 84 91 88 102 86 62 85 103 59 72 61 60 65 67 75 85 90 94 87 90 75 64 57 49 42 37
302 313 289 226 134 69 136 146 98 83 34 75 49 33 47 36 20 21 10 30 66 65 71 104 82 94 109 100 70 82 100 98 92 80 69 72 87 91 94 93 100 94 92 81 73 64 53 48 46
211 393 210 150 135 114 32 103 54 45 79 48 75 74 47 49 57 60 6 -5 75 77 76 69 104 68 78 101 112 112 110 91 93 81 81 79 81 91 99 104 101 98 99 82 69 61 59 61 61
97 131 145 100 152 114 75 74 15 33 29 41 95 129 69 49 62 48 16 18 46 63 78 72 79 86 74 79 117 118 100 98 88 92 95 82 84 86 98 100 93 89 87 75 69 64 67 77 76
135 110 62 90 69 110 79 120 96 16 61 73 107 144 60 80 81 78 58 26 44 73 73 75 99 87 95 97 105 114 117 118 118 149 137 98 86 89 86 86 80 75 74 67 69 71 82 83 88
207 44 54 67 76 77 74 52 57 125 74 67 89 120 95 68 84 83 97 93 66 88 94 83 109 105 159 147 147 155 133 129 156 135 120 110 81 75 72 65 70 68 67 62 70 81 88 101 97
181 189 72 19 61 45 92 53 85 13 56 86 110 107 87 96 85 74 112 133 121 114 113 113 99 92 106 134 139 140 112 108 110 119 95 73 74 65 59 60 71 64 75 72 81 92 118 117 113
188 159 128 61 158 101 113 98 95 76 66 70 116 107 76 83 99 73 178 152 163 174 168 136 127 135 94 78 123 127 160 178 144 98 75 65 72 73 73 72 65 71 93 108 108 115 131 143 141
158 82 73 89 123 145 181 132 72 71 61 64 84 87 107 119 99 126 142 142 203 213 222 192 210 161 175 104 115 124 229 238 156 134 80 36 47 59 77 75 73 94 125 133 139 143 154 182 186
120 188 69 58 85 105 64 149 152 16 54 51 54 62 76 107 89 104 128 126 191 239 247 205 231 188 144 144 145 133 145 232 187 245 160 51 20 28 43 67 63 94 136 150 142 163 184 182 178
83 92 121 111 100 119 61 84 143 50 57 46 57 48 54 73 82 94 207 160 188 225 223 255 254 296 137 110 135 306 191 79 93 183 246 158 82 66 29 52 89 107 123 135 147 146 160 174 187
45 144 213 167 152 129 68 75 195 158 74 93 42 42 41 69 77 100 164 152 158 160 186 202 214 249 194 170 144 127 78 118 136 85 122 66 58 60 89 83 103 134 141 142 146 154 167 182 189
71 119 144 163 164 104 146 119 149 59 105 79 122 145 74 53 65 67 72 123 135 159 176 181 174 133 143 163 154 135 101 122 138 156 150 152 154 172 156 128 112 126 148 169 171 184 194 195 201
59 -12 186 256 140 86 64 133 86 50 -7 65 79 54 91 118 125 90 108 100 108 134 214 202 204 181 126 133 148 175 190 180 153 175 184 152 174 188 151 132 139 174 178 173 189 204 202 211 239
60 201 171 169 153 126 55 82 87 70 74 59 39 11 60 62 60 74 59 112 186 90 144 206 220 314 62 91 117 153 202 230 200 168 153 142 130 127 134 138 144 146 156 160 174 211 243 260 277
68 141 144 134 103 108 46 95 138 82 87 93 91 78 50 67 55 65 88 112 141 136 141 154 255 365 203 179 135 148 180 182 175 165 152 155 151 160 157 158 159 151 150 147 166 178 189 229 240
103 115 124 81 73 91 110 90 73 82 106 133 71 50 48 37 52 75 80 101 99 102 138 186 239 235 253 230 201 176 159 153 140 150 159 168 179 181 186 175 169 162 155 154 166 181 208 221 239

GFSSGP_con_3kmhel_096.txt.gz
Helicity
142 148 158 161 220 174 134 131 99 110 82 75 143 139 87 107 95 155 23 86 205 119 90 74 57 44 38 42 35 29 21 9 9 8 15 19 24 26 28 27 29 32 34 32 29 27 22 18 14
140 223 163 186 226 223 115 92 153 62 177 136 157 162 98 76 144 88 176 128 114 115 71 57 55 43 36 28 34 12 8 4 6 9 12 17 17 18 14 18 25 27 27 26 23 20 15 8 2
147 210 197 258 207 221 119 118 113 120 174 211 147 169 143 105 31 28 75 85 75 72 51 49 46 26 28 26 16 -3 3 6 9 12 7 9 17 13 12 15 22 21 15 9 3 -1 -2 -6 -4
180 189 230 285 177 102 176 123 138 235 176 159 188 140 172 257 117 48 60 104 79 33 94 53 40 30 34 29 21 13 16 10 14 13 2 11 11 8 7 8 7 2 -2 -5 -7 -2 -8 -14 -12
173 219 298 284 209 90 103 57 254 258 184 146 155 131 197 195 188 48 84 103 71 60 88 39 36 36 32 19 10 9 14 16 19 14 10 16 11 8 3 7 4 -5 -10 -8 -1 -0 -1 -12 -17
202 254 270 267 145 169 99 46 81 95 88 118 125 130 171 136 124 55 33 96 90 118 65 37 31 20 12 7 5 -2 6 10 21 17 13 15 11 1 -2 -1 -11 -11 -5 -2 -11 -6 -6 -8 -14
148 213 265 184 140 160 163 153 128 103 171 208 217 164 136 104 242 89 63 107 133 82 69 36 7 -5 -1 -8 -7 -20 -16 -3 9 5 10 7 7 -8 -4 -7 -16 -13 -7 -12 -15 -14 -9 -8 -10
174 204 176 177 156 144 72 167 93 100 137 122 221 247 173 85 149 174 242 279 131 67 65 31 8 -18 -19 -30 -25 -13 -19 3 -1 -2 -8 -5 -17 -21 -18 -23 -31 -31 -27 -22 -20 -14 -7 2 4
69 51 253 223 182 135 58 96 83 105 152 149 266 321 155 84 116 162 235 325 197 68 41 39 13 -21 -22 -18 -28 -20 -20 4 1 -24 -43 -51 -49 -57 -58 -44 -34 -23 -17 -7 -0 4 9 20 23
195 182 134 113 203 89 78 134 120 195 187 173 202 191 97 115 133 125 178 257 178 174 86 70 25 11 -14 -12 -23 -23 -27 -36 -46 -40 -60 -99 -54 -42 -37 -13 -9 7 14 18 17 15 17 27 33
164 134 104 145 66 27 104 144 169 230 195 135 149 161 92 88 117 106 125 181 172 142 155 89 71 50 40 18 -26 -23 -46 -51 -44 -9 -58 -90 4 18 36 11 14 17 38 28 28 22 5 36 36
175 34 178 153 37 -31 161 154 398 221 170 61 55 118 138 89 85 105 94 122 215 191 148 117 84 99 67 23 16 -15 -11 -36 -3 -4 -20 25 30 22 30 35 28 43 33 42 43 35 8 46 33
132 182 60 175 70 31 153 125 139 153 111 171 89 57 92 95 96 103 139 144 209 191 147 128 109 104 49 55 57 2 4 34 24 38 38 40 36 15 9 64 37 46 31 37 20 26 70 52 46
176 183 216 149 11 99 150 93 123 30 158 159 65 62 40 96 87 122 132 139 169 181 154 124 113 125 98 73 78 35 71 61 46 66 70 68 63 49 66 72 63 41 73 57 49 75 63 58 46
146 299 94 261 33 32 115 171 118 218 144 75 119 103 96 43 83 87 80 94 107 130 168 159 133 126 139 131 93 70 92 82 100 60 72 90 98 107 126 116 129 116 114 98 99 95 96 72 62
114 232 269 242 55 48 144 120 159 35 157 190 133 70 96 78 48 78 83 86 92 113 120 153 192 151 152 114 102 115 88 112 120 82 91 89 111 121 131 122 127 113 125 110 115 93 78 64 70
10 295 217 299 251 95 55 162 195 44 42 47 158 69 80 68 42 76 73 65 53 95 106 112 111 129 134 162 149 125 120 123 117 88 99 84 108 112 119 117 119 113 131 119 97 78 84 82 75
136 213 199 181 220 251 107 66 110 80 97 98 78 103 108 37 11 31 65 45 51 72 75 89 91 100 129 154 160 146 144 118 112 122 123 131 99 111 116 115 109 106 125 104 90 82 85 95 90
21 130 141 175 101 149 177 103 120 104 71 89 71 77 126 106 108 110 52 69 53 72 108 110 121 128 151 206 213 189 172 163 145 185 211 165 127 121 125 104 94 104 103 71 75 90 97 99 98
190 168 71 177 62 58 102 94 100 183 142 107 130 106 118 89 89 154 157 97 98 85 117 119 130 149 154 140 169 198 209 163 150 185 184 159 143 130 105 103 81 82 92 69 75 104 123 111 116
126 204 140 83 124 143 103 103 122 139 99 110 92 70 75 81 121 106 203 141 120 111 109 143 115 133 171 158 159 214 236 218 192 162 161 114 146 152 127 109 85 82 81 91 85 100 131 141 108
153 147 168 82 56 87 46 164 100 93 96 77 93 115 142 113 104 88 245 242 178 169 156 147 168 162 167 198 201 196 185 194 167 140 120 116 101 93 97 102 101 93 82 91 89 106 139 169 147
109 194 201 101 76 73 50 160 77 24 109 97 94 111 132 171 160 135 228 273 258 235 246 254 240 277 252 219 263 276 265 191 131 118 101 114 115 121 100 73 57 62 78 91 85 67 100 150 195
61 217 139 121 132 131 77 84 26 64 123 115 90 90 99 106 129 109 213 299 280 269 239 330 285 262 255 217 206 244 226 291 213 244 132 106 122 136 135 107 86 76 79 103 124 89 111 156 188
78 168 163 158 173 167 71 90 152 85 67 71 54 85 69 71 88 130 249 324 294 220 231 286 308 317 293 239 192 163 228 174 93 151 106 207 213 127 148 132 93 72 93 112 112 72 77 156 177
58 76 143 162 284 221 112 115 99 124 82 108 212 145 79 78 121 127 213 249 175 160 185 206 220 259 267 270 243 232 246 289 224 198 142 118 122 189 202 227 238 104 106 123 144 143 143 162 176
19 45 174 180 150 148 115 176 121 83 109 107 111 158 220 197 127 127 177 200 209 200 190 185 205 219 237 199 234 194 143 155 181 214 230 209 220 203 245 133 119 144 164 177 165 170 162 172 186
71 77 150 168 189 136 90 81 87 91 68 75 63 66 111 174 209 209 143 170 240 234 201 221 217 204 189 216 237 239 185 191 177 229 236 206 209 172 145 151 150 165 164 167 171 152 170 187 210
55 112 79 140 175 179 87 79 124 153 160 50 90 111 96 107 112 150 208 221 217 278 264 268 284 312 280 277 291 305 245 166 147 168 179 175 167 161 146 130 138 147 162 151 155 150 143 166 196
73 45 103 93 127 53 111 109 112 91 93 104 88 96 89 132 129 148 142 237 354 334 281 263 294 283 265 275 323 317 311 184 135 132 137 154 143 133 135 146 155 156 165 167 148 152 157 167 199

GFSSGP_con_3kmhel_099.txt.gz
Helicity
92 114 152 232 206 180 155 156 124 101 91 39 70 -2 31 153 148 118 106 120 126 126 85 81 93 81 54 48 33 32 17 14 22 31 51 73 68 59 55 47 40 40 32 28 24 22 21 22 16
103 106 202 282 292 237 161 94 97 75 41 75 138 104 196 176 142 114 163 110 142 129 93 83 84 73 63 43 34 20 11 15 23 30 38 45 42 34 34 27 29 27 25 25 21 16 18 12 2
141 116 267 309 322 261 89 123 56 75 99 125 256 169 156 174 105 165 131 112 140 114 90 74 79 72 45 37 12 6 8 15 21 25 25 27 27 23 26 24 19 16 15 11 4 0 1 -1 -3
181 171 207 333 258 149 134 99 -4 105 159 173 244 296 130 122 106 60 137 100 156 113 84 78 73 45 35 16 14 9 10 11 10 19 23 20 21 19 19 13 -1 -3 -3 -8 -7 -10 -6 -5 4
159 257 249 280 217 114 115 116 104 135 117 127 227 256 224 166 148 153 129 75 126 104 78 54 46 38 36 36 22 16 10 15 4 21 23 20 15 11 7 2 -7 -1 -3 -3 -7 -9 -15 -16 -16
214 195 237 186 158 129 124 41 128 110 122 164 197 230 218 196 159 153 93 78 98 99 79 54 58 58 47 29 19 18 17 18 -2 9 21 20 12 5 0 -4 -11 1 0 -7 -13 -12 -21 -28 -33
193 205 240 153 148 149 128 34 192 122 139 278 230 226 180 173 151 169 125 92 113 109 87 64 55 45 29 15 11 7 10 25 18 0 12 10 2 -5 -4 -8 -10 -1 -13 -21 -21 -21 -24 -28 -35
187 120 118 163 124 185 95 151 133 105 198 189 233 197 237 184 210 235 171 156 127 102 101 74 53 31 9 -8 -12 -12 -3 22 18 20 2 -2 -8 -14 -16 -32 -23 -27 -32 -24 -19 -13 -13 -12 -19
101 94 222 135 182 125 123 196 208 158 238 249 240 193 144 168 274 304 269 197 154 108 108 81 56 26 10 4 -8 -12 28 11 11 1 -6 -16 -46 -55 -54 -58 -31 -28 -29 -15 -3 4 9 6 2
141 114 -210 380 303 180 194 162 116 205 333 254 237 305 184 149 235 291 259 200 169 120 84 85 52 36 19 6 12 8 4 -13 -33 -40 -44 -49 -67 -70 -60 -49 -23 -10 -5 -1 8 14 20 24 8
96 37 101 72 216 143 181 242 299 238 269 200 163 211 165 119 180 252 278 181 138 121 87 79 65 66 44 19 20 12 -24 -42 -48 -57 -72 -67 -61 -51 -33 -24 -16 -5 13 1 15 12 11 21 22
110 -19 175 164 20 196 230 273 300 397 254 117 117 119 115 119 124 202 220 228 163 122 115 100 94 85 58 22 1 -27 -44 -46 -45 -62 -61 -47 -28 -8 8 6 14 12 14 20 24 17 11 18 24
92 160 84 89 39 183 234 242 218 173 382 243 125 175 125 115 116 136 209 219 199 168 129 145 164 90 71 2 -4 -36 -28 -42 -29 -44 -11 -4 17 33 39 20 29 23 27 37 37 35 22 5 31
110 110 153 202 17 69 166 250 241 157 283 279 150 163 151 91 108 129 166 187 177 191 154 174 155 122 92 37 36 -12 -10 1 7 3 21 24 36 38 45 44 29 24 26 8 28 44 38 30 45
116 116 150 122 -85 40 97 176 187 302 277 421 158 126 142 106 116 102 97 141 159 167 208 183 145 129 126 78 64 43 15 33 68 44 60 64 52 51 72 70 56 49 40 35 31 45 78 72 57
101 143 183 186 38 -48 151 190 210 72 125 276 102 113 148 157 91 91 101 127 131 158 170 196 146 129 121 104 108 96 71 107 75 69 89 95 106 106 116 133 85 89 91 105 107 105 79 60 58
164 116 175 156 55 95 123 -82 85 88 146 243 171 153 110 131 174 132 77 81 111 92 139 167 190 184 155 154 114 116 98 115 108 106 91 110 123 138 143 156 149 135 135 129 118 89 82 71 57
180 164 151 177 148 108 135 34 31 35 98 221 268 62 96 84 120 109 106 88 92 107 111 134 165 180 221 198 184 199 167 132 163 151 108 94 119 139 148 143 143 141 155 138 120 88 70 76 69
170 113 282 258 160 90 67 90 230 -5 -11 135 94 240 94 126 68 73 81 91 97 97 111 104 119 146 173 211 229 199 174 193 225 184 171 146 115 122 135 134 123 141 149 126 107 88 78 71 91
194 39 68 358 150 151 77 120 -2 30 81 44 59 -17 45 117 123 97 91 91 84 97 88 108 84 116 146 184 220 231 195 174 176 186 180 204 170 142 116 91 100 108 132 113 90 88 98 82 83
173 125 56 167 206 161 53 56 90 61 56 48 65 59 63 83 117 110 114 92 107 116 116 87 91 101 116 165 238 218 215 197 180 194 191 170 139 152 139 103 85 84 97 104 95 95 124 129 97
134 94 256 156 174 151 227 -42 29 67 54 107 106 104 105 69 102 171 132 129 116 120 127 120 118 130 144 174 193 203 168 181 180 188 184 122 97 97 90 134 201 236 206 190 97 100 114 151 133
110 134 187 162 153 164 185 138 66 102 36 73 169 120 88 105 99 147 154 140 144 163 173 162 154 155 176 187 176 187 218 228 226 213 207 214 104 110 126 128 127 120 134 201 174 72 86 110 150
118 141 97 143 135 96 69 86 113 109 -20 143 169 125 77 120 136 123 148 223 245 241 251 249 227 215 212 221 206 252 291 327 325 332 293 283 239 146 106 180 134 168 133 162 155 141 114 120 112
115 206 199 164 114 119 53 58 66 111 93 115 60 106 85 99 137 142 191 278 276 218 206 220 240 262 243 257 198 212 226 223 217 209 165 172 200 229 122 159 99 148 100 112 92 141 175 106 107
84 211 236 134 167 197 74 79 52 31 34 6 103 149 115 97 82 107 173 233 197 184 177 201 207 256 276 256 260 209 166 166 155 149 146 144 112 128 182 155 127 102 196 163 179 109 71 95 165
12 248 214 255 176 145 104 104 112 150 158 134 99 120 104 105 84 132 167 179 189 180 138 151 188 224 263 297 287 254 228 200 169 177 191 225 208 191 191 160 91 122 130 143 100 95 93 117 128
86 26 203 205 196 182 137 127 120 113 120 119 119 133 179 116 84 146 174 157 162 141 153 151 181 205 200 228 246 247 229 221 224 238 239 206 187 200 172 188 169 161 161 165 156 155 137 144 149
63 71 90 176 149 108 125 146 79 92 66 91 129 135 134 149 163 189 164 175 180 188 175 191 219 235 247 247 263 269 244 250 262 271 243 244 197 179 184 187 161 143 140 147 148 144 136 130 142
55 43 67 173 203 159 130 114 140 137 150 98 108 130 182 163 176 199 196 219 242 229 239 238 241 259 278 305 291 291 292 250 269 180 263 286 121 133 140 151 151 160 167 162 132 117 127 124 131

GFSSGP_con_3kmhel_102.txt.gz
Helicity
119 62 103 223 284 279 210 188 135 132 102 58 43 98 61 155 147 145 55 90 123 126 75 81 93 90 79 56 45 43 32 35 58 89 105 107 89 79 66 57 54 43 33 32 35 41 35 19 5
98 146 150 262 308 349 203 131 110 95 140 118 150 202 212 194 181 90 136 93 132 135 92 95 93 75 65 64 44 34 31 35 46 74 94 77 65 60 48 40 35 31 28 34 35 29 5 -12 -3
146 200 245 313 311 301 188 152 67 81 141 107 151 168 182 178 129 33 101 103 147 138 104 108 82 71 57 58 39 36 35 40 36 47 51 58 45 40 32 30 28 30 17 20 18 5 -6 -2 18
156 243 245 325 295 220 132 120 114 62 153 86 151 265 212 240 173 87 102 109 176 149 123 94 87 65 55 38 36 34 36 37 28 22 25 34 37 30 23 19 13 -0 -4 4 3 -3 -11 8 17
151 245 255 297 282 183 158 119 142 76 137 105 123 196 264 142 122 152 123 148 177 150 112 97 67 50 50 34 32 33 23 24 24 17 17 18 23 19 14 8 -7 -14 -7 2 -3 -20 -21 -9 1
226 180 156 286 174 136 151 176 125 61 145 114 151 300 318 180 99 153 119 146 181 148 108 82 33 59 56 31 24 25 10 13 22 12 13 13 12 12 9 1 6 -4 -7 -10 -24 -42 -41 -34 -15
154 189 153 293 105 138 103 155 241 110 112 143 149 298 297 290 168 171 115 135 154 149 115 79 57 85 60 38 24 24 9 8 24 16 13 9 4 1 -0 -8 -13 -18 -24 -29 -44 -50 -48 -31 -7
117 115 -124 115 169 154 120 212 142 24 138 126 151 160 237 268 191 230 76 73 168 157 128 115 99 89 56 32 20 23 26 10 24 15 11 -1 -10 -12 -16 -27 -35 -44 -38 -29 -35 -38 -30 -22 -0
135 148 91 -35 137 116 76 213 214 117 163 175 217 156 201 243 220 241 126 125 136 142 119 110 111 71 45 19 -3 7 31 26 25 -2 -2 -7 -32 -38 -50 -58 -49 -48 -39 -22 -17 -18 -11 -7 -7
135 164 -146 66 121 67 253 203 223 150 266 213 194 242 264 256 198 229 190 220 106 56 87 96 91 60 43 31 28 23 29 3 2 -16 -25 -46 -60 -71 -71 -68 -46 -36 -13 -10 1 1 2 5 -6
58 93 138 -40 184 201 163 344 270 161 308 250 204 222 225 302 210 197 159 230 83 82 105 82 82 57 61 28 19 18 9 -7 -33 -32 -39 -56 -72 -70 -62 -51 -43 -31 -8 2 4 8 5 6 3
34 40 37 23 29 170 100 331 242 140 212 242 135 166 225 262 242 212 212 235 126 96 155 94 76 73 49 21 21 11 -9 -32 -42 -69 -62 -52 -57 -52 -45 -39 -26 -15 -3 11 19 14 9 -0 -11
26 30 41 -44 127 176 372 191 238 168 201 297 187 131 160 225 199 257 256 186 148 123 144 115 86 87 64 37 11 -0 -24 -46 -49 -54 -66 -48 -36 -25 -17 -19 -4 -9 9 24 28 23 17 9 -0
45 24 18 18 -38 202 238 450 217 280 152 371 259 139 140 119 221 229 219 181 144 111 128 130 105 90 69 34 1 -10 -14 -54 -38 -45 -36 -17 -14 -3 14 20 20 21 31 32 38 26 21 10 24
105 47 79 34 -151 15 249 466 244 188 314 385 325 235 143 139 182 174 229 170 154 124 118 137 126 114 58 11 -15 25 -3 -4 -30 -33 -16 -0 20 38 39 40 40 24 23 38 49 37 32 41 37
112 75 54 61 -76 -36 106 300 403 93 348 506 401 324 220 142 148 175 204 228 186 209 149 120 142 143 70 17 24 61 45 27 -3 10 35 21 21 51 67 71 68 53 53 62 65 63 80 69 59
219 97 95 53 -54 -0 7 214 261 227 398 534 435 376 286 172 144 147 162 172 169 159 177 131 131 124 85 57 50 90 84 74 37 74 91 95 92 98 115 97 77 84 87 99 103 99 102 86 64
148 163 141 99 19 11 -111 87 121 243 240 215 370 369 350 202 122 114 95 133 144 149 149 152 162 165 172 144 149 142 177 129 127 133 93 122 132 133 145 141 131 136 135 131 131 130 116 94 75
232 150 146 168 91 12 -102 -41 -38 148 134 321 279 323 304 221 88 91 97 98 121 150 191 162 152 127 160 157 157 186 186 183 228 205 106 109 116 145 149 163 165 167 156 127 128 142 129 99 88
197 178 164 236 186 116 -33 -58 9 -68 35 135 138 161 307 159 86 117 100 107 108 114 128 168 155 142 140 186 195 227 196 215 190 214 168 165 141 136 135 140 127 145 129 108 106 123 136 112 102
185 201 130 179 164 210 115 137 54 77 82 54 -36 160 233 118 123 113 117 100 112 102 90 111 100 134 159 162 252 266 238 207 190 237 208 237 223 178 181 146 129 131 99 107 117 107 89 82 111
177 127 94 232 310 161 193 164 107 104 156 122 44 151 215 100 73 119 119 136 107 66 79 74 86 102 131 190 197 178 199 209 178 204 239 227 195 199 170 146 109 131 150 224 229 177 179 214 211
94 141 35 116 248 148 149 54 66 36 72 71 38 76 90 67 46 68 129 104 77 99 105 109 105 122 130 141 149 170 177 153 145 225 222 195 194 217 176 193 196 132 142 112 126 177 180 190 229
48 156 152 213 99 143 61 15 -36 -95 -7 21 14 -10 26 63 42 52 148 138 158 149 149 142 136 134 139 161 146 155 170 198 236 273 310 300 241 187 141 180 152 229 187 235 223 136 211 194 225
65 148 193 133 100 88 46 70 53 69 28 68 46 30 70 96 93 110 130 144 176 176 153 181 190 169 156 160 162 189 232 262 251 182 189 185 208 151 115 203 253 272 265 207 152 78 61 104 123
105 161 144 227 177 115 96 54 94 57 88 143 88 51 132 102 103 117 135 170 167 160 158 177 169 192 161 177 180 189 217 220 180 169 163 140 127 138 177 174 183 209 192 195 159 135 170 155 181
88 146 90 253 218 150 98 121 64 50 136 110 137 86 50 78 104 104 135 158 157 154 132 130 153 174 166 183 210 189 197 192 176 187 181 159 153 147 148 118 118 129 119 106 125 85 95 115 129
81 189 183 129 124 181 142 123 92 92 54 98 82 47 54 114 136 114 111 127 157 144 148 144 152 153 174 194 192 195 179 179 194 211 195 178 180 170 159 134 133 138 122 114 99 102 99 109 114
65 175 172 152 154 77 126 116 71 75 59 75 103 92 60 58 67 116 121 161 172 188 176 164 147 146 164 181 197 191 205 213 203 196 199 208 208 199 196 196 185 162 137 134 119 112 108 94 96
2 149 164 132 198 154 115 128 126 132 84 65 89 124 127 116 122 120 143 192 170 164 172 151 140 132 145 180 202 211 218 221 215 223 245 240 261 273 229 188 152 144 131 122 112 107 111 104 108

GFSSGP_con_3kmhel_105.txt.gz
Helicity
127 90 96 193 294 298 281 271 223 171 127 80 130 101 83 124 145 164 47 106 168 138 98 95 91 84 67 51 50 54 74 85 62 56 55 63 75 72 59 54 62 50 37 35 36 27 18 3 -9
92 84 168 235 323 349 244 179 167 152 144 110 71 40 122 139 180 51 124 103 164 150 129 113 95 93 71 46 47 52 69 100 95 72 72 89 80 66 60 53 41 35 35 31 19 8 -2 -2 -2
108 88 235 276 328 330 237 161 99 177 143 123 213 53 93 107 133 79 129 155 178 159 147 112 103 84 57 50 41 46 64 96 107 100 97 60 54 49 41 33 31 28 20 14 4 1 8 -7 -2
105 125 186 250 313 252 199 153 124 178 171 144 144 170 102 129 132 100 172 192 218 165 141 104 90 87 61 48 46 50 56 65 94 85 60 42 33 27 28 27 20 7 8 -2 -2 11 4 -11 -5
119 170 125 218 223 171 160 153 61 137 144 153 112 153 86 135 163 139 164 202 202 158 135 111 86 85 64 47 46 51 44 36 44 50 41 32 21 20 15 9 -0 -2 -5 -8 -2 -4 -11 -12 -13
191 178 125 46 213 127 146 170 192 181 128 123 172 99 227 166 143 141 131 202 175 167 145 107 88 84 50 53 36 34 36 23 22 20 23 19 12 11 5 -5 -15 -16 -16 -21 -21 -24 -25 -26 -17
207 201 141 102 58 53 97 209 182 223 173 120 90 154 177 222 126 151 159 186 203 167 145 117 86 74 45 50 29 25 32 19 16 16 15 11 3 -1 -4 -12 -16 -29 -38 -45 -43 -36 -21 -13 4
193 176 132 105 -149 54 79 157 169 202 173 127 101 144 171 261 178 207 221 176 210 171 139 127 107 89 59 40 24 15 33 22 19 15 10 4 -11 -16 -18 -26 -38 -51 -52 -52 -48 -40 -18 -5 9
130 157 137 100 -6 -84 87 92 57 128 230 174 157 108 137 287 256 232 234 279 180 156 136 143 144 106 71 52 25 21 34 24 25 11 -0 -5 -30 -34 -44 -63 -58 -55 -50 -37 -23 -15 -11 16 18
170 201 109 82 66 21 216 225 130 89 168 165 147 128 166 284 215 245 259 384 107 123 102 132 139 101 67 43 40 31 19 10 -0 -16 -26 -32 -41 -57 -67 -76 -62 -53 -42 -32 -21 -2 5 10 15
129 149 102 94 111 24 -65 258 55 139 198 165 215 104 153 179 198 238 191 403 162 92 141 136 135 98 69 53 52 26 20 3 -20 -23 -32 -44 -62 -78 -78 -70 -56 -40 -23 -18 -13 -0 -0 12 16
141 83 86 160 62 44 38 56 166 246 367 219 174 137 183 210 205 140 148 156 306 112 121 138 117 91 77 61 26 -2 -4 -9 -24 -45 -41 -54 -67 -70 -64 -50 -35 -22 -14 -5 1 2 8 8 8
84 58 -119 91 58 125 23 67 249 268 252 172 248 168 174 165 176 178 158 216 170 143 119 151 116 71 67 37 7 -11 -16 -38 -51 -53 -70 -56 -53 -52 -43 -36 -22 -14 7 15 18 20 17 10 9
81 51 -165 137 14 71 293 82 324 315 214 199 287 198 144 146 171 217 206 195 138 153 146 111 129 102 55 28 -7 -15 -23 -41 -43 -49 -58 -48 -31 -22 -15 -9 -0 7 18 30 37 36 36 29 19
51 93 -64 54 25 -135 54 57 218 337 187 231 446 372 268 183 182 156 161 148 187 188 142 106 73 122 41 23 -1 -5 -24 -23 -29 -40 -37 -29 -11 2 16 23 21 25 38 40 41 40 43 35 39
23 75 20 -15 -6 -136 -134 139 86 388 244 370 380 364 325 268 193 156 137 171 173 210 153 145 90 68 46 17 24 12 -3 1 -11 -9 -5 -5 5 37 59 59 40 47 65 74 69 60 51 52 61
32 96 76 -1 22 -96 -153 -16 240 327 280 251 310 363 337 281 212 204 163 158 168 155 167 138 105 68 77 57 47 32 23 22 28 29 32 26 42 62 71 61 51 73 77 79 90 88 92 96 80
127 134 78 43 47 -114 -151 -42 236 401 276 378 353 350 332 285 215 146 181 205 176 144 135 127 130 120 126 102 101 83 63 64 73 61 50 62 72 79 77 82 82 103 112 99 110 116 118 104 98
185 166 89 101 70 22 -130 -112 64 295 403 343 275 348 362 326 270 191 123 199 137 152 131 137 136 146 176 153 113 108 92 107 110 93 88 90 94 120 132 120 121 133 131 116 122 133 120 107 112
177 164 134 145 95 51 -71 -51 -133 -121 286 238 387 403 332 317 307 236 106 143 142 101 106 150 147 165 167 161 130 137 150 152 156 111 70 121 103 158 168 161 158 147 161 139 128 138 133 105 101
82 110 143 122 133 173 -42 -11 -120 -35 47 74 198 351 328 377 386 293 172 86 138 103 132 139 126 125 157 222 254 248 256 249 171 150 163 135 121 145 155 160 149 153 163 176 200 151 123 235 186
81 123 155 159 151 122 166 -61 -4 -96 -112 122 234 271 345 387 413 345 221 119 93 87 128 121 139 137 162 169 200 198 163 153 180 181 177 183 194 177 177 163 177 162 156 125 185 141 167 261 196
84 121 153 116 149 133 120 2 -8 -78 -90 50 236 228 207 337 468 415 183 101 75 79 78 95 127 148 172 161 160 150 179 171 163 189 218 201 234 219 201 181 162 152 169 168 164 116 233 205 171
86 131 130 163 140 111 63 41 -64 -27 5 78 142 126 112 476 477 302 148 98 100 93 92 104 98 115 115 121 108 112 117 127 157 168 211 233 247 240 188 152 158 133 162 197 253 196 227 210 255
116 119 130 160 148 175 95 44 40 -20 6 27 57 23 8 100 220 157 74 92 105 97 93 105 109 113 112 108 113 109 99 109 137 165 159 186 203 170 145 144 117 124 134 156 177 172 171 151 101
167 180 162 150 75 72 89 33 45 15 50 76 -0 13 -92 56 94 84 32 74 113 101 104 109 116 117 121 111 107 119 124 160 180 141 112 99 108 120 137 141 133 127 133 146 148 131 110 106 100
133 148 135 177 130 91 73 104 72 69 101 96 31 41 3 -15 55 38 44 53 111 130 94 87 105 108 115 114 131 130 165 167 152 137 139 123 126 123 126 121 110 107 103 104 112 102 90 73 82
74 104 171 221 124 98 114 159 145 182 265 176 83 71 37 52 75 63 68 84 104 132 132 113 104 107 112 128 151 176 174 156 159 152 127 120 124 120 124 133 146 160 145 148 132 116 114 101 90
100 95 80 161 136 87 139 132 81 136 158 178 140 88 72 38 56 87 107 99 108 151 158 124 100 103 108 130 178 182 177 161 153 146 151 147 151 150 150 158 190 175 161 173 151 125 102 88 81
77 130 95 71 85 129 70 132 138 117 113 90 106 116 105 85 84 107 118 132 144 165 157 128 124 130 126 134 154 164 166 172 185 189 183 167 172 177 165 148 132 127 123 130 130 108 87 74 71

GFSSGP_con_3kmhel_108.txt.gz
Helicity
153 103 80 144 179 250 285 305 234 200 173 141 149 85 106 107 93 155 38 123 227 210 137 112 103 72 66 59 66 72 56 47 53 62 63 64 63 59 50 43 58 39 31 29 28 11 2 4 3
169 148 126 200 161 201 194 192 213 163 191 141 199 156 127 169 83 40 68 107 228 207 149 117 106 83 69 59 67 75 62 45 41 52 62 79 69 48 46 53 36 28 31 15 7 2 3 2 3
173 175 176 108 113 55 119 191 112 169 233 187 256 156 113 148 124 33 62 194 210 192 162 125 110 93 66 63 67 79 72 73 55 65 85 84 63 46 42 32 26 21 6 4 4 1 4 3 -5
180 221 259 64 98 31 275 160 85 173 152 194 176 156 55 -8 -2 89 128 260 218 190 171 126 108 82 69 67 69 81 88 86 74 87 97 66 43 33 21 25 14 -1 -2 6 -0 1 5 -9 -13
190 214 192 66 -109 107 167 130 87 59 157 158 125 143 142 -53 52 96 176 250 214 195 164 129 102 77 61 59 67 74 87 88 87 93 64 34 22 20 16 9 -1 -12 1 4 -8 -9 -10 -21 -22
248 235 193 80 -119 137 144 83 146 100 96 126 145 107 97 87 -18 122 177 240 188 194 171 119 91 76 63 56 67 65 68 69 81 60 32 21 12 10 4 -2 -10 -11 -7 -14 -27 -22 -20 -21 -18
212 244 174 127 86 -204 139 101 169 144 106 132 81 112 209 231 38 120 166 219 203 191 177 131 107 75 63 68 58 50 47 49 41 30 22 12 -3 -11 -10 -22 -26 -27 -32 -35 -37 -26 -27 -20 -13
197 215 202 161 79 -105 63 39 199 175 154 94 78 129 203 227 215 149 125 211 224 181 188 162 124 87 72 55 48 42 29 23 32 18 17 2 -13 -30 -33 -41 -48 -55 -47 -43 -41 -31 -16 -7 -7
189 168 81 132 71 25 8 31 85 78 162 166 98 113 134 221 282 142 125 195 229 205 178 165 137 107 83 60 45 45 26 24 28 15 15 -4 -15 -14 -24 -48 -50 -57 -56 -45 -27 -16 -5 3 4
147 161 100 109 49 38 96 21 222 66 206 198 25 89 107 222 231 248 133 179 168 180 155 161 140 102 97 68 66 60 40 32 13 3 -8 -17 -19 -37 -48 -60 -57 -47 -37 -23 -12 11 18 2 -7
142 90 96 83 99 64 45 40 10 49 152 309 81 49 92 202 217 207 126 137 167 158 145 120 140 99 115 81 74 62 55 31 -5 -13 -21 -25 -33 -57 -66 -66 -62 -41 -24 -14 -4 4 15 19 5
117 124 74 29 58 84 131 49 72 55 212 252 109 32 102 151 235 322 331 284 150 116 136 127 144 123 131 85 63 62 20 17 -14 -37 -35 -39 -51 -69 -64 -54 -37 -24 -18 -10 -3 2 11 18 18
108 96 67 48 10 75 87 56 58 -2 262 81 81 106 128 118 167 245 245 203 110 285 123 94 144 156 131 96 90 56 16 -15 -17 -32 -48 -53 -57 -63 -53 -47 -29 -17 -6 -2 7 16 22 17 14
79 41 21 16 32 25 107 70 67 -97 125 153 125 90 117 116 149 211 187 211 135 361 358 96 123 147 139 112 77 40 7 -10 -33 -47 -58 -51 -38 -32 -29 -19 -13 -2 7 16 22 30 34 31 31
95 51 32 41 45 38 79 -13 -74 61 230 183 136 155 137 142 178 194 190 161 152 103 104 125 137 133 141 110 81 60 8 -20 -46 -61 -57 -34 -18 -12 -4 2 5 12 30 42 44 43 42 33 35
13 18 24 28 38 -18 52 -99 -5 64 157 218 151 244 235 269 104 197 203 151 153 158 108 144 192 123 124 110 85 54 16 -9 -28 -32 -25 -26 -12 11 22 28 22 41 53 54 55 56 54 53 53
-25 49 52 -0 20 141 48 -138 -69 94 373 204 330 485 349 330 242 158 110 124 110 99 60 103 184 160 140 113 110 65 32 23 9 11 -4 -19 7 29 46 42 50 75 78 75 80 78 82 84 77
-51 39 51 28 -14 62 105 -32 -114 43 224 700 440 548 584 370 271 250 173 116 130 116 140 145 129 62 123 127 89 99 86 57 46 17 13 30 35 49 54 54 68 99 110 101 103 103 102 101 97
-44 -14 105 45 10 12 11 -37 -158 -104 41 597 763 641 595 445 348 270 221 145 118 145 170 135 144 177 163 141 77 110 63 72 58 51 57 63 54 68 72 60 78 106 108 99 128 142 133 112 115
-68 189 81 78 56 28 -52 -169 -280 -251 -188 237 663 692 530 439 375 384 313 198 106 124 136 125 143 203 173 148 139 159 118 88 92 81 80 72 62 67 83 102 106 130 134 127 141 168 180 175 169
108 111 106 75 57 70 -68 -248 -301 -341 -278 1 421 548 451 398 323 309 279 218 208 143 156 121 124 116 165 237 253 214 168 119 105 82 108 80 58 59 107 98 123 125 139 128 118 148 165 179 129
139 52 115 33 92 121 109 -248 -131 -203 -211 -4 168 381 433 343 302 268 221 174 133 174 168 133 109 72 125 169 190 113 78 135 99 97 91 120 73 78 125 128 133 122 138 133 115 113 120 77 152
65 110 126 132 65 47 47 -2 -64 -136 -141 -54 147 300 365 325 245 278 263 196 112 72 164 212 125 89 145 133 135 138 82 150 157 133 132 104 112 96 164 167 184 153 79 69 76 148 172 207 121
37 85 120 140 95 85 115 62 -58 -120 -103 -123 -28 361 352 351 273 292 272 236 164 126 130 152 73 67 127 161 174 111 139 185 82 55 108 103 142 207 203 159 120 134 134 136 102 128 150 129 123
36 70 124 101 88 133 48 107 2 -117 -65 -10 10 94 453 424 308 331 333 268 190 115 70 85 105 77 114 150 92 77 83 86 91 113 131 138 158 157 137 152 141 108 98 88 103 114 123 129 111
43 29 51 79 25 57 51 73 24 4 -46 8 -0 127 251 361 295 420 441 263 176 120 99 78 61 70 63 68 76 100 52 72 87 101 83 96 121 99 74 87 92 83 93 102 118 117 96 90 83
136 67 36 87 75 92 119 87 34 86 71 7 -4 -34 172 225 191 431 412 225 134 85 69 73 83 87 85 66 91 90 96 103 107 98 111 111 106 95 97 96 102 112 100 102 105 99 101 100 87
117 75 75 81 49 72 119 132 169 199 128 54 18 -27 -57 14 177 487 283 155 82 79 90 100 99 87 93 96 107 125 133 141 149 156 156 153 148 132 128 125 121 123 129 134 122 127 120 115 106
92 112 101 74 82 23 73 135 167 190 178 135 99 62 6 -55 15 106 103 50 62 86 119 133 119 95 98 101 131 162 185 189 187 189 173 167 156 140 129 122 139 128 120 117 110 111 115 111 117
47 44 141 91 94 120 109 172 142 152 151 135 124 120 120 112 105 97 80 63 74 89 101 121 137 110 102 112 136 157 174 183 194 187 172 153 148 133 118 134 142 129 129 122 112 102 104 107 104

GFSSGP_con_3kmhel_111.txt.gz
Helicity
116 118 128 185 264 303 191 231 288 133 154 144 130 253 146 137 150 177 40 104 158 256 166 121 99 89 85 83 68 43 47 81 98 67 56 42 50 57 35 38 39 34 15 32 15 16 5 -2 3
132 130 192 281 420 492 318 142 165 161 139 118 146 178 196 143 118 61 5 49 151 249 188 108 103 98 89 85 68 43 42 58 61 53 42 69 63 45 31 43 18 29 25 14 9 3 5 -2 -2
151 163 271 399 448 342 315 68 103 135 150 157 142 197 217 165 111 28 8 60 199 222 160 112 108 93 80 79 72 66 32 41 32 39 60 79 50 32 41 16 19 25 18 4 3 6 3 -8 -12
192 229 297 464 477 341 219 180 182 85 104 89 109 144 209 113 16 35 -8 82 252 192 141 124 105 89 75 78 86 77 57 50 45 60 66 69 39 37 22 16 7 15 10 0 -3 3 -7 -13 -17
203 279 451 518 344 293 234 179 182 87 56 129 99 78 93 288 24 -58 4 138 262 206 132 118 108 84 74 86 98 94 80 71 69 86 95 37 26 16 21 -1 -12 10 9 -4 -7 -10 -18 -16 -14
299 298 544 537 321 203 251 210 180 182 162 140 69 112 64 135 156 -126 42 160 226 211 151 112 96 77 75 95 111 99 88 83 79 94 49 15 7 10 3 -15 -9 6 -4 -18 -20 -17 -15 -8 -6
284 371 399 290 222 114 195 84 188 152 187 223 79 113 71 91 185 59 71 219 211 207 158 124 87 72 76 91 113 116 104 74 79 67 20 11 5 -1 -4 -16 2 -11 -28 -29 -27 -21 -11 -5 -2
220 252 243 199 141 23 125 112 93 103 160 155 96 79 106 118 103 157 117 216 218 216 168 131 101 81 76 75 103 105 105 86 81 53 26 15 -10 -10 -15 -21 -15 -33 -32 -31 -33 -27 -13 -5 -1
167 238 264 115 151 86 130 55 72 108 109 156 219 191 102 118 172 227 222 220 218 215 190 131 108 91 82 76 75 83 78 84 82 53 30 -2 -25 -25 -28 -52 -39 -34 -37 -34 -21 -6 -1 3 -4
164 198 121 114 94 80 120 183 95 80 109 64 210 266 186 65 281 168 195 198 189 205 151 145 115 89 88 92 76 63 64 31 12 -6 -12 -18 -24 -35 -45 -47 -34 -27 -35 -24 -12 5 12 -8 -18
148 154 82 53 55 76 100 94 86 21 30 111 196 337 212 79 209 272 193 176 193 187 169 119 124 97 97 97 99 80 57 40 27 -2 -6 -4 -8 -33 -50 -65 -70 -48 -32 -26 -13 -12 -18 -11 -12
134 93 76 25 50 65 61 75 40 15 38 58 225 164 352 59 131 239 245 185 188 159 144 126 102 106 93 108 89 59 45 35 26 3 -7 -9 -19 -48 -63 -67 -61 -40 -36 -13 -8 -9 -3 -2 -3
83 49 56 51 50 38 58 58 75 58 67 19 215 141 272 164 54 251 248 209 268 159 124 111 113 96 91 80 101 66 43 28 19 6 -15 -31 -38 -55 -58 -50 -39 -25 -11 -6 2 6 7 6 4
133 81 23 37 34 64 12 48 49 12 31 106 94 129 161 138 63 275 281 392 41 104 91 61 93 92 96 99 86 85 59 42 26 1 -23 -47 -51 -45 -38 -27 -21 -7 -1 8 15 15 18 18 17
84 78 45 -3 31 58 40 23 46 50 35 109 38 36 -22 160 85 99 258 299 51 56 118 73 94 106 95 88 95 96 73 52 28 0 -29 -46 -46 -36 -22 -13 -7 4 17 33 39 43 38 30 29
63 -7 84 11 17 48 75 7 20 -13 -2 110 84 -202 -19 192 98 68 214 239 192 36 90 125 122 135 115 96 119 92 70 48 30 7 -7 -24 -23 -17 -5 2 10 26 36 43 52 54 50 44 42
38 15 25 28 46 72 50 11 27 -4 -9 59 53 99 65 114 96 94 120 231 180 118 77 87 124 157 150 122 134 113 69 45 35 30 14 -6 -6 0 11 14 25 42 51 51 59 65 62 62 57
46 10 -3 42 35 34 -1 66 -6 -28 -45 45 90 173 387 153 72 106 88 151 177 116 96 34 110 181 199 183 139 121 94 58 51 39 23 7 14 17 23 30 45 59 67 68 68 78 79 85 98
-4 32 -8 62 86 7 -32 11 32 -34 27 110 201 381 465 305 141 202 159 107 165 98 55 94 182 189 244 191 144 117 80 92 72 50 38 21 27 26 24 43 57 72 65 70 96 106 100 112 117
23 -10 103 131 56 14 58 83 43 -47 -36 0 -166 253 381 496 161 198 171 186 180 67 110 141 151 174 193 173 148 144 116 99 99 98 80 68 60 45 43 45 62 77 92 101 98 101 115 112 85
73 18 121 53 28 34 20 40 -68 -81 -126 -148 -157 -24 340 509 184 239 195 154 128 119 115 52 111 118 173 176 197 197 162 132 109 117 111 90 66 52 46 44 69 88 100 98 91 99 96 77 39
120 67 108 54 29 46 102 -39 -118 -130 -163 -19 -208 -73 471 414 291 285 319 249 176 116 101 115 148 63 167 150 201 192 152 150 123 130 127 111 80 59 43 64 64 114 133 100 73 66 40 73 137
49 55 102 51 37 140 158 58 71 -32 -170 -126 -163 6 358 481 401 296 301 267 252 201 207 146 119 97 68 171 144 236 204 195 198 153 114 105 81 84 88 86 115 154 102 39 74 89 167 114 99
77 99 175 80 49 48 105 152 101 -62 -187 -316 -149 129 523 564 368 311 306 277 251 206 288 286 105 35 71 145 205 162 152 186 137 130 132 160 83 152 92 140 145 123 112 136 119 107 67 76 90
78 115 167 124 130 107 135 161 77 -50 -92 -40 3 201 489 483 363 321 256 234 223 96 126 214 218 188 188 51 53 93 135 73 107 158 258 127 43 108 123 126 145 123 62 52 61 72 93 93 102
-2 83 95 112 69 14 64 78 59 -29 -47 -24 47 130 499 292 382 306 182 119 76 85 98 139 146 146 101 135 82 120 180 109 54 105 25 63 55 106 158 136 90 68 69 75 82 95 102 84 83
-10 36 82 94 94 54 49 27 28 89 97 -6 -37 112 359 381 516 436 259 168 142 91 61 18 38 75 75 62 47 -5 32 6 5 34 46 78 85 74 119 145 150 101 100 105 103 107 105 106 107
27 24 81 69 85 83 55 79 120 172 111 87 22 4 262 456 602 481 380 223 140 99 82 75 58 40 52 53 53 82 71 70 103 101 101 153 166 177 185 173 138 148 145 121 114 124 130 129 112
47 44 37 26 55 139 39 77 192 162 159 65 54 17 101 452 645 428 510 321 138 99 93 98 83 85 80 77 89 114 126 144 154 158 157 170 169 162 162 142 156 149 134 118 121 119 104 106 106
59 77 54 33 57 91 122 148 107 137 144 115 114 93 43 76 289 328 523 271 168 124 80 92 104 109 92 96 118 135 146 161 194 197 175 164 178 159 142 138 150 142 134 130 122 125 118 117 120

GFSSGP_con_3kmhel_114.txt.gz
Helicity
50 54 95 115 239 380 315 393 226 207 233 94 157 168 145 80 98 197 78 35 77 137 207 140 114 69 64 53 74 87 90 92 73 73 66 58 63 58 56 43 43 22 34 32 14 5 6 9 14
79 82 108 231 402 323 442 303 415 247 182 236 91 118 135 90 132 98 55 32 81 121 179 137 113 69 67 59 57 75 93 92 74 69 61 62 66 67 31 34 19 23 23 21 14 1 6 5 13
111 125 217 407 403 387 422 259 267 231 181 209 152 88 96 105 82 48 13 -14 44 116 141 155 125 84 66 60 47 59 76 73 60 51 39 61 68 40 37 32 15 37 20 14 10 7 -1 -5 2
145 173 286 479 418 341 200 188 168 176 137 161 138 169 105 119 80 42 -46 -64 64 153 120 162 133 90 63 60 40 40 53 60 51 41 58 69 58 31 20 25 52 29 19 16 12 -1 -7 -8 -8
155 286 380 431 343 286 277 140 109 145 159 152 115 140 106 91 109 57 -129 -54 87 157 173 118 125 96 73 67 54 42 51 49 43 65 72 80 41 33 16 40 44 18 10 9 7 -3 -8 -6 -1
251 313 436 385 307 255 240 162 104 83 83 178 270 140 172 53 71 219 -95 -44 148 157 175 119 124 96 90 80 70 64 64 64 75 71 84 64 41 23 27 40 24 15 9 1 -3 -7 -5 0 5
224 298 329 282 302 283 196 180 134 77 80 96 123 201 110 63 45 148 185 -17 127 151 139 135 107 95 108 103 89 85 77 75 77 96 83 40 30 15 11 28 17 5 -4 -7 -9 0 1 6 10
195 303 358 334 363 275 124 114 109 90 63 104 134 215 208 62 38 93 306 83 106 180 115 131 115 93 81 94 121 99 90 86 92 103 56 40 28 3 -9 21 9 2 -1 -5 -6 2 3 4 4
136 380 394 271 186 138 108 95 82 86 115 122 147 203 267 185 46 85 336 135 107 187 131 132 125 101 74 80 118 143 137 134 122 114 75 34 4 -14 -5 -7 -2 1 -2 -10 -11 -1 4 3 -3
173 266 178 65 61 81 59 110 146 129 73 85 103 155 211 194 74 65 198 187 83 204 153 134 128 112 92 84 95 94 100 55 58 52 11 2 5 -18 -26 -22 -4 -7 -13 -7 -1 5 4 -30 -18
151 151 50 52 69 65 46 57 115 120 131 100 27 75 164 197 147 35 156 207 214 194 199 125 120 113 97 91 77 106 100 76 33 8 4 11 7 -15 -32 -22 -29 -39 -43 -26 -18 -13 -23 -13 -12
143 65 68 40 48 46 43 65 77 91 96 66 61 45 140 245 245 202 25 172 214 163 187 149 125 107 97 119 99 66 73 47 24 8 10 22 15 -28 -36 -44 -61 -58 -54 -33 -28 -30 -17 -9 -4
94 59 62 48 55 47 58 52 68 85 55 107 38 102 -24 173 282 174 157 93 199 206 285 165 125 93 98 92 99 85 70 50 33 22 13 17 4 -30 -55 -70 -66 -55 -38 -32 -23 -17 -9 -5 1
94 79 63 73 77 55 57 37 52 51 52 31 39 115 -61 69 161 145 -62 84 226 367 238 160 108 77 82 96 93 99 89 74 57 40 16 -13 -28 -40 -53 -48 -42 -31 -25 -13 -10 -4 1 5 3
49 59 62 45 46 37 50 39 28 16 38 85 71 36 13 55 48 87 -132 23 499 358 155 110 81 72 70 113 102 125 107 93 73 51 18 -4 -30 -36 -24 -18 -13 -5 2 9 13 14 11 13 17
71 95 77 60 48 1 37 22 18 39 41 42 40 66 19 25 45 34 -34 12 385 432 415 72 106 79 68 105 131 115 111 93 82 65 34 6 -2 3 8 10 13 21 24 24 23 24 23 23 23
100 81 29 29 17 2 24 26 19 29 37 55 41 85 -15 -2 39 34 -112 -23 91 341 372 145 86 73 53 86 138 111 101 98 83 65 50 29 30 27 32 34 32 32 35 38 42 40 37 44 45
51 45 12 12 33 15 15 11 6 27 14 -10 -10 -5 -6 23 24 38 61 -54 86 98 15 67 174 76 46 101 151 137 102 96 80 70 59 44 51 41 45 47 40 44 45 52 55 60 68 70 71
-27 -44 -1 70 70 54 42 12 18 74 19 13 4 -48 36 56 6 -26 169 2 79 66 -17 130 169 126 127 143 189 159 103 112 79 78 74 62 64 53 58 63 59 62 60 65 77 90 84 75 56
66 62 122 130 93 43 18 -19 31 15 14 20 -22 -20 134 186 20 3 181 -9 38 75 -38 40 120 188 164 177 175 174 143 103 90 90 80 64 59 62 65 74 66 59 73 75 77 80 88 60 31
111 110 109 109 78 2 -8 -8 13 25 8 27 -18 30 39 124 10 -15 202 104 69 63 51 41 126 182 194 179 204 174 158 125 135 108 104 91 81 82 86 81 84 86 89 88 80 67 63 62 90
184 110 88 57 26 -65 1 8 -17 -8 -18 -3 -58 11 47 201 72 19 200 84 44 72 64 137 177 139 115 89 176 179 171 117 122 133 130 125 109 102 98 98 79 74 76 81 80 81 69 54 113
137 18 2 32 -4 19 55 59 31 -99 -11 36 2 55 44 91 80 115 169 86 175 182 127 195 125 112 107 133 174 204 116 115 155 172 153 151 137 104 87 82 76 77 78 79 102 15 115 105 75
143 135 38 57 77 159 75 125 71 -20 -38 -38 -56 78 47 69 96 194 138 184 254 224 202 110 100 218 147 165 185 159 181 181 205 178 177 179 158 158 112 102 87 113 75 81 43 72 38 62 35
78 164 73 112 197 237 277 123 17 22 39 41 60 114 179 188 269 219 96 236 206 174 47 79 116 109 104 82 157 159 203 155 226 176 176 170 169 169 124 102 101 96 71 89 16 -6 42 50 52
69 111 68 141 189 263 190 174 153 53 41 48 47 142 275 399 437 262 130 185 242 192 126 126 146 41 117 140 46 132 26 121 177 288 198 175 218 112 128 99 123 93 122 25 10 45 68 73 87
76 97 62 1 28 154 202 95 80 78 61 41 142 193 277 401 558 210 316 221 175 163 217 131 116 117 105 120 146 117 124 40 92 247 159 150 78 165 126 153 121 117 79 79 93 117 109 107 111
41 137 76 63 17 101 118 135 146 141 146 43 236 255 301 320 459 408 369 276 195 165 131 45 -2 17 79 129 133 59 176 62 185 186 86 132 124 120 72 165 136 131 137 136 118 117 117 113 119
83 32 69 90 58 63 82 98 206 130 41 11 40 156 342 502 717 519 445 262 142 71 56 28 9 -8 25 34 -15 -54 -48 -69 -59 -55 -46 -4 69 106 184 163 130 152 149 128 121 122 111 98 93
136 103 55 124 78 102 89 117 126 90 78 13 -20 53 221 394 555 391 321 282 158 117 102 87 47 38 36 58 58 17 35 46 59 52 69 117 142 170 183 166 158 157 154 138 118 113 98 96 97

GFSSGP_con_3kmhel_117.txt.gz
Helicity
28 37 75 77 167 239 20 188 56 74 63 34 -29 25 73 43 79 132 94 75 59 85 103 131 113 99 89 79 84 82 79 81 69 54 60 54 58 50 43 42 44 29 34 25 13 21 29 33 37
63 61 85 148 176 82 157 53 74 70 100 74 35 1 82 148 79 80 16 39 58 78 111 133 128 110 89 79 88 83 77 88 91 69 61 63 56 52 37 30 36 37 33 27 31 32 41 33 25
76 84 154 251 174 139 123 58 54 11 135 45 104 35 47 96 82 70 63 -60 30 123 112 128 127 112 95 82 84 85 74 81 93 86 59 60 55 64 41 37 47 52 53 39 31 30 26 16 11
99 136 225 216 126 89 49 91 67 48 100 37 67 148 29 32 50 146 -3 -58 -48 172 117 145 122 108 94 81 79 72 75 71 83 86 61 59 72 62 45 41 66 57 42 35 26 10 1 6 -0
134 191 187 163 115 108 134 146 136 174 150 102 30 77 39 19 150 87 56 -55 -103 89 175 106 114 119 102 78 69 58 68 67 73 72 50 61 88 60 63 68 62 54 46 35 21 -1 -4 3 4
188 221 179 155 88 81 91 104 126 184 79 70 26 -0 49 17 87 118 94 90 -31 80 179 110 122 125 102 76 64 48 54 66 59 61 63 85 71 67 82 70 52 40 37 26 13 -3 1 10 7
144 149 128 113 118 128 134 77 137 117 130 71 12 82 37 15 54 30 54 201 38 67 108 115 92 109 108 77 59 52 75 70 63 76 85 88 69 73 81 67 44 28 26 15 5 5 6 7 4
128 165 122 138 130 107 97 95 73 98 115 1 16 44 83 10 173 20 52 183 266 59 90 119 107 99 89 72 91 84 91 84 88 109 118 101 75 71 74 69 35 30 25 11 6 4 10 7 7
130 238 177 120 106 79 90 133 64 39 90 6 33 56 59 120 156 135 67 137 314 187 119 129 131 106 90 75 84 100 105 125 152 160 151 79 28 33 38 48 49 33 15 10 3 2 11 6 -0
134 175 132 83 89 119 113 122 86 68 90 55 53 57 44 60 161 223 77 121 275 198 108 103 147 115 98 109 79 76 111 150 155 132 84 24 40 21 42 61 48 38 20 1 -2 -3 -11 -34 -16
109 170 108 100 90 103 147 187 124 123 145 132 71 42 63 169 38 107 73 76 209 232 125 114 150 126 114 125 97 132 160 165 136 93 39 34 38 53 71 54 11 -2 -18 -18 -18 -20 -27 -29 -18
136 83 71 89 99 153 171 118 100 131 117 58 95 62 57 33 87 -13 103 116 87 134 -70 85 185 184 144 141 115 153 173 183 135 89 34 64 60 71 71 28 -4 -25 -37 -18 -13 -25 -15 -14 -10
117 72 78 76 103 111 106 108 64 71 66 37 37 116 102 84 28 -87 -37 -35 304 141 17 18 237 248 156 147 127 157 198 156 74 56 58 69 74 56 59 24 -7 -20 -27 -21 -18 -14 -8 -10 -4
90 96 123 105 117 126 110 94 74 63 35 77 92 79 94 137 -49 159 -33 -60 -14 174 62 141 85 171 159 146 117 112 152 130 108 96 128 116 103 80 3 1 -29 -8 -4 -5 -2 1 3 3 3
91 105 87 71 79 53 41 68 73 -1 47 46 51 63 100 44 -21 49 48 -77 -190 126 189 230 202 211 166 125 161 161 145 122 111 108 33 94 95 51 13 -14 -2 2 13 9 12 16 13 10 13
90 107 114 43 37 23 36 108 41 32 25 50 40 39 54 46 12 -14 43 -124 -92 -6 82 246 102 191 167 141 154 171 143 143 125 128 95 68 68 50 46 32 12 20 30 28 25 21 18 15 19
62 84 67 77 21 30 75 97 34 35 44 33 33 23 45 71 25 33 -8 -125 -58 -72 121 309 232 156 144 160 179 143 127 154 155 159 149 112 64 39 50 41 34 37 42 36 32 28 25 28 32
68 86 26 27 -4 40 63 31 49 60 5 25 37 42 42 93 -39 91 -6 -183 -42 27 103 306 386 128 130 198 187 171 152 160 166 164 142 129 83 49 66 66 56 56 52 44 43 34 48 47 37
-10 -38 -62 -54 -24 32 24 35 23 -0 21 37 63 59 61 11 28 71 -51 -139 4 -7 118 122 142 94 224 182 183 149 140 162 153 151 117 91 79 73 81 88 68 65 52 44 46 52 44 52 42
-33 -42 4 104 69 26 39 59 -1 9 10 28 44 36 11 2 -9 20 -20 -73 25 6 41 225 193 68 213 191 164 141 147 144 160 159 127 107 88 90 108 83 80 75 73 65 52 60 66 59 59
110 161 157 74 36 8 69 8 -17 -1 22 13 33 47 12 2 9 51 54 -7 35 118 177 133 159 91 172 154 169 169 173 184 177 144 135 129 116 101 112 102 95 82 81 77 77 77 59 63 94
229 133 247 226 86 10 -24 -34 -20 -13 3 24 17 9 28 -26 52 111 77 13 -5 7 142 -3 -9 59 173 157 161 157 206 192 179 191 172 160 131 130 144 130 113 120 136 105 80 63 56 61 111
167 25 33 -5 -61 -4 -5 -40 -86 -39 -0 27 21 53 32 33 76 105 115 51 58 90 78 41 67 34 230 165 171 166 158 167 169 164 145 155 160 144 161 160 142 133 124 99 77 104 81 12 84
108 102 86 -9 -38 29 63 93 -14 -59 -22 8 18 34 58 98 98 84 115 90 83 46 155 144 73 20 154 142 118 127 146 150 169 146 152 175 211 211 182 172 163 160 138 119 107 98 97 23 25
62 87 167 77 11 22 25 37 37 82 97 60 48 63 96 33 75 59 76 156 139 54 51 -0 94 399 154 148 171 202 199 214 130 149 179 190 224 246 216 195 152 132 133 100 116 117 20 -42 -58
96 81 180 262 91 56 57 53 104 57 22 60 47 131 173 210 208 164 120 222 139 110 56 79 61 172 385 168 210 247 200 187 223 243 176 198 197 210 208 176 142 143 104 113 45 67 25 -50 -27
57 25 80 296 161 157 146 63 129 31 -18 29 173 236 204 299 310 279 239 256 138 135 49 63 19 27 62 97 149 22 124 74 150 165 245 268 297 236 174 151 156 74 24 37 88 49 -3 18 82
95 89 35 145 149 198 196 235 254 196 76 101 375 257 298 341 427 361 292 182 124 83 63 77 44 42 116 107 -102 72 -93 71 126 240 127 277 225 181 173 103 193 193 205 86 36 103 116 141 126
98 73 82 131 139 177 241 235 173 92 -48 96 229 231 365 594 501 438 377 230 246 145 169 141 46 97 139 110 108 63 -1 -71 -82 95 132 253 339 300 162 106 145 131 197 131 165 149 144 139 141
196 163 88 69 79 110 109 154 90 9 -51 35 275 190 244 468 490 395 333 235 257 223 214 205 63 55 62 87 73 -6 -11 -59 -4 -53 -20 30 -10 71 73 35 110 113 144 118 117 126 132 125 118